[[{"header":{"parameterUnit":"m.s-1","parameterCategory":1,"la1":31.0,"la2":29.5877,"lo1":-88.7671,"lo2":-86.6584,"dy":0.0162,"dx":0.0185,"nx":115,"ny":88,"refTime":"2025-08-12T12:00:00:Z","depth":0,"parameterNumber":2,"parameterNumberName":"U-component_of_WINDS"},"data":[0.0,0.0,0.0,0.0,0.0,0.0,0.0,0.0,0.0,0.0,0.0,0.0,0.0,0.0,0.0,0.0,0.0,0.0,0.0,0.0,0.0,0.0,0.0,0.0,0.0,0.0,0.0,0.0,0.0,0.0,0.0,0.0,0.0,0.0,0.0,0.0,0.0,0.0,0.0,0.0,0.0,0.0,0.0,0.0,0.0,0.0,0.0,0.0,0.0,0.0,0.0,0.0,0.0,0.0,0.0,0.0,0.0,0.0,0.0,0.0,0.0,0.0,0.0,0.0,0.0,0.0,0.0,0.0,0.0,0.0,0.0,0.0,0.0,0.0,0.0,0.0,0.0,0.0,0.0,0.0,0.0,0.0,0.0,0.0,0.0,0.0,0.0,0.0,0.0,0.0,0.0,0.0,0.0,0.0,0.0,0.0,0.0,0.0,0.0,0.0,0.0,0.0,0.0,0.0,0.0,0.0,0.0,0.0,0.0,0.0,0.0,0.0,0.0,0.0,0.0,0.0,0.0,0.0,0.0,0.0,0.0,0.0,0.0,0.0,0.0,0.0,0.0,0.0,0.0,0.0,0.0,0.0,0.0,0.0,0.0,0.0,0.0,0.0,0.0,0.0,0.0,0.0,0.0,0.0,0.0,0.0,0.0,0.0,0.0,0.0,0.0,0.0,0.0,0.0,0.0,0.0,0.0,0.0,0.0,0.0,0.0,0.0,0.0,0.0,0.0,0.0,0.0,0.0,0.0,0.0,0.0,0.0,0.0,0.0,0.0,0.0,0.0,0.0,0.0,0.0,0.0,0.0,0.0,0.0,0.0,0.0,0.0,0.0,0.0,0.0,0.0,0.0,0.0,0.0,0.0,0.0,0.0,0.0,0.0,0.0,0.0,0.0,0.0,0.0,0.0,0.0,0.0,0.0,0.0,0.0,0.0,0.0,0.0,0.0,0.0,0.0,0.0,0.0,0.0,0.0,0.0,0.0,0.0,0.0,0.0,0.0,0.0,0.0,0.0,0.0,0.0,0.0,0.0,0.0,0.0,0.0,0.0,0.0,0.0,0.0,0.0,0.0,0.0,0.0,0.0,0.0,0.0,0.0,0.0,0.0,0.0,0.0,0.0,0.0,0.0,0.0,0.0,0.0,0.0,0.0,0.0,0.0,0.0,0.0,0.0,0.0,0.0,0.0,0.0,0.0,0.0,0.0,0.0,0.0,0.0,0.0,0.0,0.0,0.0,0.0,0.0,0.0,0.0,0.0,0.0,0.0,0.0,0.0,0.0,0.0,0.0,0.0,0.0,0.0,0.0,0.0,0.0,0.0,0.0,0.0,0.0,0.0,0.0,0.0,0.0,0.0,0.0,0.0,0.0,0.0,0.0,0.0,0.0,0.0,0.0,0.0,0.0,0.0,0.0,0.0,0.0,0.0,0.0,0.0,0.0,0.0,0.0,0.0,0.0,0.0,0.0,0.0,0.0,0.0,0.0,0.0,0.0,0.0,0.0,0.0,0.0,0.0,0.0,0.0,0.0,0.0,0.0,0.0,0.0,0.0,0.0,0.0,0.0,0.0,0.0,0.0,0.0,0.0,0.0,0.0,0.0,0.0,0.0,0.0,0.0,0.0,0.0,0.0,0.0,0.0,0.0,0.0,0.0,0.0,0.0,0.0,0.0,0.0,0.0,0.0,0.0,0.0,0.0,0.0,0.0,0.0,0.0,0.0,0.0,0.0,0.0,0.0,0.0,0.0,0.0,0.0,0.0,0.0,0.0,0.0,0.0,0.0,0.0,0.0,0.0,0.0,0.0,0.0,0.0,0.0,0.0,0.0,0.0,0.0,0.0,0.0,0.0,0.0,0.0,0.0,0.0,0.0,0.0,0.0,0.0,0.0,0.0,0.0,0.0,0.0,0.0,0.0,0.0,0.0,0.0,0.0,0.0,0.0,0.0,0.0,0.0,0.0,0.0,0.0,0.0,0.0,0.0,0.0,0.0,0.0,0.0,0.0,0.0,0.0,0.0,0.0,0.0,0.0,0.0,0.0,0.0,0.0,0.0,0.0,0.0,0.0,0.0,0.0,0.0,0.0,0.0,0.0,0.0,0.0,0.0,0.0,0.0,0.0,0.0,0.0,0.0,0.0,0.0,0.0,0.0,0.0,0.0,0.0,0.0,0.0,0.0,0.0,0.0,0.0,0.0,0.0,0.0,0.0,0.0,0.0,0.0,0.0,0.0,0.0,0.0,0.0,0.0,0.0,0.0,0.0,0.0,0.0,0.0,0.0,0.0,0.0,0.0,0.0,0.0,0.0,0.0,0.0,0.0,0.0,0.0,0.0,0.0,0.0,0.0,0.0,0.0,0.0,0.0,0.0,0.0,0.0,0.0,0.0,0.0,0.0,0.0,0.0,0.0,0.0,0.0,0.0,0.0,0.0,0.0,0.0,0.0,0.0,0.0,0.0,0.0,0.0,0.0,0.0,0.0,0.0,0.0,0.0,0.0,0.0,0.0,0.0,0.0,0.0,0.0,0.0,0.0,0.0,0.0,0.0,0.0,0.0,0.0,0.0,0.0,0.0,0.0,0.0,0.0,0.0,0.0,0.0,0.0,0.0,0.0,0.0,0.0,0.0,0.0,0.0,0.0,0.0,0.0,0.0,0.0,0.0,0.0,0.0,0.0,0.0,0.0,0.0,0.0,0.0,0.0,0.0,0.0,0.0,0.0,0.0,0.0,0.0,0.0,0.0,0.0,0.0,0.0,0.0,0.0,0.0,0.0,0.0,0.0,0.0,0.0,0.0,0.0,0.0,0.0,0.0,0.0,0.0,0.0,0.0,0.0,0.0,0.0,0.0,0.0,0.0,0.0,0.0,0.0,0.0,0.0,0.0,0.0,0.0,0.0,0.0,0.0,0.0,0.0,0.0,0.0,0.0,0.0,0.0,0.0,0.0,0.0,0.0,0.0,0.0,0.0,0.0,0.0,0.0,0.0,0.0,0.0,0.0,0.0,0.0,0.0,0.0,0.0,0.0,0.0,0.0,0.0,0.0,0.0,0.0,0.0,0.0,0.0,0.0,0.0,0.0,0.0,0.0,0.0,0.0,0.0,0.0,0.0,0.0,0.0,0.0,0.0,0.0,0.0,0.0,0.0,0.0,0.0,0.0,0.0,0.0,0.0,0.0,0.0,0.0,0.0,0.0,0.0,0.0,0.0,0.0,0.0,0.0,0.0,0.0,0.0,0.0,0.0,0.0,0.0,0.0,0.0,0.0,0.0,0.0,0.0,0.0,0.0,0.0,0.0,0.0,0.0,0.0,0.0,0.0,0.0,0.0,0.0,0.0,0.0,0.0,0.0,0.0,0.0,0.0,0.0,0.0,0.0,0.0,0.0,0.0,0.0,0.0,0.0,0.0,0.0,0.0,0.0,0.0,0.0,0.0,0.0,0.0,0.0,0.0,0.0,0.0,0.0,0.0,0.0,0.0,0.0,0.0,0.0,0.0,0.0,0.0,0.0,0.0,0.0,0.0,0.0,0.0,0.0,0.0,0.0,0.0,0.0,0.0,0.0,0.0,0.0,0.0,0.0,0.0,0.0,0.0,0.0,0.0,0.0,0.0,0.0,0.0,0.0,0.0,0.0,0.0,0.0,0.0,0.0,0.0,0.0,0.0,0.0,0.0,0.0,0.0,0.0,0.0,0.0,0.0,0.0,0.0,0.0,0.0,0.0,0.0,0.0,0.0,0.0,0.0,0.0,0.0,0.0,0.0,0.0,0.0,0.0,0.0,0.0,0.0,0.0,0.0,0.0,0.0,0.0,0.0,0.0,0.0,0.0,0.0,0.0,0.0,0.0,0.0,0.0,0.0,0.0,0.0,0.0,0.0,0.0,0.0,0.0,0.0,0.0,0.0,0.0,0.0,0.0,0.0,0.0,0.0,0.0,0.0,0.0,0.0,0.0,0.0,0.0,0.0,0.0,0.0,0.0,0.0,0.0,0.0,0.0,0.0,0.0,0.0,0.0,0.0,0.0,0.0,0.0,0.0,0.0,0.0,0.0,0.0,0.0,0.0,0.0,0.0,0.0,0.0,0.0,0.0,0.0,0.0,0.0,0.0,0.0,0.0,0.0,0.0,0.0,0.0,0.0,0.0,0.0,0.0,0.0,0.0,0.0,0.0,0.0,0.0,0.0,0.0,0.0,0.0,0.0,0.0,0.0,0.0,0.0,0.0,0.0,0.0,0.0,0.0,0.0,0.0,0.0,0.0,0.0,0.0,0.0,0.0,0.0,0.0,-1.2162,0.0,0.0,0.0,0.0,0.0,0.0,0.0,0.0,0.0,0.0,0.0,0.0,0.0,0.0,0.0,0.0,0.0,0.0,0.0,0.0,0.0,0.0,0.0,0.0,0.0,0.0,0.0,0.0,0.0,0.0,0.0,0.0,0.0,0.0,0.0,0.0,0.0,0.0,0.0,0.0,0.0,0.0,0.0,0.0,0.0,0.0,0.0,0.0,0.0,0.0,0.0,0.0,0.0,0.0,0.0,0.0,0.0,0.0,0.0,0.0,0.0,0.0,0.0,0.0,0.0,0.0,0.0,0.0,0.0,0.0,0.0,0.0,0.0,0.0,0.0,0.0,0.0,0.0,0.0,0.0,0.0,0.0,0.0,0.0,0.0,0.0,0.0,0.0,0.0,0.0,0.0,0.0,0.0,0.0,0.0,0.0,0.0,0.0,0.0,0.0,0.0,0.0,0.0,0.0,0.0,0.0,0.0,0.0,0.0,0.0,-1.4814,-1.4641,-1.4607,-1.4124,-1.3075,0.0,0.0,0.0,0.0,0.0,0.0,0.0,0.0,0.0,0.0,0.0,0.0,0.0,0.0,0.0,0.0,0.0,0.0,0.0,0.0,0.0,0.0,0.0,0.0,0.0,0.0,0.0,0.0,0.0,0.0,0.0,0.0,0.0,0.0,0.0,0.0,0.0,0.0,0.0,0.0,0.0,0.0,0.0,0.0,0.0,0.0,0.0,0.0,0.0,0.0,0.0,0.0,0.0,0.0,0.0,0.0,0.0,0.0,0.0,0.0,0.0,0.0,0.0,0.0,0.0,0.0,0.0,0.0,0.0,0.0,0.0,0.0,0.0,0.0,0.0,0.0,0.0,0.0,0.0,0.0,0.0,0.0,0.0,0.0,0.0,0.0,0.0,0.0,0.0,0.0,0.0,0.0,0.0,0.0,0.0,0.0,0.0,0.0,0.0,0.0,0.0,0.0,0.0,0.0,0.0,0.0,0.0,0.0,0.0,0.0,0.0,0.0,-1.5965,-1.5194,-1.3715,0.0,0.0,0.0,0.0,0.0,0.0,0.0,0.0,0.0,0.0,0.0,0.0,0.0,0.0,0.0,0.0,0.0,0.0,0.0,0.0,0.0,0.0,0.0,0.0,0.0,0.0,0.0,0.0,0.0,0.0,0.0,0.0,0.0,0.0,0.0,0.0,0.0,0.0,0.0,0.0,0.0,0.0,0.0,0.0,0.0,0.0,0.0,0.0,0.0,0.0,0.0,0.0,0.0,0.0,0.0,0.0,0.0,0.0,0.0,0.0,0.0,0.0,0.0,0.0,0.0,0.0,0.0,0.0,0.0,0.0,0.0,0.0,0.0,0.0,0.0,0.0,0.0,0.0,0.0,0.0,0.0,0.0,0.0,0.0,0.0,0.0,0.0,0.0,0.0,0.0,0.0,0.0,0.0,0.0,0.0,0.0,0.0,0.0,0.0,0.0,0.0,0.0,0.0,0.0,0.0,0.0,0.0,0.0,0.0,0.0,-1.7251,-1.7777,-1.8026,0.0,-1.392,0.0,0.0,0.0,0.0,0.0,0.0,0.0,0.0,0.0,0.0,0.0,0.0,0.0,0.0,0.0,0.0,0.0,0.0,0.0,0.0,0.0,0.0,0.0,0.0,0.0,0.0,0.0,0.0,0.0,0.0,0.0,0.0,0.0,0.0,0.0,0.0,0.0,0.0,0.0,0.0,0.0,0.0,0.0,0.0,0.0,0.0,0.0,0.0,0.0,0.0,0.0,0.0,0.0,0.0,0.0,0.0,0.0,0.0,0.0,0.0,0.0,0.0,0.0,0.0,0.0,0.0,0.0,0.0,0.0,0.0,0.0,0.0,0.0,0.0,0.0,0.0,0.0,0.0,0.0,0.0,0.0,0.0,0.0,0.0,0.0,0.0,0.0,0.0,0.0,0.0,0.0,0.0,0.0,0.0,0.0,0.0,0.0,0.0,0.0,0.0,0.0,0.0,0.0,0.0,0.0,0.0,0.0,0.0,0.0,0.0,0.0,-1.895,-1.8491,-1.7299,0.0,0.0,0.0,0.0,0.0,0.0,0.0,0.0,0.0,0.0,0.0,0.0,0.0,0.0,0.0,0.0,0.0,0.0,0.0,0.0,0.0,0.0,0.0,0.0,0.0,0.0,0.0,0.0,0.0,0.0,0.0,0.0,0.0,0.0,0.0,0.0,0.0,0.0,0.0,0.0,0.0,0.0,0.0,0.0,0.0,0.0,0.0,0.0,0.0,0.0,0.0,0.0,0.0,0.0,0.0,0.0,0.0,0.0,0.0,0.0,0.0,0.0,0.0,0.0,0.0,0.0,0.0,0.0,0.0,0.0,0.0,0.0,0.0,0.0,0.0,0.0,0.0,0.0,0.0,0.0,0.0,0.0,0.0,0.0,0.0,0.0,0.0,0.0,0.0,0.0,0.0,0.0,0.0,0.0,0.0,0.0,0.0,0.0,0.0,0.0,0.0,0.0,0.0,0.0,0.0,0.0,0.0,0.0,0.0,0.0,-1.8996,0.0,-2.022,-1.9317,-1.8124,-1.6594,0.0,0.0,0.0,0.0,0.0,0.0,0.0,0.0,0.0,0.0,0.0,0.0,0.0,0.0,0.0,0.0,0.0,0.0,0.0,0.0,0.0,0.0,0.0,0.0,0.0,0.0,0.0,0.0,0.0,0.0,0.0,0.0,0.0,0.0,0.0,0.0,0.0,0.0,0.0,0.0,0.0,0.0,0.0,0.0,0.0,0.0,0.0,0.0,0.0,0.0,0.0,0.0,0.0,0.0,0.0,0.0,0.0,0.0,0.0,0.0,0.0,0.0,0.0,0.0,0.0,0.0,0.0,0.0,0.0,0.0,0.0,0.0,0.0,0.0,0.0,0.0,0.0,0.0,0.0,0.0,0.0,0.0,0.0,0.0,0.0,0.0,0.0,0.0,0.0,0.0,0.0,0.0,0.0,0.0,0.0,0.0,0.0,0.0,0.0,0.0,0.0,0.0,0.0,0.0,0.0,0.0,0.0,0.0,0.0,-2.0156,-2.0613,-2.1827,-2.1038,-1.9545,0.0,0.0,0.0,0.0,0.0,0.0,0.0,0.0,0.0,0.0,0.0,0.0,0.0,0.0,0.0,0.0,0.0,0.0,0.0,0.0,0.0,0.0,0.0,0.0,0.0,0.0,0.0,0.0,0.0,0.0,0.0,0.0,0.0,0.0,0.0,0.0,0.0,0.0,0.0,0.0,0.0,0.0,0.0,0.0,0.0,0.0,0.0,0.0,0.0,0.0,0.0,0.0,0.0,0.0,0.0,0.0,0.0,0.0,0.0,0.0,0.0,0.0,0.0,0.0,0.0,0.0,0.0,0.0,0.0,0.0,0.0,0.0,0.0,0.0,0.0,0.0,0.0,0.0,0.0,0.0,0.0,0.0,0.0,0.0,0.0,0.0,0.0,0.0,0.0,0.0,0.0,0.0,0.0,0.0,0.0,0.0,0.0,0.0,0.0,0.0,0.0,0.0,0.0,0.0,0.0,0.0,0.0,0.0,0.0,-1.9582,-2.033,-2.1325,-2.2574,-2.0771,-1.9496,0.0,0.0,0.0,0.0,0.0,0.0,0.0,0.0,0.0,0.0,0.0,0.0,0.0,0.0,0.0,0.0,0.0,0.0,0.0,0.0,0.0,0.0,0.0,0.0,0.0,0.0,0.0,0.0,0.0,0.0,0.0,0.0,0.0,0.0,0.0,0.0,0.0,0.0,0.0,0.0,0.0,0.0,0.0,0.0,0.0,0.0,0.0,0.0,0.0,0.0,0.0,0.0,0.0,0.0,0.0,0.0,0.0,0.0,0.0,0.0,0.0,0.0,0.0,0.0,0.0,0.0,0.0,0.0,0.0,0.0,0.0,0.0,0.0,0.0,0.0,0.0,0.0,0.0,0.0,0.0,0.0,0.0,0.0,0.0,0.0,0.0,0.0,0.0,0.0,0.0,0.0,0.0,0.0,0.0,0.0,0.0,0.0,0.0,0.0,0.0,0.0,0.0,0.0,0.0,0.0,0.0,0.0,0.0,0.0,-2.0115,0.0,-2.224,0.0,-2.0906,-1.9706,0.0,0.0,0.0,0.0,0.0,0.0,0.0,0.0,0.0,0.0,0.0,0.0,0.0,0.0,0.0,0.0,0.0,0.0,0.0,0.0,0.0,0.0,0.0,0.0,0.0,0.0,0.0,0.0,0.0,0.0,0.0,0.0,0.0,0.0,0.0,0.0,0.0,0.0,0.0,0.0,0.0,0.0,0.0,0.0,0.0,0.0,0.0,0.0,0.0,0.0,0.0,0.0,0.0,0.0,0.0,0.0,0.0,0.0,0.0,0.0,0.0,0.0,0.0,0.0,0.0,0.0,0.0,0.0,0.0,0.0,0.0,0.0,0.0,0.0,0.0,0.0,0.0,0.0,0.0,0.0,0.0,0.0,0.0,0.0,0.0,0.0,0.0,0.0,0.0,0.0,0.0,0.0,0.0,0.0,0.0,0.0,0.0,0.0,0.0,0.0,0.0,0.0,0.0,0.0,0.0,0.0,0.0,0.0,-2.022,-2.2329,-2.3103,-2.3188,-2.2618,-2.1688,-2.035,0.0,0.0,0.0,0.0,0.0,0.0,0.0,0.0,0.0,0.0,0.0,0.0,0.0,0.0,0.0,0.0,0.0,0.0,0.0,0.0,0.0,0.0,0.0,0.0,0.0,0.0,0.0,0.0,0.0,0.0,0.0,0.0,0.0,0.0,0.0,0.0,0.0,0.0,0.0,0.0,0.0,0.0,0.0,0.0,0.0,0.0,0.0,0.0,0.0,0.0,0.0,0.0,0.0,0.0,0.0,0.0,0.0,0.0,0.0,0.0,0.0,0.0,0.0,0.0,0.0,0.0,0.0,0.0,0.0,0.0,0.0,0.0,0.0,0.0,0.0,0.0,0.0,0.0,0.0,0.0,0.0,0.0,0.0,0.0,0.0,0.0,0.0,0.0,0.0,0.0,0.0,0.0,0.0,0.0,0.0,0.0,0.0,0.0,0.0,0.0,0.0,0.0,0.0,0.0,0.0,0.0,0.0,0.0,0.0,-2.19,-2.2555,-2.3023,-2.3226,-2.1662,-2.0708,0.0,0.0,0.0,0.0,0.0,0.0,0.0,0.0,0.0,0.0,0.0,0.0,0.0,0.0,0.0,0.0,0.0,0.0,0.0,0.0,0.0,0.0,0.0,0.0,0.0,0.0,0.0,0.0,0.0,0.0,0.0,0.0,0.0,0.0,0.0,0.0,0.0,0.0,0.0,0.0,0.0,0.0,0.0,0.0,0.0,0.0,0.0,0.0,0.0,0.0,0.0,0.0,0.0,0.0,0.0,0.0,0.0,0.0,0.0,0.0,0.0,0.0,0.0,0.0,0.0,0.0,0.0,0.0,0.0,0.0,0.0,0.0,0.0,0.0,0.0,0.0,0.0,0.0,0.0,0.0,0.0,0.0,0.0,0.0,0.0,0.0,0.0,0.0,0.0,0.0,0.0,0.0,0.0,0.0,0.0,0.0,0.0,0.0,0.0,0.0,0.0,0.0,0.0,0.0,0.0,0.0,0.0,0.0,0.0,-2.3038,-2.3824,-2.4202,-2.4124,-2.2588,-2.1581,-2.1101,0.0,0.0,0.0,0.0,0.0,0.0,0.0,0.0,0.0,0.0,0.0,0.0,0.0,0.0,0.0,0.0,0.0,0.0,0.0,0.0,0.0,0.0,0.0,0.0,0.0,0.0,0.0,0.0,0.0,0.0,0.0,0.0,0.0,0.0,0.0,0.0,0.0,0.0,0.0,0.0,0.0,0.0,0.0,0.0,0.0,0.0,0.0,0.0,0.0,0.0,0.0,0.0,0.0,0.0,0.0,0.0,0.0,0.0,0.0,0.0,0.0,0.0,0.0,0.0,0.0,0.0,0.0,0.0,0.0,0.0,0.0,0.0,0.0,0.0,0.0,0.0,0.0,0.0,0.0,0.0,0.0,0.0,0.0,0.0,0.0,0.0,0.0,0.0,0.0,0.0,0.0,0.0,0.0,0.0,0.0,0.0,0.0,0.0,0.0,0.0,0.0,0.0,0.0,0.0,0.0,0.0,0.0,0.0,-2.5426,-2.6697,-2.6683,-2.5227,-2.4365,-2.2949,0.0,0.0,0.0,0.0,0.0,0.0,0.0,0.0,0.0,0.0,0.0,0.0,0.0,0.0,0.0,0.0,0.0,0.0,0.0,0.0,0.0,0.0,0.0,0.0,0.0,0.0,0.0,0.0,0.0,0.0,0.0,0.0,0.0,0.0,0.0,0.0,0.0,0.0,0.0,0.0,0.0,0.0,0.0,0.0,0.0,0.0,0.0,0.0,0.0,0.0,0.0,0.0,0.0,0.0,0.0,0.0,0.0,0.0,0.0,0.0,0.0,0.0,0.0,0.0,0.0,0.0,0.0,0.0,0.0,0.0,0.0,0.0,0.0,0.0,0.0,0.0,0.0,0.0,0.0,0.0,0.0,0.0,0.0,0.0,0.0,0.0,0.0,0.0,0.0,0.0,0.0,0.0,0.0,0.0,0.0,0.0,0.0,0.0,0.0,0.0,0.0,0.0,0.0,0.0,0.0,0.0,0.0,0.0,0.0,-2.623,-2.9134,-2.9701,-2.7646,-2.5902,-2.4328,0.0,0.0,0.0,0.0,0.0,0.0,0.0,0.0,0.0,0.0,0.0,0.0,0.0,0.0,0.0,0.0,0.0,0.0,0.0,0.0,0.0,0.0,0.0,0.0,0.0,0.0,0.0,0.0,0.0,0.0,0.0,0.0,0.0,0.0,0.0,0.0,0.0,0.0,0.0,0.0,0.0,0.0,0.0,0.0,0.0,0.0,0.0,0.0,0.0,0.0,0.0,0.0,0.0,0.0,0.0,0.0,0.0,0.0,0.0,0.0,0.0,0.0,0.0,0.0,0.0,0.0,0.0,0.0,0.0,0.0,0.0,0.0,0.0,0.0,0.0,0.0,0.0,0.0,0.0,0.0,0.0,0.0,0.0,0.0,0.0,0.0,0.0,0.0,0.0,0.0,0.0,0.0,0.0,0.0,0.0,0.0,0.0,0.0,0.0,0.0,0.0,0.0,0.0,0.0,0.0,0.0,0.0,0.0,-2.6322,-2.7129,-3.0429,-3.1534,-3.0166,-2.792,-2.5799,0.0,0.0,0.0,0.0,0.0,0.0,0.0,0.0,0.0,0.0,0.0,0.0,0.0,0.0,0.0,0.0,0.0,0.0,0.0,0.0,0.0,0.0,0.0,0.0,0.0,0.0,0.0,0.0,0.0,0.0,0.0,0.0,0.0,0.0,0.0,0.0,0.0,0.0,0.0,0.0,0.0,0.0,0.0,0.0,0.0,0.0,0.0,0.0,0.0,0.0,0.0,0.0,0.0,0.0,0.0,0.0,0.0,0.0,0.0,0.0,0.0,0.0,0.0,0.0,0.0,0.0,0.0,0.0,0.0,0.0,0.0,0.0,0.0,0.0,0.0,0.0,0.0,0.0,0.0,0.0,0.0,0.0,0.0,0.0,0.0,0.0,0.0,0.0,0.0,0.0,0.0,0.0,0.0,0.0,0.0,0.0,0.0,0.0,0.0,0.0,0.0,0.0,0.0,0.0,0.0,0.0,0.0,0.0,-2.7189,-2.8122,-3.0838,-3.2315,-3.2158,-2.975,-2.7102,0.0,0.0,0.0,0.0,0.0,0.0,0.0,0.0,0.0,0.0,0.0,0.0,0.0,0.0,0.0,0.0,0.0,0.0,0.0,0.0,0.0,0.0,0.0,0.0,0.0,0.0,0.0,0.0,0.0,0.0,0.0,0.0,0.0,0.0,0.0,0.0,0.0,0.0,0.0,0.0,0.0,0.0,0.0,0.0,0.0,0.0,0.0,0.0,0.0,0.0,0.0,0.0,0.0,0.0,0.0,0.0,0.0,0.0,0.0,0.0,0.0,0.0,0.0,0.0,0.0,0.0,0.0,0.0,0.0,0.0,0.0,0.0,0.0,0.0,0.0,0.0,0.0,0.0,0.0,0.0,0.0,0.0,0.0,0.0,0.0,0.0,0.0,0.0,0.0,0.0,0.0,0.0,0.0,0.0,0.0,0.0,0.0,0.0,0.0,0.0,0.0,0.0,0.0,0.0,0.0,0.0,0.0,0.0,-2.7328,-2.8139,-3.0491,-3.1605,-3.1245,-2.9091,-2.73,0.0,0.0,0.0,0.0,0.0,0.0,0.0,0.0,0.0,0.0,0.0,0.0,0.0,0.0,0.0,0.0,0.0,0.0,0.0,0.0,0.0,0.0,0.0,0.0,0.0,0.0,0.0,0.0,0.0,0.0,0.0,0.0,0.0,0.0,0.0,0.0,0.0,0.0,0.0,0.0,0.0,0.0,0.0,0.0,0.0,0.0,0.0,0.0,-1.8022,0.0,0.0,0.0,0.0,0.0,0.0,0.0,0.0,0.0,0.0,0.0,0.0,0.0,0.0,0.0,0.0,0.0,0.0,0.0,0.0,0.0,0.0,0.0,0.0,0.0,0.0,0.0,0.0,0.0,0.0,0.0,0.0,0.0,0.0,0.0,0.0,0.0,0.0,0.0,0.0,0.0,0.0,0.0,0.0,0.0,0.0,0.0,0.0,0.0,0.0,0.0,0.0,0.0,0.0,0.0,0.0,0.0,0.0,0.0,-2.7333,-2.7762,-2.9608,-3.0797,-3.1127,-2.9258,-2.7607,0.0,0.0,0.0,0.0,0.0,0.0,0.0,0.0,0.0,0.0,0.0,0.0,0.0,0.0,0.0,0.0,0.0,0.0,0.0,0.0,0.0,0.0,0.0,0.0,0.0,0.0,0.0,0.0,0.0,0.0,0.0,0.0,0.0,0.0,0.0,0.0,0.0,0.0,0.0,0.0,0.0,0.0,0.0,0.0,0.0,0.0,0.0,0.0,0.0,0.0,0.0,0.0,0.0,0.0,0.0,0.0,0.0,0.0,0.0,0.0,0.0,0.0,0.0,0.0,0.0,0.0,0.0,0.0,0.0,0.0,0.0,0.0,0.0,0.0,0.0,0.0,0.0,0.0,0.0,0.0,0.0,0.0,0.0,0.0,0.0,0.0,0.0,0.0,0.0,0.0,0.0,0.0,0.0,0.0,0.0,0.0,0.0,0.0,0.0,0.0,0.0,0.0,0.0,0.0,0.0,0.0,0.0,-2.6033,-2.7135,-2.7499,-2.8622,-2.9922,-3.1302,-2.9766,-2.8014,-2.6297,0.0,0.0,0.0,0.0,0.0,0.0,0.0,0.0,0.0,0.0,0.0,0.0,0.0,0.0,0.0,0.0,0.0,0.0,0.0,0.0,0.0,0.0,0.0,0.0,0.0,0.0,0.0,0.0,0.0,0.0,0.0,0.0,0.0,0.0,0.0,0.0,0.0,0.0,-1.5294,-1.6671,0.0,0.0,0.0,0.0,0.0,0.0,0.0,0.0,-1.9592,0.0,0.0,0.0,0.0,0.0,0.0,0.0,0.0,0.0,0.0,0.0,0.0,0.0,0.0,0.0,0.0,0.0,0.0,0.0,0.0,0.0,0.0,0.0,0.0,0.0,0.0,0.0,0.0,0.0,0.0,0.0,0.0,0.0,0.0,0.0,0.0,0.0,0.0,0.0,0.0,0.0,0.0,0.0,0.0,0.0,0.0,0.0,0.0,0.0,0.0,0.0,0.0,0.0,0.0,0.0,0.0,-2.6631,-2.5905,-2.6352,-2.8158,-2.8423,-2.9114,-3.0271,-2.9865,-2.8871,-2.7278,0.0,0.0,0.0,0.0,0.0,0.0,0.0,0.0,0.0,0.0,0.0,0.0,0.0,0.0,0.0,0.0,0.0,0.0,0.0,0.0,0.0,0.0,0.0,0.0,0.0,0.0,0.0,0.0,0.0,0.0,0.0,0.0,0.0,0.0,0.0,0.0,0.0,0.0,0.0,-1.8649,-1.953,0.0,0.0,0.0,0.0,0.0,0.0,0.0,0.0,-2.0684,0.0,0.0,0.0,0.0,0.0,0.0,0.0,0.0,0.0,0.0,0.0,0.0,0.0,0.0,0.0,0.0,0.0,0.0,0.0,0.0,0.0,0.0,0.0,0.0,0.0,0.0,0.0,0.0,0.0,0.0,0.0,0.0,0.0,0.0,0.0,0.0,0.0,0.0,0.0,0.0,0.0,0.0,0.0,0.0,0.0,0.0,0.0,0.0,0.0,0.0,0.0,0.0,0.0,0.0,0.0,-2.6054,-2.6203,-2.6733,-2.7798,-2.7831,-2.8632,-3.0218,-2.914,-2.819,0.0,0.0,0.0,0.0,0.0,0.0,0.0,0.0,0.0,0.0,0.0,0.0,0.0,0.0,0.0,0.0,0.0,0.0,0.0,0.0,0.0,0.0,0.0,0.0,0.0,0.0,0.0,0.0,0.0,0.0,0.0,0.0,0.0,0.0,0.0,0.0,0.0,0.0,0.0,0.0,-1.9597,-2.024,-2.1153,0.0,0.0,0.0,0.0,0.0,0.0,-2.1916,-2.1965,0.0,0.0,0.0,0.0,0.0,0.0,0.0,0.0,0.0,0.0,0.0,0.0,0.0,0.0,0.0,0.0,0.0,0.0,0.0,0.0,0.0,0.0,0.0,0.0,0.0,0.0,0.0,0.0,0.0,0.0,0.0,0.0,0.0,0.0,0.0,0.0,0.0,0.0,0.0,0.0,0.0,0.0,0.0,0.0,0.0,0.0,0.0,0.0,0.0,0.0,0.0,0.0,0.0,0.0,0.0,-2.5359,-2.6468,-2.7263,-2.7661,-2.7599,-2.8472,-3.0369,-2.8563,-2.7422,0.0,0.0,0.0,0.0,0.0,0.0,0.0,0.0,0.0,0.0,0.0,0.0,0.0,0.0,0.0,0.0,0.0,0.0,0.0,0.0,0.0,0.0,0.0,0.0,0.0,0.0,0.0,0.0,0.0,0.0,0.0,0.0,0.0,0.0,0.0,0.0,0.0,0.0,0.0,0.0,0.0,-2.1366,-2.1625,-2.1209,0.0,0.0,0.0,0.0,-2.2644,-2.3413,0.0,0.0,0.0,0.0,0.0,0.0,0.0,0.0,0.0,0.0,0.0,0.0,0.0,0.0,0.0,0.0,0.0,0.0,0.0,0.0,0.0,0.0,0.0,0.0,0.0,0.0,0.0,0.0,0.0,0.0,0.0,0.0,0.0,0.0,0.0,0.0,0.0,0.0,0.0,0.0,0.0,0.0,0.0,0.0,0.0,0.0,0.0,0.0,0.0,0.0,0.0,0.0,0.0,0.0,0.0,0.0,-2.6038,-2.6253,-2.7263,-2.9019,-2.8555,-2.8986,-3.0402,-2.899,-2.7636,0.0,0.0,0.0,0.0,0.0,0.0,0.0,0.0,0.0,0.0,0.0,0.0,0.0,0.0,0.0,0.0,0.0,0.0,0.0,0.0,0.0,0.0,0.0,0.0,0.0,0.0,0.0,0.0,0.0,0.0,0.0,0.0,0.0,0.0,0.0,0.0,0.0,0.0,0.0,0.0,0.0,-2.3954,-2.3024,-2.2669,-2.2565,0.0,0.0,-2.4373,-2.4162,-2.5654,0.0,0.0,0.0,0.0,0.0,0.0,0.0,0.0,0.0,0.0,0.0,0.0,0.0,0.0,0.0,0.0,0.0,0.0,0.0,0.0,0.0,0.0,0.0,0.0,0.0,0.0,0.0,0.0,0.0,0.0,0.0,0.0,0.0,0.0,0.0,0.0,0.0,0.0,0.0,0.0,0.0,0.0,0.0,0.0,0.0,0.0,0.0,0.0,0.0,0.0,0.0,0.0,0.0,0.0,0.0,-2.5574,-2.6256,-2.7396,-2.8434,-2.9367,-2.8861,-2.9025,-2.9962,-2.7676,-2.6146,0.0,0.0,0.0,0.0,0.0,0.0,0.0,0.0,0.0,0.0,0.0,0.0,0.0,0.0,0.0,0.0,0.0,0.0,0.0,0.0,0.0,0.0,0.0,0.0,0.0,0.0,0.0,0.0,0.0,0.0,0.0,0.0,0.0,0.0,0.0,0.0,0.0,0.0,0.0,0.0,0.0,0.0,-2.4395,-2.4271,0.0,0.0,0.0,-2.552,-2.5442,0.0,0.0,0.0,0.0,0.0,0.0,0.0,0.0,0.0,0.0,0.0,0.0,0.0,0.0,0.0,0.0,0.0,0.0,0.0,0.0,0.0,0.0,0.0,0.0,0.0,0.0,0.0,0.0,0.0,0.0,0.0,0.0,0.0,0.0,0.0,0.0,0.0,0.0,0.0,0.0,0.0,0.0,0.0,0.0,0.0,0.0,0.0,0.0,0.0,0.0,0.0,0.0,0.0,0.0,0.0,0.0,0.0,-2.6324,-2.8246,-2.9255,-2.9222,-2.863,-2.8576,-2.9115,-2.6632,0.0,0.0,0.0,0.0,0.0,0.0,0.0,0.0,0.0,0.0,0.0,0.0,0.0,0.0,0.0,0.0,0.0,0.0,0.0,0.0,0.0,0.0,0.0,0.0,0.0,0.0,0.0,-1.5477,0.0,0.0,0.0,0.0,0.0,0.0,0.0,0.0,0.0,0.0,0.0,0.0,0.0,0.0,-2.5393,-2.5571,-2.5731,-2.6184,0.0,0.0,-2.6553,-2.6701,-2.7586,-2.753,0.0,0.0,0.0,0.0,0.0,0.0,0.0,0.0,0.0,0.0,0.0,0.0,0.0,0.0,0.0,0.0,0.0,0.0,0.0,0.0,0.0,0.0,0.0,0.0,0.0,0.0,0.0,0.0,0.0,0.0,0.0,0.0,0.0,0.0,0.0,0.0,0.0,0.0,0.0,0.0,0.0,0.0,0.0,0.0,0.0,0.0,0.0,0.0,0.0,0.0,0.0,0.0,0.0,0.0,0.0,-2.625,-2.7874,-2.8783,-2.8809,-2.77,-2.7367,-2.7958,-2.6641,-2.5302,0.0,0.0,0.0,0.0,0.0,0.0,0.0,0.0,0.0,0.0,0.0,0.0,0.0,0.0,0.0,0.0,0.0,0.0,0.0,0.0,0.0,0.0,0.0,0.0,0.0,0.0,0.0,0.0,0.0,0.0,0.0,0.0,0.0,0.0,0.0,0.0,0.0,0.0,0.0,0.0,0.0,-2.679,-2.6381,-2.6881,-2.7469,0.0,0.0,-2.7484,-2.7971,-2.8567,-2.839,-2.6409,0.0,0.0,0.0,0.0,0.0,0.0,0.0,0.0,0.0,0.0,0.0,0.0,0.0,0.0,0.0,0.0,0.0,0.0,0.0,0.0,0.0,0.0,0.0,0.0,0.0,0.0,0.0,0.0,0.0,0.0,0.0,0.0,0.0,0.0,0.0,0.0,0.0,0.0,0.0,0.0,0.0,0.0,0.0,0.0,0.0,0.0,0.0,0.0,0.0,0.0,0.0,0.0,0.0,-2.5754,-2.584,-2.7885,-2.8786,-2.8371,-2.7556,-2.7024,-2.6747,-2.55,-2.4178,0.0,0.0,0.0,0.0,0.0,0.0,0.0,0.0,0.0,0.0,0.0,0.0,0.0,0.0,0.0,0.0,0.0,0.0,0.0,0.0,0.0,0.0,0.0,0.0,0.0,0.0,0.0,0.0,-1.9037,-1.9397,-1.9744,0.0,0.0,0.0,0.0,0.0,0.0,0.0,0.0,0.0,0.0,-2.7003,-2.7673,-2.795,0.0,0.0,-2.8532,-2.8204,-2.839,-2.8575,-2.8002,-2.6012,-2.525,0.0,0.0,0.0,0.0,0.0,0.0,0.0,0.0,0.0,0.0,0.0,0.0,0.0,0.0,0.0,0.0,0.0,0.0,0.0,0.0,0.0,0.0,0.0,0.0,0.0,0.0,0.0,0.0,0.0,0.0,0.0,0.0,0.0,0.0,0.0,0.0,0.0,0.0,0.0,0.0,0.0,0.0,0.0,0.0,0.0,0.0,0.0,0.0,0.0,0.0,0.0,0.0,-2.546,-2.5567,-2.7549,-2.8245,-2.7525,-2.678,-2.6091,-2.5424,-2.4576,-2.352,0.0,0.0,0.0,0.0,0.0,0.0,0.0,0.0,0.0,0.0,0.0,0.0,0.0,0.0,0.0,0.0,0.0,0.0,0.0,0.0,0.0,0.0,0.0,0.0,0.0,0.0,0.0,0.0,-1.9904,-2.0167,-2.027,0.0,0.0,0.0,0.0,0.0,0.0,0.0,0.0,0.0,0.0,-2.7006,-2.8128,-2.8344,-2.8584,-2.919,-2.8614,-2.8195,-2.8547,-2.8107,-2.7144,-2.5722,0.0,0.0,0.0,0.0,0.0,0.0,0.0,0.0,0.0,0.0,0.0,0.0,0.0,0.0,0.0,0.0,0.0,0.0,0.0,0.0,0.0,0.0,0.0,0.0,0.0,0.0,0.0,0.0,0.0,0.0,0.0,0.0,0.0,0.0,0.0,0.0,0.0,0.0,0.0,0.0,0.0,0.0,0.0,0.0,0.0,0.0,0.0,0.0,0.0,0.0,0.0,0.0,0.0,0.0,-2.54,-2.667,-2.7011,-2.6259,-2.5153,-2.4443,-2.4153,-2.4092,-2.3679,-2.2844,0.0,0.0,0.0,0.0,0.0,0.0,0.0,0.0,0.0,0.0,0.0,0.0,0.0,0.0,0.0,0.0,0.0,0.0,0.0,0.0,0.0,0.0,0.0,0.0,0.0,0.0,-1.9232,-1.9759,-2.027,0.0,0.0,0.0,0.0,0.0,0.0,0.0,0.0,0.0,0.0,-2.5749,-2.6826,-2.7515,-2.772,-2.7976,-2.8562,-2.7595,-2.721,-2.8382,-2.7078,-2.5908,0.0,0.0,0.0,0.0,0.0,0.0,0.0,0.0,0.0,0.0,0.0,0.0,0.0,0.0,0.0,0.0,0.0,0.0,0.0,0.0,0.0,0.0,0.0,0.0,0.0,0.0,0.0,-2.3994,-2.2678,0.0,0.0,0.0,0.0,0.0,0.0,0.0,0.0,0.0,0.0,0.0,-2.792,-2.7827,0.0,0.0,0.0,0.0,0.0,0.0,0.0,0.0,0.0,0.0,0.0,0.0,-2.4599,-2.4651,-2.6001,-2.6387,-2.5693,-2.4741,-2.398,-2.3463,-2.3358,-2.2902,-2.2044,0.0,0.0,0.0,0.0,0.0,0.0,0.0,0.0,0.0,0.0,0.0,0.0,0.0,0.0,0.0,0.0,0.0,0.0,0.0,0.0,0.0,0.0,0.0,0.0,0.0,-2.004,0.0,0.0,0.0,0.0,0.0,0.0,0.0,0.0,0.0,0.0,0.0,-2.3626,-2.5313,-2.5497,-2.5731,-2.6457,-2.6587,-2.6924,0.0,0.0,0.0,0.0,0.0,0.0,0.0,0.0,0.0,0.0,0.0,0.0,0.0,0.0,-2.3657,-2.2763,-2.3182,-2.3602,-2.3226,0.0,0.0,0.0,0.0,0.0,0.0,0.0,0.0,0.0,0.0,0.0,0.0,0.0,0.0,0.0,0.0,-2.3012,0.0,0.0,0.0,0.0,0.0,0.0,0.0,0.0,-2.8292,-2.8722,-2.9016,-2.8896,-2.8568,0.0,-2.7428,-2.654,0.0,0.0,0.0,0.0,0.0,0.0,0.0,0.0,-2.4284,-2.449,-2.5497,-2.5794,-2.5301,-2.4288,-2.3506,-2.3052,-2.2888,-2.246,-2.182,-2.0857,-2.0078,0.0,0.0,0.0,0.0,0.0,0.0,0.0,0.0,0.0,0.0,0.0,0.0,0.0,0.0,0.0,0.0,0.0,0.0,0.0,0.0,0.0,0.0,0.0,-2.0254,0.0,0.0,0.0,0.0,0.0,0.0,0.0,0.0,0.0,-2.3763,-2.4015,-2.4562,-2.5546,-2.5401,-2.5263,-2.5374,0.0,0.0,0.0,0.0,0.0,0.0,0.0,-2.3506,-2.2801,-2.2456,-2.2307,-2.2505,-2.3012,-2.3414,-2.3462,0.0,0.0,-2.3615,-2.4192,-2.4757,-2.4594,-2.5121,-2.5485,-2.5237,-2.5535,-2.5743,0.0,0.0,0.0,0.0,0.0,0.0,0.0,0.0,-2.8227,-2.8331,0.0,-2.5683,0.0,0.0,0.0,0.0,0.0,0.0,0.0,0.0,-3.1116,-3.1212,-2.9611,-2.9518,-2.9319,-2.8905,-2.7933,-2.7334,-2.7103,-2.592,0.0,0.0,0.0,0.0,0.0,0.0,-2.4429,-2.4999,-2.5239,-2.5269,-2.5062,-2.38,-2.3037,-2.2902,-2.2706,-2.2463,-2.2156,-2.1365,-2.0786,-2.0495,-1.9456,0.0,0.0,0.0,0.0,0.0,0.0,0.0,0.0,0.0,0.0,0.0,0.0,0.0,0.0,0.0,0.0,0.0,0.0,0.0,0.0,-2.0211,0.0,0.0,0.0,0.0,0.0,0.0,0.0,0.0,0.0,0.0,-2.3851,-2.4575,-2.5141,-2.5057,0.0,0.0,0.0,0.0,-2.4657,-2.4091,-2.3583,-2.3512,-2.4019,-2.3589,-2.3336,-2.3906,0.0,0.0,-2.2808,-2.2616,-2.2531,-2.2597,-2.384,-2.4983,-2.5423,-2.5172,-2.5109,-2.5511,-2.5661,-2.574,-2.5876,-2.5702,-2.5525,-3.1008,0.0,0.0,0.0,0.0,-2.7025,-2.6862,-2.7343,-2.8565,-2.9436,-2.9889,-2.753,0.0,0.0,0.0,0.0,0.0,0.0,-2.7917,-2.8732,-2.8715,-2.883,-2.9134,-2.8645,-2.8316,-2.8202,-2.8092,-2.781,-2.7355,-2.7113,-2.5706,-2.3304,0.0,0.0,0.0,0.0,-2.4104,-2.5084,-2.518,-2.5188,-2.5091,-2.3693,-2.2857,-2.2706,-2.2463,-2.217,-2.1949,-2.1485,-2.1213,-2.1104,-2.0141,0.0,0.0,0.0,0.0,0.0,0.0,0.0,0.0,0.0,0.0,0.0,0.0,0.0,0.0,0.0,0.0,0.0,0.0,0.0,-2.0698,-2.1313,-2.1733,0.0,0.0,0.0,0.0,0.0,0.0,0.0,0.0,0.0,-2.4146,-2.4239,-2.4355,0.0,0.0,-2.2812,-2.3156,-2.292,-2.2842,-2.3188,0.0,0.0,0.0,-2.3269,-2.2603,-2.2544,-2.2808,-2.3077,-2.3018,-2.3626,-2.4104,-2.4142,-2.4481,-2.487,-2.5059,-2.5912,-2.6402,-2.6314,-2.6515,-2.6722,-2.6438,-2.6426,-2.637,-3.1417,-3.0203,-2.8944,-2.8559,-2.8648,-2.8001,-2.7912,-2.8313,-2.8862,-2.9605,-3.0261,-2.8621,-2.7123,-2.5851,-2.6078,0.0,0.0,0.0,-2.7922,-2.867,-2.8304,-2.8217,-2.8318,-2.7891,-2.7595,-2.7458,-2.7706,-2.7565,-2.7144,-2.7053,-2.6046,-2.4164,0.0,0.0,-2.2873,-2.3392,-2.4128,-2.5081,-2.4857,-2.4663,-2.4601,-2.3424,-2.2706,-2.2601,-2.2231,-2.1983,-2.1793,-2.1554,-2.1532,-2.1749,-2.0758,-2.0088,0.0,0.0,0.0,0.0,0.0,0.0,0.0,0.0,0.0,0.0,0.0,-1.816,0.0,0.0,0.0,0.0,-1.983,-2.091,-2.1726,-2.2053,0.0,0.0,0.0,0.0,0.0,0.0,0.0,-2.3895,-2.4431,-2.4491,-2.3891,-2.3757,-2.3781,-2.4173,-2.3176,-2.2603,-2.2935,0.0,-2.2898,-2.3308,-2.2989,-2.2851,-2.3367,-2.2985,-2.26,-2.2609,-2.2896,-2.3185,-2.3236,-2.374,-2.413,-2.4155,-2.4155,-2.4142,-2.4155,-2.5159,-2.5975,-2.5837,-2.6063,-2.6163,-2.5996,-2.5902,-2.5831,-3.1286,-3.1155,-2.9721,-2.9381,-2.9653,-2.8363,-2.8268,-2.9091,-2.9124,-2.9108,-2.9093,-2.9108,-2.8403,-2.7186,-2.6787,0.0,0.0,-2.8415,-2.8544,-2.887,-2.9204,-2.8682,-2.735,-2.7335,-2.7144,-2.6794,-2.6951,-2.6884,-2.6817,-2.6338,-2.5681,-2.5009,-2.4995,-2.4692,-2.4143,-2.4055,-2.43,-2.4893,-2.4341,-2.3958,-2.3804,-2.3051,-2.2626,-2.2523,-2.2085,-2.1801,-2.1698,-2.141,-2.1533,-2.2086,-2.1152,-2.0662,-2.0636,0.0,0.0,0.0,0.0,0.0,0.0,0.0,0.0,0.0,0.0,0.0,0.0,0.0,0.0,0.0,-2.0447,0.0,-2.2992,-2.2684,0.0,0.0,0.0,-2.2425,-2.2137,-2.3063,-2.4238,-2.5517,0.0,0.0,0.0,0.0,-2.3502,-2.4208,-2.4079,-2.3817,-2.3339,-2.3568,-2.3909,-2.3838,-2.3089,-2.2492,-2.2648,-2.2821,-2.316,-2.3436,-2.345,-2.333,-2.333,-2.3236,-2.3103,-2.314,-2.3138,-2.3163,-2.3138,-2.369,-2.4079,-2.4619,-2.4745,-2.4847,-2.495,-2.4633,-2.4327,-3.0985,-3.0904,-2.9851,-2.9444,-2.9528,-2.9005,-2.89,-2.9091,-2.9108,-2.9107,-2.9104,-2.9122,-2.8748,-2.8155,-2.7747,-2.7771,-2.8061,-2.776,-2.7715,-2.7778,-2.7573,-2.7291,-2.6937,-2.6937,-2.6884,-2.6794,-2.6832,-2.6832,-2.6779,-2.6686,-2.6032,-2.4985,-2.4927,-2.4407,-2.3376,-2.2819,-2.3081,-2.4156,-2.3484,-2.3074,-2.2936,-2.2923,-2.2676,-2.201,-2.2005,-2.1622,-2.0799,-2.0359,-2.0348,-2.0646,-2.0089,-1.9836,-1.9866,-1.8953,0.0,0.0,0.0,0.0,0.0,0.0,0.0,0.0,0.0,-1.8293,-1.8214,0.0,-1.9319,0.0,-2.0733,-2.255,-2.4108,-2.4272,0.0,0.0,-2.4679,-2.4639,-2.5316,-2.5186,-2.486,-2.4517,-2.4266,-2.389,-2.3289,-2.321,-2.3446,-2.4066,-2.3398,-2.2999,-2.3595,-2.2908,-2.2444,-2.2729,-2.2805,-2.2825,-2.2959,-2.3282,-2.3449,-2.3437,-2.3271,-2.3198,-2.3138,-2.3138,-2.3125,-2.3125,-2.3125,-2.3125,-2.3125,-2.3263,-2.3364,-2.3478,-2.3879,-2.4192,-2.4243,-2.3876,-2.3593,-3.0274,-3.0242,-2.9585,-2.935,-2.9289,-2.9167,-2.9107,-2.9122,-2.9138,-2.906,-2.8951,-2.8951,-2.8685,-2.8222,-2.7799,-2.75,-2.7261,-2.7086,-2.6907,-2.675,-2.6698,-2.6592,-2.6394,-2.6394,-2.6394,-2.6394,-2.6394,-2.6394,-2.6365,-2.6107,-2.5635,-2.4948,-2.4375,-2.365,-2.2721,-2.2221,-2.2294,-2.2884,-2.2462,-2.2509,-2.3192,-2.3035,-2.2575,-2.1848,-2.173,-2.1114,-1.9772,-1.9396,-1.9496,-1.9939,-1.9405,-1.9262,-1.9629,-1.8678,-1.7897,0.0,0.0,0.0,0.0,0.0,0.0,0.0,0.0,0.0,0.0,0.0,-2.0092,0.0,-2.1809,0.0,-2.4569,-2.4767,-2.4962,-2.5301,-2.5074,-2.5348,-2.6449,-2.5537,-2.4666,-2.4145,-2.4067,-2.3936,-2.3655,-2.3571,-2.3618,-2.4002,-2.3271,-2.301,-2.3662,-2.2882,-2.1975,-2.1709,-2.2247,-2.2682,-2.2665,-2.293,-2.3081,-2.2989,-2.3047,-2.3125,-2.3125,-2.3125,-2.3125,-2.3125,-2.3125,-2.3125,-2.3125,-2.3125,-2.3125,-2.3115,-2.3389,-2.3577,-2.3602,-2.3424,-2.3271,-2.947,-2.9425,-2.9167,-2.9091,-2.9091,-2.9091,-2.9076,-2.9077,-2.9061,-2.8936,-2.8763,-2.8636,-2.8301,-2.7815,-2.7348,-2.6849,-2.6404,-2.6404,-2.6244,-2.5948,-2.6258,-2.6258,-2.5893,-2.5893,-2.5893,-2.5893,-2.5893,-2.5893,-2.5865,-2.5275,-2.491,-2.4685,-2.3561,-2.2634,-2.2006,-2.1828,-2.1701,-2.1512,-2.1433,-2.2123,-2.3671,-2.2989,-2.2317,-2.1753,-2.1297,-2.041,-1.8943,-1.8572,-1.8722,-1.9317,-1.8782,-1.8821,-1.9584,-1.8307,-1.7693,0.0,-1.731,0.0,0.0,0.0,0.0,0.0,0.0,0.0,0.0,-1.9999,-2.1004,-2.2844,-2.3045,-2.3558,-2.4571,-2.4747,-2.4833,-2.4833,-2.4833,-2.5191,-2.6089,-2.4999,-2.4139,-2.4007,-2.3906,-2.3878,-2.3982,-2.3936,-2.3878,-2.3826,-2.3249,-2.2985,-2.349,-2.2826,-2.1833,-2.0803,-2.1553,-2.2133,-2.203,-2.2247,-2.2394,-2.2329,-2.2745,-2.305,-2.3,-2.3027,-2.3125,-2.3125,-2.3125,-2.3125,-2.3125,-2.3125,-2.3125,-2.3078,-2.3103,-2.3175,-2.3175,-2.3163,-2.3125,-2.9167,-2.9167,-2.9013,-2.8967,-2.892,-2.8952,-2.8983,-2.9077,-2.8717,-2.8497,-2.845,-2.7834,-2.75,-2.7333,-2.6549,-2.6082,-2.6002,-2.5988,-2.5988,-2.5893,-2.5988,-2.6002,-2.5893,-2.5893,-2.5893,-2.5893,-2.5893,-2.5893,-2.5879,-2.5275,-2.4474,-2.3441,-2.2718,-2.1805,-2.0707,0.0,0.0,0.0,-2.1314,-2.1888,-2.2187,-2.2228,-2.192,-2.1304,-2.0513,0.0,-1.914,-1.7937,-1.7448,-1.775,-1.8003,0.0,0.0,0.0,0.0,0.0,0.0,0.0,0.0,0.0,0.0,0.0,-1.9449,-1.9636,-2.0101,-2.0575,-2.1619,-2.336,-2.3297,-2.354,-2.4671,-2.4809,-2.4833,-2.4833,-2.482,-2.4873,-2.5063,-2.4568,-2.3963,-2.3346,-2.3509,-2.3688,-2.3688,-2.3688,-2.3508,-2.3141,-2.2493,-2.206,-2.2046,-2.1745,-2.1261,-2.0636,-2.1013,-2.1465,-2.1682,-2.1822,-2.1812,-2.1776,-2.249,-2.2857,-2.2594,-2.2862,-2.3125,-2.3113,-2.3125,-2.3125,-2.3125,-2.3125,-2.3125,-2.3125,-2.3125,-2.3125,-2.3125,-2.3138,-2.3125,-2.9075,0.0,-2.892,-2.8873,0.0,-2.8794,-2.8841,-2.8951,-2.8575,-2.8434,-2.8369,-2.7685,-2.7246,-2.699,-2.6244,-2.5715,-2.5453,-2.5453,-2.5453,-2.5439,-2.5453,-2.5453,-2.5453,-2.5453,-2.5453,-2.5453,-2.5453,-2.5301,-2.4983,-2.4403,-2.363,-2.2732,-2.2111,-2.1489,-2.0864,-2.079,-2.0836,-2.1018,-2.1395,-2.1841,-2.2378,-2.2785,-2.2508,-2.1576,0.0,0.0,0.0,0.0,0.0,0.0,0.0,0.0,0.0,0.0,0.0,-1.9004,-1.8686,-1.8576,-1.8812,-1.9067,-1.9517,-2.0203,-2.0724,-2.0979,-2.0941,-2.1418,-2.2221,-2.3548,-2.354,-2.3767,-2.472,-2.4833,-2.472,-2.4456,-2.4406,-2.4318,-2.4001,-2.3763,-2.3475,-2.3185,-2.3352,-2.3522,-2.3556,-2.3556,-2.3339,-2.286,-2.2227,-2.1665,-2.1339,-2.0978,-2.0617,-2.0347,-2.0411,-2.0589,-2.0828,-2.1104,-2.1188,-2.1209,-2.18,-2.2141,-2.1933,-2.2564,-2.3039,-2.2786,-2.2937,-2.3125,-2.3125,-2.3125,-2.3125,-2.3065,-2.3078,-2.303,-2.3017,-2.3078,-2.3125,-2.8982,-2.8873,-2.8889,-2.8811,-2.8732,-2.8636,-2.8651,-2.8695,0.0,0.0,0.0,-2.7565,-2.7041,-2.652,-2.5988,-2.5453,-2.5005,-2.5005,-2.5005,-2.5005,-2.5005,-2.5005,-2.4948,-2.4948,-2.4935,-2.4948,-2.484,-2.4487,-2.4,-2.3311,-2.2717,-2.219,-2.161,-2.1326,-2.1326,-2.1229,-2.134,-2.1643,-2.1423,-2.1749,-2.2588,-2.3004,-2.2698,-2.1612,-2.1219,-2.0354,-1.909,-1.8374,-1.8065,-1.817,-1.7935,-1.8171,-1.8884,-1.8697,-1.8625,-1.8895,-1.8949,-1.9135,-1.9517,-1.9843,-2.0324,-2.1135,-2.1737,-2.2005,-2.174,-2.2104,-2.2726,-2.3405,-2.3517,-2.3766,-2.4354,-2.4404,-2.4216,-2.3829,-2.3791,-2.3591,-2.3165,-2.3078,-2.3138,-2.3135,-2.3233,-2.3403,-2.3509,-2.3276,-2.3048,-2.2592,-2.1924,-2.1348,-2.0962,-2.0489,-2.0182,-2.0105,-2.0092,-2.0016,-2.0054,-2.0253,-2.0489,-2.058,-2.0886,-2.1212,-2.143,-2.1939,-2.2266,-2.2151,-2.2443,-2.268,-2.2842,-2.2842,-2.2867,-2.2867,-2.2832,-2.2675,-2.2648,-2.267,-2.2755,-2.8842,-2.8794,-2.8668,-2.8621,-2.8636,-2.8493,-2.8452,-2.8484,-2.8406,-2.7841,-2.6941,-2.6821,-2.6549,-2.5988,-2.5384,-2.5061,-2.5005,-2.5005,-2.5005,0.0,-2.5005,-2.4948,-2.4835,-2.4848,-2.4791,-2.4624,-2.4169,-2.3832,-2.3619,-2.2617,-2.203,-2.1883,-2.1376,-2.1046,-2.1046,-2.1033,-2.1046,-2.1095,-2.1095,-2.1113,-2.1272,-2.0835,-2.0489,-2.0233,-1.9215,-1.8707,-1.8803,-1.8302,-1.8211,-1.8577,-1.855,-1.8769,-1.9291,-1.9262,-1.9441,-1.9835,-1.9868,-1.9911,-1.9976,-2.0289,-2.0696,-2.1146,-2.1549,-2.1877,-2.2089,-2.231,-2.2457,-2.2591,-2.2751,-2.2887,-2.296,-2.3071,-2.3071,-2.296,-2.2972,-2.3069,-2.3092,-2.3115,-2.3078,-2.3065,-2.3125,-2.3138,-2.3113,-2.2749,-2.2329,-2.175,-2.1209,-2.063,-2.0177,-2.0028,-1.9978,-1.9901,-1.985,-1.9811,-1.9836,-1.9849,-1.9974,-1.9936,-1.9998,-2.0266,-2.0603,-2.036,-2.0504,-2.1173,-2.1416,-2.1638,-2.195,-2.2108,-2.2036,-2.1977,-2.1918,-2.1795,-2.1382,-2.1342,-2.1621,-2.8747,-2.8668,-2.8621,-2.8573,-2.8493,-2.8442,-2.8403,-2.8252,-2.6917,-2.6476,-2.6696,-2.6197,-2.5892,-2.5701,-2.5061,-2.4791,-2.4778,-2.4778,-2.4778,-2.4778,-2.4791,-2.4791,-2.4637,-2.4356,-2.4209,-2.4043,-2.347,-2.3044,-2.2698,-2.2165,-2.1752,-2.1395,-2.1116,-2.0997,-2.0924,-2.0924,-2.0911,-2.0848,-2.1252,-2.1316,-2.0938,-2.0978,-2.0777,-2.0393,-1.969,-1.9424,-1.9666,-1.931,-1.9204,-1.9473,-1.9484,-1.9519,-1.9651,-1.9673,-1.977,-1.9987,-2.0009,-2.0009,-2.0085,-2.0399,-2.07,-2.0892,-2.1221,-2.1474,-2.1624,-2.2049,-2.2309,-2.242,-2.2482,-2.2616,-2.269,-2.2678,-2.2678,-2.2678,-2.2739,-2.2885,-2.3021,-2.2958,-2.2921,-2.2909,-2.2909,-2.2848,-2.2909,-2.2437,-2.189,-2.1319,-2.0573,-1.9902,-1.9577,-1.9356,-1.9383,-1.9684,-1.9759,-1.9708,-1.9708,-1.9617,-1.9617,-1.9565,-1.9726,-1.9821,-1.992,-1.9468,-1.9689,-2.044,-2.0822,-2.1003,-2.1039,-2.0947,-2.083,-2.05,-2.0381,-2.0193,-2.0018,-1.9925,-2.0229,-2.8636,-2.8525,-2.8525,-2.8429,-2.8314,-2.8357,-2.8354,-2.808,-2.5879,-2.5331,-2.5962,-2.5617,-2.5412,-2.53,-2.4835,-2.462,-2.462,-2.462,-2.462,-2.4607,-2.4486,-2.4296,-2.411,-2.3508,-2.3176,-2.3003,-2.2552,-2.21,-2.165,-2.161,-2.1385,-2.0987,-2.0947,-2.0898,-2.0838,-2.0838,-2.0662,-2.0511,-2.1067,-2.108,-2.0664,-2.0825,-2.0655,-2.0263,-2.0006,-1.9946,-2.007,-1.9995,-2.0009,-2.002,-2.0009,-1.9944,-1.9868,-1.9802,-1.9802,-1.9802,-1.9802,-1.9944,-2.0074,-2.0335,-2.0518,-2.0518,-2.0839,-2.1031,-2.1094,-2.1612,-2.2061,-2.2223,-2.2297,-2.2432,-2.2555,-2.2567,-2.2629,-2.2616,-2.2629,-2.2702,-2.2825,-2.2788,-2.2678,-2.2665,-2.2665,-2.2641,-2.2444,-2.2026,-2.1338,-2.0465,-1.9687,-1.9196,-1.9052,-1.8671,-1.8746,-1.9107,-1.9331,-1.9342,-1.9391,-1.9399,-1.9396,-1.942,-1.9522,-1.9571,-1.9401,-1.9167,-1.9203,-1.9794,-2.0122,-2.0207,-1.996,-1.9663,-1.9469,-1.9149,-1.8964,-1.8695,-1.865,-1.8544,-1.8725,-2.8348,-2.8235,-2.8235,-2.8137,-2.8054,-2.8256,-2.8243,-2.7867,-2.6357,-2.516,-2.4504,-2.5053,-2.5147,-2.4721,-2.462,-2.4563,-2.4563,-2.462,-2.4549,-2.4469,-2.4016,-2.3429,-2.2789,-2.2155,-2.1549,-2.1077,-2.0946,-2.0867,-2.0788,-2.0777,-2.0801,-2.0699,-2.0699,-2.0712,-2.0712,-2.0612,-2.0283,-1.9734,-1.9681,-1.9745,-1.9811,-1.8845,-1.8393,-1.8771,-1.8566,-1.858,-1.9061,-1.9414,-1.9671,-1.9681,-1.9681,-1.9605,-1.9605,-1.9615,-1.9615,-1.9615,-1.9605,-1.9681,-1.9868,-2.0074,-2.014,-2.014,-2.0453,-2.0635,-2.0646,-2.1031,-2.1411,-2.1726,-2.2049,-2.2185,-2.2247,-2.2259,-2.2247,-2.2247,-2.2371,-2.2408,-2.2396,-2.2531,-2.2653,-2.2555,-2.2567,-2.2506,-2.2051,-2.1391,-2.0459,-1.9209,-1.8841,-1.851,-1.8154,-1.7946,-1.7836,-1.8044,-1.8339,-1.8634,-1.8707,-1.9113,-1.9172,-1.9258,-1.9331,-1.9254,-1.915,-1.898,-1.9064,-1.8934,-1.867,-1.863,-1.8614,-1.8478,-1.7848,-1.7744,-1.7567,-1.7456,-1.7389,-1.7264,-1.7529,-2.8235,-2.8186,-2.8103,-2.7811,-2.7522,-2.7923,-2.8115,-2.788,-2.6418,-2.5177,-2.4195,-2.4503,-2.4536,-2.4421,-2.4319,-2.4274,-2.4287,-2.4287,-2.4089,-2.3721,-2.3168,-2.2589,-2.1918,-2.0998,-2.0348,-2.0064,-1.9764,-1.9547,-1.9538,-1.9775,-2.0112,-2.0359,-2.0385,-2.0233,-1.9952,-2.0182,-1.9862,-1.8992,-1.8898,-1.878,-1.8513,-1.8038,-1.8013,-1.8293,-1.8013,-1.8137,-1.8818,-1.9094,-1.9318,-1.9573,-1.9615,-1.9539,-1.9407,-1.9407,-1.9407,-1.9417,-1.9539,-1.9605,-1.9736,-1.9878,-2.0009,-2.0009,-2.0205,-2.0335,-2.0324,-2.0658,-2.0892,-2.1083,-2.1411,-2.1612,-2.1612,-2.18,-2.1925,-2.1913,-2.2123,-2.2235,-2.2223,-2.2309,-2.2371,-2.2334,-2.208,-2.1849,-2.152,-2.0528,-1.9473,-1.8503,-1.8115,-1.7775,-1.7557,-1.7302,-1.7108,-1.7121,-1.729,-1.7581,-1.791,-1.808,-1.8262,-1.8335,-1.8729,-1.9037,-1.867,-1.8135,-1.7839,-1.8078,-1.7438,-1.6826,-1.6411,-1.6293,-1.588,-1.5838,-1.5546,-1.5314,-1.5543,-1.5548,-1.5719,-2.7695,-2.7799,-2.7652,-2.7315,-2.6877,-2.6784,-2.7206,-2.7615,-2.6012,-2.4737,-2.403,-2.3929,-2.4028,-2.4047,-2.3884,-2.3761,-2.3748,-2.3592,-2.3202,-2.2604,-2.2083,-2.142,-2.0653,-1.9716,-1.9097,-1.8869,-1.8603,-1.8518,-1.8639,-1.9118,-1.9605,-1.9913,-1.9991,-1.985,-1.9631,-1.9747,-1.9267,-1.8513,-1.8244,-1.7863,-1.7457,-1.7346,-1.7566,-1.7937,-1.7595,-1.7761,-1.8533,-1.8585,-1.8807,-1.9251,-1.9283,-1.927,-1.9274,-1.9274,-1.9218,-1.9274,-1.9407,-1.955,-1.9539,-1.9671,-1.9802,-1.9802,-1.9944,-2.0009,-2.0064,-2.0324,-2.0453,-2.0518,-2.0711,-2.0967,-2.1221,-2.1411,-2.1537,-2.1588,-2.18,-2.1937,-2.1925,-2.1937,-2.1925,-2.1901,-2.159,-2.1152,-2.0629,-1.9487,-1.8334,-1.7721,-1.7314,-1.7051,-1.6943,-1.6642,-1.6368,-1.6322,-1.6218,-1.649,-1.7123,-1.7497,-1.7376,-1.7545,-1.8116,-1.8422,-1.8121,-1.7529,-1.7082,-1.7479,-1.6418,-1.5669,-1.5415,-1.4954,-1.4378,-1.3902,-1.3742,-1.3949,-1.4385,-1.4286,-1.4421,-2.6394,-2.6796,-2.6527,-2.6464,-2.6482,-2.4688,-2.5261,-2.7175,-2.4773,-2.3622,-2.3625,-2.3651,-2.3616,-2.3649,-2.3276,-2.3005,-2.2827,-2.2403,-2.1892,-2.1287,-2.0682,-1.9808,-1.8716,-1.8054,-1.7542,-1.7316,-1.7606,-1.8029,-1.8567,-1.9118,-1.94,-1.9441,-1.9509,-1.9683,-1.9811,-1.898,-1.8394,-1.819,-1.7644,-1.7034,-1.657,-1.6467,-1.677,-1.7164,-1.7144,-1.7253,-1.7719,-1.7761,-1.7957,-1.8466,-1.8508,-1.8685,-1.9013,-1.9075,-1.9142,-1.9142,-1.9208,-1.9341,-1.9341,-1.9483,-1.9605,-1.9605,-1.9802,-1.9868,-1.9878,-2.0074,-2.014,-2.014,-2.014,-2.0464,-2.0967,-2.1158,-2.1221,-2.1221,-2.1221,-2.1296,-2.1296,-2.136,-2.1233,-2.1273,-2.1197,-2.0537,-1.9275,-1.8124,-1.7287,-1.6703,-1.6374,-1.6244,-1.6025,-1.5867,-1.5754,-1.5563,-1.5393,-1.536,-1.6372,-1.6563,-1.6942,-1.7013,-1.6904,-1.7494,-1.7573,-1.7541,-1.7224,-1.6707,-1.5609,-1.4842,-1.4627,-1.4138,-1.3551,-1.3275,-1.3413,-1.3588,-1.3648,-1.3793,-1.3929,-2.5875,-2.5941,-2.6217,-2.5663,-2.453,-2.3886,-2.4095,-2.4633,-2.3012,-2.2673,-2.3257,-2.3487,-2.3556,-2.3424,-2.2981,-2.2783,-2.2731,-2.2262,-2.1504,-2.063,-1.9976,-1.9105,-1.8042,-1.7452,-1.705,-1.6824,-1.6977,-1.7492,-1.832,-1.8902,-1.9345,-1.9636,-1.9634,-1.9423,-1.8963,-1.8792,-1.8255,-1.7224,-1.7101,-1.6804,-1.6036,-1.5873,-1.5832,-1.5818,-1.6312,-1.6974,-1.7657,-1.7389,-1.7626,-1.834,-1.8371,-1.8524,-1.888,-1.8942,-1.8942,-1.8931,-1.9075,-1.9208,-1.9208,-1.9341,-1.9407,-1.9407,-1.9615,-1.9671,-1.9736,-1.9747,-1.9813,-1.9813,-1.9813,-1.9933,-2.0129,-2.0506,-2.0828,-2.0828,-2.1031,-2.1169,-2.1233,-2.1233,-2.1233,-2.1141,-2.063,-1.9677,-1.8532,-1.7542,-1.6708,-1.6136,-1.5777,-1.5521,-1.5415,-1.5334,-1.5232,-1.4994,-1.496,-1.4971,-1.4771,-1.5043,-1.521,-1.5289,-1.5389,-1.5672,-1.5825,-1.5609,-1.5246,-1.5228,-1.4401,-1.3787,-1.3411,-1.3244,-1.2662,-1.2669,-1.2847,-1.3015,-1.3047,-1.3094,-1.3308,-2.5239,-2.5127,-2.5479,-2.4853,-2.3498,-2.3126,-2.3119,-2.3173,-2.2382,-2.2247,-2.2611,-2.2992,-2.3022,-2.2723,-2.2217,-2.2134,-2.2298,-2.1623,-2.0679,-1.9634,-1.9035,-1.8257,-1.7384,-1.6969,-1.6705,-1.6633,-1.6633,-1.7005,-1.7664,-1.8405,-1.8833,-1.8982,-1.9111,-1.8821,-1.8147,-1.8061,-1.7401,-1.6684,-1.6673,-1.6402,-1.5827,-1.5685,-1.5471,-1.5293,-1.5869,-1.6372,-1.6742,-1.6567,-1.6896,-1.7677,-1.7955,-1.825,-1.8726,-1.8741,-1.8741,-1.8808,-1.8931,-1.9008,-1.9008,-1.9142,-1.9208,-1.9208,-1.9407,-1.9473,-1.9473,-1.9539,-1.9615,-1.9615,-1.9615,-1.9615,-1.9671,-1.9987,-2.0248,-2.0313,-2.0582,-2.0775,-2.0786,-2.0775,-2.0711,-2.047,-1.9839,-1.8799,-1.7578,-1.6675,-1.5913,-1.5285,-1.4829,-1.4651,-1.4731,-1.4731,-1.464,-1.4294,-1.4247,-1.4071,-1.3805,-1.3707,-1.4158,-1.4307,-1.4551,-1.4559,-1.4395,-1.4039,-1.3781,-1.3681,-1.3303,-1.2683,-1.2323,-1.2175,-1.2126,-1.2076,-1.2227,-1.2471,-1.2475,-1.2419,-1.2604,-2.4277,-2.4277,-2.4307,-2.3981,-2.3179,-2.2136,-2.2273,-2.2834,-2.2782,-2.2074,-2.1703,-2.2034,-2.2008,-2.1556,-2.1179,-2.1066,-2.1167,-2.0351,-1.9397,-1.8442,-1.7836,-1.72,-1.6597,-1.6559,-1.6522,-1.6491,-1.6504,-1.6572,-1.6754,-1.7675,-1.797,-1.7529,-1.7856,-1.797,-1.7829,-1.68,-1.64,-1.6513,-1.6239,-1.5941,-1.5894,-1.5813,-1.5618,-1.5295,-1.5572,-1.5527,-1.4961,-1.5284,-1.5928,-1.6668,-1.7061,-1.7708,-1.8598,-1.8617,-1.8539,-1.8741,-1.8818,-1.8808,-1.8808,-1.8952,-1.9075,-1.9075,-1.9218,-1.9285,-1.9274,-1.9417,-1.9539,-1.955,-1.955,-1.9539,-1.955,-1.9605,-1.9671,-1.9671,-1.9933,-1.9998,-1.9998,-1.9998,-1.9857,-1.9401,-1.8828,-1.7843,-1.6382,-1.5603,-1.4996,-1.4195,-1.3826,-1.3789,-1.4025,-1.4025,-1.3894,-1.361,-1.3552,-1.3399,-1.289,-1.2529,-1.3094,-1.3621,-1.3889,-1.4068,-1.3813,-1.3521,-1.3254,-1.3145,-1.2937,-1.2342,-1.2126,-1.2026,-1.1977,-1.1927,-1.2036,-1.1986,-1.1968,-1.1966,-1.1986,-2.3555,-2.3478,-2.3699,-2.3084,-2.1994,-2.0864,-2.0243,-1.9813,-1.9734,-2.029,-2.104,-2.1117,-2.1126,-2.1175,-2.1039,-2.0643,-2.0073,-1.9342,-1.8809,-1.8473,-1.7684,-1.6928,-1.6405,-1.6275,-1.6287,-1.6393,-1.667,-1.6831,-1.6946,-1.7497,-1.7611,-1.7305,-1.7535,-1.73,-1.6732,-1.6539,-1.6503,-1.6181,-1.6019,-1.5773,-1.5435,-1.5339,-1.5129,-1.4794,-1.4691,-1.4557,-1.452,-1.5245,-1.6115,-1.694,-1.7151,-1.757,-1.8282,-1.8405,-1.8405,-1.8482,-1.8549,-1.8617,-1.8617,-1.8684,-1.8674,-1.8741,-1.8885,-1.8942,-1.9008,-1.9075,-1.9198,-1.9208,-1.9274,-1.9264,-1.9274,-1.9274,-1.9274,-1.9539,-1.9671,-1.9681,-1.9605,-1.9253,-1.8823,-1.8383,-1.7718,-1.6755,-1.5811,-1.5087,-1.448,-1.3801,-1.3449,-1.3344,-1.342,-1.3372,-1.3314,-1.3045,-1.2939,-1.2774,-1.2353,-1.2224,-1.2598,-1.288,-1.3064,-1.3304,-1.3106,-1.2929,-1.2712,-1.2584,-1.233,-1.2144,-1.1986,-1.1877,-1.1778,-1.1678,-1.1578,-1.1578,-1.1528,-1.158,-1.1617,-2.2381,-2.2309,-2.2403,-2.1769,-2.0745,-2.0369,-1.9556,-1.8262,-1.773,-1.8205,-1.9199,-1.9855,-1.9964,-1.9904,-1.9851,-1.9658,-1.9115,-1.8376,-1.8118,-1.8215,-1.7334,-1.6608,-1.6212,-1.62,-1.62,-1.6249,-1.6544,-1.6704,-1.672,-1.7121,-1.714,-1.6846,-1.7055,-1.6794,-1.605,-1.6167,-1.6046,-1.5778,-1.572,-1.5591,-1.5315,-1.5199,-1.4982,-1.4701,-1.4586,-1.4576,-1.4572,-1.5296,-1.5969,-1.6546,-1.6994,-1.7566,-1.82,-1.8279,-1.8212,-1.8269,-1.8337,-1.8414,-1.8414,-1.8482,-1.8482,-1.8482,-1.8395,-1.825,-1.825,-1.824,-1.8027,-1.8027,-1.8094,-1.8162,-1.8162,-1.824,-1.8375,-1.8586,-1.9131,-1.9341,-1.9208,-1.8509,-1.7841,-1.7356,-1.6775,-1.5946,-1.4965,-1.4448,-1.39,-1.3365,-1.2893,-1.2669,-1.2632,-1.2527,-1.24,-1.2264,-1.2206,-1.2058,-1.1868,-1.1968,-1.2157,-1.2157,-1.2157,-1.2304,-1.2262,-1.2072,-1.1922,-1.1922,-1.1787,-1.1728,-1.1569,-1.1578,-1.1528,-1.1377,-1.1226,-1.1326,-1.1377,-1.1226,-1.1234,-2.0973,-2.092,-2.0655,-2.0156,-1.9611,-2.0473,-1.9771,-1.8172,-1.7003,-1.6526,-1.6847,-1.8216,-1.8647,-1.7982,-1.813,-1.8228,-1.8326,-1.7554,-1.7225,-1.7237,-1.6683,-1.6193,-1.6156,-1.6156,-1.61,-1.6069,-1.6105,-1.6105,-1.5981,-1.6417,-1.6505,-1.5924,-1.6168,-1.6177,-1.5648,-1.5439,-1.542,-1.542,-1.542,-1.5342,-1.5313,-1.5323,-1.5167,-1.4853,-1.507,-1.5099,-1.4885,-1.5157,-1.5439,-1.5625,-1.6733,-1.7524,-1.8014,-1.8017,-1.7997,-1.819,-1.825,-1.8279,-1.8337,-1.8202,-1.8269,-1.8192,-1.7687,-1.7335,-1.7267,-1.6922,-1.6655,-1.6645,-1.6706,-1.6706,-1.6784,-1.6922,-1.7001,-1.707,-1.8104,-1.8654,-1.8442,-1.7716,-1.6899,-1.6218,-1.5891,-1.5391,-1.3822,-1.3536,-1.3148,-1.2681,-1.2234,-1.207,-1.1956,-1.1875,-1.1471,-1.1469,-1.1669,-1.1619,-1.1578,-1.1569,-1.176,-1.1769,-1.1669,-1.1619,-1.1669,-1.1519,-1.1427,-1.1427,-1.1377,-1.1318,-1.1267,-1.1276,-1.1217,-1.1065,-1.1116,-1.1226,-1.1175,-1.0972,-1.0871,-2.031,-2.0444,-1.933,-1.898,-1.9091,-1.8935,-1.8468,-1.7765,-1.6523,-1.5982,-1.6114,-1.6633,-1.7219,-1.7485,-1.7472,-1.74,-1.711,-1.6856,-1.6517,-1.6279,-1.6061,-1.5893,-1.5881,-1.5881,-1.5691,-1.5468,-1.5379,-1.5187,-1.4834,-1.5312,-1.518,-1.4551,-1.529,-1.5264,-1.4754,-1.4984,-1.5069,-1.5079,-1.5079,-1.5147,-1.5147,-1.5147,-1.5099,-1.4964,-1.508,-1.5089,-1.4926,-1.5021,-1.5419,-1.5908,-1.6504,-1.6943,-1.7184,-1.7373,-1.7549,-1.7684,-1.7909,-1.8066,-1.7998,-1.7569,-1.7354,-1.7276,-1.6706,-1.6358,-1.6358,-1.6298,-1.6306,-1.6306,-1.6367,-1.6298,-1.6376,-1.6376,-1.6446,-1.6515,-1.7042,-1.7444,-1.7192,-1.6442,-1.5586,-1.5103,-1.4629,-1.3946,-1.3445,-1.3067,-1.2965,-1.2668,-1.221,-1.1769,-1.1682,-1.143,-1.1175,-1.1276,-1.1418,-1.1368,-1.1326,-1.1326,-1.1377,-1.1377,-1.1326,-1.1217,-1.1267,-1.1318,-1.1318,-1.1326,-1.1226,-1.1116,-1.1074,-1.1023,-1.0922,-1.082,-1.0769,-1.082,-1.0769,-1.0616,-1.0624,-1.9383,-1.9516,-1.8422,-1.8094,-1.8241,-1.7651,-1.7262,-1.6843,-1.6183,-1.5703,-1.5588,-1.5635,-1.595,-1.6397,-1.6397,-1.6256,-1.5985,-1.5961,-1.5808,-1.5596,-1.5525,-1.5558,-1.5558,-1.5457,-1.5085,-1.4858,-1.4731,-1.449,-1.4316,-1.4572,-1.449,-1.4425,-1.4827,-1.4849,-1.4487,-1.4743,-1.4934,-1.4839,-1.4866,-1.5039,-1.5039,-1.5039,-1.5039,-1.5029,-1.5039,-1.5039,-1.5029,-1.5039,-1.5288,-1.5763,-1.5866,-1.6002,-1.6465,-1.6493,-1.6787,-1.7147,-1.7207,-1.7243,-1.7345,-1.6872,-1.6446,-1.6298,-1.5799,-1.5446,-1.5376,-1.5321,-1.5117,-1.5046,-1.5188,-1.5267,-1.5259,-1.533,-1.5392,-1.5376,-1.5477,-1.5661,-1.592,-1.4968,-1.428,-1.3893,-1.3509,-1.3194,-1.2862,-1.2783,-1.2753,-1.2588,-1.2101,-1.1812,-1.1605,-1.1289,-1.0972,-1.1023,-1.1023,-1.0972,-1.0922,-1.0922,-1.0922,-1.0922,-1.0922,-1.082,-1.0863,-1.1015,-1.0964,-1.0972,-1.0972,-1.0922,-1.082,-1.0726,-1.0675,-1.0624,-1.047,-1.0419,-1.0419,-1.0368,-1.0368,-1.8439,-1.8347,-1.7855,-1.7393,-1.7096,-1.6845,-1.6473,-1.5909,-1.5852,-1.5546,-1.5219,-1.5071,-1.5153,-1.5119,-1.5395,-1.5154,-1.5131,-1.5279,-1.5154,-1.5051,-1.5006,-1.5062,-1.5051,-1.4846,-1.456,-1.4376,-1.405,-1.3873,-1.3834,-1.4114,-1.435,-1.4326,-1.4658,-1.4724,-1.4477,-1.476,-1.4666,-1.4468,-1.4628,-1.476,-1.4779,-1.4789,-1.4817,-1.4852,-1.4911,-1.4921,-1.4921,-1.494,-1.5081,-1.543,-1.493,-1.521,-1.5858,-1.5414,-1.5624,-1.629,-1.609,-1.6107,-1.6423,-1.5904,-1.5492,-1.5438,-1.4895,-1.4537,-1.4474,-1.4129,-1.3848,-1.3848,-1.371,-1.3928,-1.3985,-1.397,-1.4101,-1.4095,-1.3761,-1.3823,-1.4086,-1.3593,-1.2971,-1.2817,-1.2747,-1.2672,-1.2617,-1.256,-1.2605,-1.2595,-1.2109,-1.1704,-1.142,-1.1084,-1.078,-1.0565,-1.0565,-1.0522,-1.047,-1.0462,-1.0462,-1.0462,-1.0514,-1.0462,-1.0514,-1.0557,-1.0565,-1.0565,-1.0616,-1.0616,-1.0462,-1.0419,-1.0419,-1.0419,-1.0265,-1.0265,-1.0265,-1.0213,-1.0162,-1.8029,-1.7598,-1.724,-1.6735,-1.6262,-1.6086,-1.5936,-1.5792,-1.5792,-1.5461,-1.5119,-1.4722,-1.4756,-1.5074,-1.5074,-1.5119,-1.5074,-1.5017,-1.4949,-1.4617,-1.4444,-1.4222,-1.4165,-1.4247,-1.4283,-1.3956,-1.3542,-1.318,-1.3057,-1.3297,-1.3504,-1.3777,-1.4213,-1.4371,-1.4477,-1.4514,-1.4421,-1.4098,-1.4116,-1.419,-1.4266,-1.4285,-1.4415,-1.4579,-1.4625,-1.4625,-1.4625,-1.4634,-1.4671,-1.4726,-1.4763,-1.4647,-1.4644,-1.4604,-1.4611,-1.4585,-1.4689,-1.4831,-1.4993,-1.469,-1.4385,-1.4451,-1.4037,-1.3702,-1.3695,-1.3615,-1.3477,-1.3492,-1.3564,-1.3564,-1.3513,-1.3314,-1.3275,-1.3219,-1.2779,-1.2498,-1.257,-1.2656,-1.2622,-1.2588,-1.2396,-1.2274,-1.2321,-1.2375,-1.2405,-1.2456,-1.2083,-1.1582,-1.1217,-1.0867,-1.0585,-1.0308,-1.0308,-1.0316,-1.0265,-1.0257,-1.0257,-1.0265,-1.0205,-1.0205,-1.0257,-1.0308,-1.0308,-1.0368,-1.0368,-1.0265,-1.0205,-1.0162,-1.0162,-1.0162,-1.0102,-1.011,-1.0058,-1.0007,-0.9947,-1.7774,-1.7393,-1.685,-1.6423,-1.6076,-1.5683,-1.5472,-1.545,-1.5199,-1.5006,-1.4778,-1.4506,-1.455,-1.4743,-1.4789,-1.4743,-1.4697,-1.4558,-1.4408,-1.4118,-1.3884,-1.36,-1.3467,-1.3505,-1.3505,-1.3228,-1.289,-1.251,-1.2513,-1.2903,-1.3318,-1.3451,-1.3968,-1.4264,-1.4268,-1.4405,-1.4277,-1.4087,-1.4093,-1.4176,-1.4176,-1.4185,-1.424,-1.4469,-1.4515,-1.4515,-1.4515,-1.4139,-1.407,-1.4001,-1.3932,-1.3863,-1.3623,-1.3428,-1.3222,-1.3562,-1.3324,-1.3613,-1.3735,-1.3446,-1.3033,-1.3227,-1.2968,-1.2998,-1.3071,-1.3193,-1.3288,-1.3448,-1.3477,-1.3448,-1.3272,-1.2972,-1.2811,-1.2694,-1.2336,-1.1978,-1.2006,-1.2104,-1.2134,-1.2168,-1.2039,-1.2103,-1.2127,-1.2158,-1.222,-1.2227,-1.1756,-1.123,-1.1082,-1.0694,-1.0368,-1.0162,-1.0154,-1.0162,-1.0058,-1.0058,-1.0058,-1.0058,-1.011,-1.0058,-1.011,-1.0154,-1.0205,-1.0213,-1.0162,-1.0154,-1.0051,-0.9999,-0.9999,-0.9999,-0.9999,-0.9947,-0.9895,-0.9792,-0.9784,-1.7584,-1.7352,-1.6625,-1.6269,-1.6051,-1.5424,-1.504,-1.4903,-1.4552,-1.4494,-1.4424,-1.44,-1.4422,-1.4419,-1.443,-1.443,-1.4359,-1.4137,-1.4037,-1.3845,-1.3638,-1.3422,-1.3273,-1.3084,-1.2907,-1.2643,-1.2463,-1.2236,-1.2347,-1.2825,-1.3157,-1.3378,-1.3901,-1.4148,-1.4093,-1.4286,-1.4304,-1.3983,-1.4139,-1.4295,-1.4304,-1.4323,-1.43,-1.4249,-1.4267,-1.4139,-1.395,-1.3631,-1.3329,-1.3321,-1.2696,-1.2704,-1.2773,-1.2359,-1.1821,-1.287,-1.2326,-1.237,-1.2609,-1.2304,-1.1995,-1.1948,-1.1997,-1.2296,-1.267,-1.2863,-1.3006,-1.3281,-1.3418,-1.3243,-1.2965,-1.2643,-1.2482,-1.2387,-1.2153,-1.1992,-1.1919,-1.1721,-1.1744,-1.1769,-1.1839,-1.1887,-1.195,-1.1974,-1.1989,-1.1897,-1.1363,-1.1015,-1.0814,-1.0585,-1.0234,-1.0007,-1.0007,-0.9947,-0.9895,-0.9836,-0.9895,-0.9895,-0.9895,-0.9895,-0.9895,-0.9888,-0.9888,-0.9999,-0.9947,-0.9947,-0.9888,-0.9836,-0.9836,-0.9888,-0.9844,-0.9688,-0.9629,-0.9629,-0.9569,-1.7352,-1.7031,-1.6539,-1.6064,-1.5603,-1.5097,-1.4776,-1.4512,-1.4444,-1.4398,-1.4408,-1.4408,-1.4408,-1.443,-1.443,-1.4384,-1.4309,-1.4052,-1.3889,-1.3741,-1.3533,-1.3437,-1.3159,-1.3026,-1.2846,-1.2541,-1.2477,-1.2419,-1.2182,-1.2595,-1.2923,-1.3214,-1.3488,-1.3743,-1.4218,-1.446,-1.4205,-1.3905,-1.395,-1.3996,-1.3996,-1.3947,-1.382,-1.3657,-1.3631,-1.3381,-1.2948,-1.2757,-1.2696,-1.2634,-1.2035,-1.1794,-1.1794,-1.1545,-1.1401,-1.127,-1.1171,-1.1254,-1.1469,-1.1459,-1.1538,-1.1689,-1.1845,-1.2081,-1.2382,-1.2565,-1.2699,-1.3006,-1.3027,-1.2936,-1.2636,-1.2247,-1.208,-1.2036,-1.1882,-1.1684,-1.1655,-1.1611,-1.156,-1.1622,-1.1622,-1.1685,-1.1764,-1.1766,-1.179,-1.1654,-1.1297,-1.0933,-1.0783,-1.0454,-1.0061,-0.9918,-0.9851,-0.974,-0.9673,-0.9673,-0.9673,-0.9673,-0.9673,-0.9629,-0.9629,-0.9569,-0.9569,-0.9681,-0.974,-0.9732,-0.9732,-0.9673,-0.9621,-0.9629,-0.9524,-0.9472,-0.942,-0.9413,-0.9361,-1.7337,-1.7031,-1.6367,-1.592,-1.5534,-1.4891,-1.4534,-1.443,-1.443,-1.443,-1.443,-1.443,-1.443,-1.443,-1.443,-1.4233,-1.3884,-1.3253,-1.3111,-1.3016,-1.2908,-1.2833,-1.2793,-1.282,-1.2587,-1.2445,-1.2597,-1.2396,-1.1811,-1.2299,-1.2627,-1.2893,-1.3194,-1.3646,-1.3921,-1.3932,-1.3903,-1.3726,-1.3708,-1.3641,-1.3641,-1.3464,-1.3169,-1.2821,-1.2687,-1.2565,-1.2258,-1.1826,-1.1757,-1.1578,-1.1101,-1.0793,-1.08,-1.08,-1.08,-1.0618,-1.0561,-1.0608,-1.0742,-1.0904,-1.0965,-1.1132,-1.1259,-1.1462,-1.1736,-1.1901,-1.2151,-1.2409,-1.2365,-1.2176,-1.2011,-1.179,-1.1696,-1.1638,-1.1522,-1.1527,-1.1512,-1.1442,-1.138,-1.1435,-1.1498,-1.1622,-1.167,-1.1658,-1.1554,-1.1383,-1.1069,-1.088,-1.0687,-1.0344,-0.9962,-0.9799,-0.9725,-0.9629,-0.9569,-0.951,-0.951,-0.951,-0.9458,-0.9465,-0.9413,-0.9361,-0.9361,-0.942,-0.9472,-0.9472,-0.9465,-0.9413,-0.9361,-0.9309,-0.9316,-0.9263,-0.9256,-0.9204,-0.9152,-1.7225,-1.6934,-1.6139,-1.57,-1.5466,-1.4674,-1.4337,-1.4384,-1.4395,-1.4373,-1.4316,-1.4316,-1.4326,-1.428,-1.414,-1.38,-1.318,-1.232,-1.235,-1.2519,-1.2403,-1.2312,-1.2496,-1.2507,-1.2516,-1.2456,-1.2592,-1.2393,-1.1937,-1.2255,-1.2458,-1.2711,-1.316,-1.3459,-1.3485,-1.345,-1.3381,-1.3321,-1.3199,-1.3191,-1.307,-1.2826,-1.2389,-1.1888,-1.1764,-1.1757,-1.1461,-1.1087,-1.0836,-1.0717,-1.0408,-1.0053,-1.0047,-1.0174,-1.0301,-1.0434,-1.0561,-1.0561,-1.0631,-1.0645,-1.0678,-1.0725,-1.0651,-1.0863,-1.1166,-1.1503,-1.1625,-1.1734,-1.1717,-1.1521,-1.1488,-1.1333,-1.129,-1.1269,-1.1331,-1.131,-1.1387,-1.1324,-1.1192,-1.1247,-1.1373,-1.1435,-1.1428,-1.1247,-1.1124,-1.1023,-1.0733,-1.0567,-1.0413,-1.0311,-1.0017,-0.9742,-0.9604,-0.9539,-0.9465,-0.9361,-0.9361,-0.9361,-0.9309,-0.9309,-0.9263,-0.9211,-0.9211,-0.9211,-0.9113,-0.9166,-0.9106,-0.9152,-0.9211,-0.9211,-0.9159,-0.9106,-0.9061,-0.9061,-0.9008,-1.6892,-1.6355,-1.5852,-1.532,-1.4778,-1.4269,-1.4161,-1.437,-1.4417,-1.428,-1.4086,-1.4039,-1.4061,-1.3952,-1.3505,-1.3064,-1.2567,-1.2273,-1.2236,-1.2483,-1.253,-1.2685,-1.3203,-1.3374,-1.2789,-1.253,-1.2555,-1.2429,-1.2209,-1.2518,-1.2736,-1.2796,-1.2831,-1.3126,-1.3321,-1.3086,-1.2895,-1.2826,-1.2451,-1.2197,-1.2143,-1.2081,-1.171,-1.1267,-1.108,-1.0836,-1.0471,-1.0231,-1.0168,-1.0174,-1.0047,-0.9983,-0.9989,-0.9989,-1.0053,-1.018,-1.0364,-1.0555,-1.0555,-1.0561,-1.0618,-1.0618,-1.0618,-1.0779,-1.1026,-1.1308,-1.1436,-1.1279,-1.1376,-1.133,-1.1149,-1.1164,-1.1122,-1.1122,-1.1122,-1.1192,-1.1199,-1.1136,-1.1003,-1.0996,-1.1122,-1.1122,-1.1122,-1.0897,-1.0692,-1.0587,-1.0488,-1.0355,-1.0172,-1.0116,-0.9974,-0.9738,-0.9468,-0.9382,-0.9361,-0.9256,-0.9204,-0.9211,-0.9159,-0.9106,-0.9106,-0.9061,-0.9061,-0.9008,-0.8962,-0.8962,-0.9054,-0.9106,-0.9113,-0.9088,-0.907,-0.8996,-0.8857,-0.8864,-0.8858,-1.5784,-1.5798,-1.5234,-1.4769,-1.4317,-1.4114,-1.4078,-1.4183,-1.4309,-1.4251,-1.3978,-1.3841,-1.37,-1.3409,-1.2919,-1.2316,-1.1877,-1.1532,-1.1503,-1.1885,-1.1958,-1.2159,-1.2521,-1.2677,-1.2484,-1.2639,-1.2562,-1.2562,-1.2494,-1.2355,-1.2372,-1.2471,-1.2644,-1.2764,-1.2964,-1.2789,-1.2536,-1.2158,-1.1725,-1.1344,-1.1101,-1.0975,-1.0787,-1.0218,-1.0225,-0.9977,-0.9856,-0.974,-0.9734,-0.974,-0.9734,-0.9734,-0.9734,-0.9798,-0.9926,-0.9926,-1.0117,-1.0308,-1.0434,-1.0498,-1.0561,-1.0561,-1.0561,-1.0685,-1.0819,-1.092,-1.1059,-1.089,-1.0934,-1.093,-1.0911,-1.0877,-1.0933,-1.0933,-1.0933,-1.101,-1.1017,-1.0877,-1.0751,-1.0807,-1.0807,-1.087,-1.094,-1.0892,-1.0766,-1.08,-1.0737,-1.0707,-1.0397,-1.0123,-0.9974,-0.9735,-0.9475,-0.9211,-0.9211,-0.9159,-0.9106,-0.9061,-0.9008,-0.8962,-0.8962,-0.891,-0.885,-0.885,-0.8857,-0.8903,-0.8949,-0.8956,-0.8969,-0.8977,-0.8991,-0.9005,-0.8918,-0.8597,-0.8488,-1.4494,-1.4813,-1.454,-1.4132,-1.374,-1.3854,-1.3915,-1.3915,-1.4099,-1.4099,-1.3858,-1.3521,-1.313,-1.2667,-1.2178,-1.1692,-1.1158,-1.0718,-1.0801,-1.0979,-1.1201,-1.1639,-1.211,-1.2286,-1.239,-1.2621,-1.2573,-1.2618,-1.244,-1.2269,-1.2067,-1.2162,-1.2514,-1.2528,-1.2359,-1.2174,-1.1794,-1.1115,-1.08,-1.0485,-1.0238,-1.0117,-0.9926,-0.967,-0.9478,-0.9478,-0.9478,-0.9484,-0.9484,-0.9548,-0.9548,-0.9542,-0.9542,-0.9676,-0.974,-0.9734,-0.9926,-1.0053,-1.018,-1.0308,-1.0434,-1.0434,-1.0434,-1.0448,-1.0518,-1.0498,-1.0568,-1.0601,-1.0658,-1.0645,-1.0618,-1.0681,-1.0744,-1.0744,-1.0744,-1.0884,-1.0898,-1.0758,-1.0688,-1.0681,-1.0681,-1.0618,-1.0744,-1.087,-1.0912,-1.0926,-1.0961,-1.1023,-1.0611,-1.017,-0.9903,-0.9652,-0.9288,-0.9081,-0.9008,-0.9008,-0.8956,-0.885,-0.8752,-0.8758,-0.8752,-0.8699,-0.8586,-0.8586,-0.8586,-0.8474,-0.8362,-0.8593,-0.8838,-0.8971,-0.9092,-0.9132,-0.9007,-0.8627,-0.8202,-1.3216,-1.3112,-1.3651,-1.3488,-1.3028,-1.3471,-1.3637,-1.3684,-1.3684,-1.3637,-1.3474,-1.3092,-1.2423,-1.166,-1.146,-1.1108,-1.0565,-1.0522,-1.0812,-1.1193,-1.1511,-1.1789,-1.2087,-1.2277,-1.2464,-1.2552,-1.256,-1.256,-1.2428,-1.1935,-1.2097,-1.2482,-1.2274,-1.2174,-1.1864,-1.1428,-1.0863,-1.0238,-0.9862,-0.9792,-0.967,-0.9606,-0.9542,-0.9542,-0.9478,-0.9478,-0.9478,-0.9478,-0.9478,-0.9478,-0.9478,-0.9478,-0.9484,-0.9548,-0.9548,-0.9606,-0.974,-0.9804,-0.9926,-1.0053,-1.0053,-1.0047,-1.011,-1.0174,-1.0308,-1.0308,-1.0371,-1.0498,-1.0491,-1.0498,-1.0561,-1.0618,-1.0624,-1.0624,-1.0618,-1.0688,-1.0758,-1.0688,-1.0618,-1.0618,-1.0618,-1.0618,-1.0618,-1.0744,-1.0744,-1.0814,-1.0751,-1.0815,-1.0506,-1.0079,-0.9849,-0.9549,-0.9126,-0.8858,-0.8811,-0.8699,-0.858,-0.848,-0.8381,-0.8487,-0.8593,-0.848,-0.8162,-0.8043,-0.799,-0.7883,-0.7848,-0.8021,-0.8329,-0.8919,-0.9098,-0.884,-0.854,-0.8114,-0.7916,-1.2411,-1.2419,-1.2654,-1.2677,-1.2555,-1.3,-1.3341,-1.3579,-1.36,-1.3205,-1.2657,-1.2677,-1.2178,-1.1351,-1.1057,-1.0761,-1.0296,-1.0453,-1.057,-1.0717,-1.1004,-1.136,-1.1654,-1.1947,-1.2011,-1.2258,-1.2375,-1.2042,-1.1593,-1.1413,-1.1156,-1.1219,-1.1421,-1.149,-1.1178,-1.0737,-1.0168,-0.9786,-0.9542,-0.9484,-0.9478,-0.9478,-0.9478,-0.9478,-0.9478,-0.9478,-0.9478,-0.9478,-0.9478,-0.9478,-0.9478,-0.9478,-0.9478,-0.9478,-0.9414,-0.9414,-0.9484,-0.9484,-0.9606,-0.9792,-0.9989,-0.9989,-0.9989,-0.9989,-1.0047,-1.0053,-1.0117,-1.018,-1.0174,-1.011,-1.0174,-1.0301,-1.0434,-1.0434,-1.0434,-1.0428,-1.0504,-1.0441,-1.0231,-1.004,-1.0358,-1.0618,-1.0618,-1.0618,-1.0618,-1.0618,-1.0618,-1.0521,-1.023,-0.989,-0.9564,-0.9292,-0.8896,-0.8498,-0.8387,-0.8268,-0.815,-0.8055,-0.7955,-0.8008,-0.8062,-0.7907,-0.7639,-0.7515,-0.7317,-0.7133,-0.7182,-0.7422,-0.7756,-0.8181,-0.8224,-0.8078,-0.7848,-0.7647,-0.734,-1.1957,-1.1815,-1.1853,-1.1923,-1.2077,-1.259,-1.3128,-1.3563,-1.3632,-1.3175,-1.2338,-1.2453,-1.194,-1.115,-1.0702,-1.0498,-1.0148,-1.0241,-1.0287,-1.0486,-1.0783,-1.1073,-1.1287,-1.1606,-1.1951,-1.2027,-1.1856,-1.1531,-1.1142,-1.0836,-1.0395,-1.0148,-1.0091,-1.0231,-1.0358,-1.004,-0.9658,-0.9402,-0.928,-0.9227,-0.9157,-0.9157,-0.9157,-0.9157,-0.9221,-0.9344,-0.9344,-0.9414,-0.9478,-0.9478,-0.9478,-0.9478,-0.9414,-0.935,-0.9215,-0.9151,-0.9022,-0.8894,-0.9022,-0.9536,-0.9798,-0.9798,-0.953,-0.953,-0.9588,-0.9466,-0.9139,-0.9262,-0.9326,-0.9396,-0.946,-0.9396,-0.939,-0.9256,-0.939,-0.939,-0.9951,-1.0027,-0.9734,-0.9518,-0.9716,-0.9716,-0.9716,-0.9652,-1.0168,-1.0295,-1.0618,-1.0345,-0.9825,-0.9525,-0.9213,-0.8887,-0.8596,-0.8245,-0.7889,-0.783,-0.7717,-0.7461,-0.7359,-0.7365,-0.7311,-0.7155,-0.7101,-0.6972,-0.6792,-0.6483,-0.6473,-0.6635,-0.6909,-0.7252,-0.7421,-0.7669,-0.7568,-0.7356,-0.6746,-1.192,-1.1255,-1.1254,-1.1337,-1.1491,-1.227,-1.2923,-1.3367,-1.3435,-1.3242,-1.2735,-1.2076,-1.1351,-1.0761,-1.0308,-1.0043,-1.0014,-1.0023,-1.0166,-1.0424,-1.0766,-1.1188,-1.147,-1.173,-1.1844,-1.1896,-1.1538,-1.1149,-1.0822,-1.0015,-0.9454,-0.9139,-0.8947,-0.8958,-0.9274,-0.8829,-0.8582,-0.8517,-0.8576,-0.8641,-0.8641,-0.8646,-0.8711,-0.8776,-0.8964,-0.9081,-0.8952,-0.9151,-0.9215,-0.9087,-0.9087,-0.9087,-0.9087,-0.8689,-0.8554,-0.849,-0.7907,-0.7647,-0.7582,-0.8759,-0.9221,-0.9215,-0.8818,-0.8678,-0.8544,-0.8285,-0.8096,-0.8355,-0.8291,-0.8226,-0.8156,-0.8156,-0.8285,-0.835,-0.8479,-0.8683,-0.9233,-0.9373,-0.9017,-0.8452,-0.8339,-0.8296,-0.8361,-0.8619,-0.9326,-0.9843,-1.0428,-1.0148,-0.9476,-0.9015,-0.8595,-0.8329,-0.808,-0.7621,-0.7285,-0.7348,-0.7283,-0.6972,-0.6652,-0.6544,-0.6436,-0.6223,-0.6218,-0.6372,-0.6069,-0.5663,-0.5632,-0.5766,-0.6138,-0.6595,-0.7201,-0.744,-0.7344,-0.7001,-0.6351,-1.1763,-1.1586,-1.1287,-1.0974,-1.0865,-1.1427,-1.2044,-1.2461,-1.2343,-1.2111,-1.1787,-1.1242,-1.0761,-1.0257,-0.9999,-0.9844,-0.9807,-0.9999,-1.0171,-1.0,-1.0476,-1.0751,-1.1011,-1.1309,-1.1524,-1.1564,-1.1156,-1.0418,-0.9958,-0.9169,-0.8544,-0.8166,-0.8112,-0.8047,-0.8371,-0.8382,-0.8452,-0.8252,-0.8382,-0.8517,-0.8517,-0.8517,-0.8447,-0.8447,-0.8765,-0.8759,-0.8436,-0.8694,-0.8689,-0.8371,-0.8301,-0.8236,-0.8236,-0.7837,-0.7772,-0.7772,-0.7386,-0.7386,-0.7451,-0.7972,-0.8042,-0.8037,-0.7972,-0.7772,-0.7772,-0.7647,-0.7582,-0.7512,-0.7447,-0.7512,-0.7642,-0.7772,-0.7897,-0.7967,-0.8032,-0.8161,-0.8431,-0.8361,-0.8076,-0.7321,-0.6988,-0.7623,-0.7902,-0.7712,-0.8291,-0.8479,-0.8865,-0.8994,-0.8463,-0.8143,-0.7838,-0.7607,-0.7375,-0.6875,-0.6619,-0.6678,-0.6367,-0.5882,-0.5609,-0.5449,-0.534,-0.5399,-0.5344,-0.5445,-0.5117,-0.4833,-0.5177,-0.5413,-0.5601,-0.6009,-0.651,-0.6662,-0.6396,-0.6133,-0.5789,-1.1542,-1.1437,-1.1003,-1.0656,-1.0479,-1.0935,-1.1269,-1.1427,-1.1431,-1.117,-1.0731,-1.0637,-1.0446,-1.0043,-0.9792,-0.9681,-0.9643,-0.9804,-0.9877,-0.9694,-1.0148,-1.0416,-1.0514,-1.0755,-1.0936,-1.0909,-1.0356,-0.9699,-0.9175,-0.8526,-0.803,-0.7697,-0.7526,-0.7657,-0.7852,-0.7987,-0.7987,-0.7917,-0.7987,-0.8052,-0.8117,-0.8117,-0.8117,-0.8182,-0.8306,-0.8371,-0.8047,-0.7912,-0.8037,-0.7517,-0.7321,-0.7321,-0.7321,-0.719,-0.712,-0.7055,-0.6798,-0.6732,-0.6666,-0.6666,-0.6736,-0.6666,-0.6863,-0.706,-0.6994,-0.6732,-0.6666,-0.6666,-0.6798,-0.6732,-0.6798,-0.699,-0.7055,-0.7055,-0.712,-0.7186,-0.7186,-0.7051,-0.6981,-0.629,-0.6213,-0.6898,-0.7377,-0.7186,-0.7186,-0.7186,-0.7246,-0.7372,-0.7562,-0.7359,-0.7068,-0.6871,-0.6674,-0.6329,-0.6001,-0.5881,-0.547,-0.4849,-0.4791,-0.4791,-0.4791,-0.4904,-0.4739,-0.4598,-0.4709,-0.4797,-0.5027,-0.5209,-0.5394,-0.5456,-0.554,-0.5554,-0.5359,-0.5362,-0.5362,-1.1255,-1.0878,-1.0467,-1.0342,-1.0391,-1.0734,-1.0677,-1.0392,-1.0901,-1.0556,-0.968,-1.0222,-1.0241,-1.019,-0.9829,-0.9621,-0.9621,-0.965,-0.9643,-0.9687,-0.9958,-1.0013,-1.0118,-1.0328,-1.0275,-0.9847,-0.9348,-0.8906,-0.8404,-0.7925,-0.7545,-0.7488,-0.7526,-0.7526,-0.7591,-0.7526,-0.7521,-0.7591,-0.7657,-0.7722,-0.7722,-0.7591,-0.7526,-0.7591,-0.7657,-0.7521,-0.7326,-0.733,-0.7321,-0.7186,-0.7055,-0.719,-0.706,-0.6732,-0.6465,-0.6203,-0.5815,-0.5686,-0.5686,-0.5752,-0.5686,-0.5818,-0.6141,-0.6268,-0.6272,-0.6017,-0.5885,-0.5818,-0.5818,-0.569,-0.5624,-0.569,-0.5752,-0.5752,-0.5752,-0.5752,-0.5752,-0.5686,-0.5686,-0.5543,-0.5606,-0.6009,-0.621,-0.6148,-0.6342,-0.6276,-0.6326,-0.6347,-0.6546,-0.665,-0.6374,-0.6091,-0.5929,-0.5774,-0.5509,-0.5338,-0.5089,-0.4684,-0.457,-0.457,-0.4519,-0.4529,-0.4553,-0.4601,-0.4643,-0.4819,-0.5021,-0.5168,-0.5252,-0.5223,-0.509,-0.5156,-0.516,-0.5226,-0.5226,-1.1292,-1.0888,-1.0477,-1.0322,-1.0312,-1.0439,-1.0414,-1.0295,-1.0159,-0.9826,-0.9606,-0.9769,-0.9873,-0.9821,-0.9666,-0.9614,-0.9614,-0.9614,-0.9621,-0.9627,-0.9588,-0.9585,-0.9617,-0.9591,-0.9475,-0.9078,-0.8557,-0.8132,-0.8142,-0.7633,-0.7407,-0.7512,-0.7497,-0.7502,-0.7391,-0.7134,-0.7265,-0.733,-0.7396,-0.733,-0.7265,-0.7064,-0.6999,-0.6937,-0.6933,-0.6671,-0.6346,-0.6404,-0.6334,-0.5943,-0.5811,-0.5811,-0.5951,-0.5822,-0.5686,-0.5686,-0.5491,-0.5428,-0.5428,-0.5428,-0.5428,-0.5428,-0.562,-0.562,-0.5624,-0.5557,-0.5428,-0.5428,-0.5428,-0.5428,-0.5428,-0.5428,-0.5428,-0.5428,-0.5428,-0.5428,-0.5428,-0.5428,-0.5428,-0.5425,-0.5488,-0.5491,-0.5627,-0.5624,-0.5818,-0.5557,-0.5474,-0.5563,-0.5679,-0.5917,-0.586,-0.559,-0.5414,-0.5389,-0.5082,-0.4858,-0.4734,-0.4574,-0.4519,-0.4463,-0.4519,-0.4536,-0.458,-0.4616,-0.4683,-0.4846,-0.5049,-0.5137,-0.509,-0.5027,-0.4894,-0.4894,-0.496,-0.5027,-0.5027,-1.1105,-1.0802,-1.039,-1.0118,-0.9961,-0.9841,-0.9795,-0.9751,-0.9641,-0.9604,-0.9629,-0.9644,-0.9614,-0.9614,-0.9614,-0.9614,-0.9562,-0.9295,-0.9249,-0.9197,-0.9086,-0.8871,-0.8782,-0.8745,-0.8559,-0.8228,-0.7896,-0.7586,-0.7598,-0.7447,-0.722,-0.7393,-0.7407,-0.7399,-0.7367,-0.7064,-0.6937,-0.7003,-0.6999,-0.6872,-0.6741,-0.6605,-0.6478,-0.6346,-0.621,-0.5818,-0.5355,-0.5547,-0.5352,-0.5024,-0.4954,-0.5027,-0.5229,-0.5229,-0.5292,-0.5355,-0.5359,-0.5362,-0.5428,-0.5428,-0.5428,-0.5428,-0.5428,-0.5428,-0.5425,-0.5428,-0.5428,-0.5428,-0.5428,-0.5428,-0.5428,-0.5428,-0.5428,-0.5428,-0.5428,-0.5428,-0.5428,-0.5428,-0.5428,-0.5428,-0.5428,-0.5428,-0.5428,-0.5428,-0.5428,-0.5425,-0.5422,-0.5467,-0.5453,-0.5533,-0.5528,-0.5276,-0.5192,-0.503,-0.4799,-0.4646,-0.4618,-0.4556,-0.4519,-0.4463,-0.4463,-0.449,-0.4538,-0.4626,-0.4736,-0.4876,-0.4915,-0.4926,-0.4957,-0.4821,-0.4683,-0.4691,-0.4758,-0.4831,-0.4827,-1.0857,-1.0611,-1.0235,-0.9843,-0.9439,-0.9133,-0.898,-0.8929,-0.9266,-0.9562,-0.957,-0.9614,-0.9614,-0.9614,-0.9614,-0.951,-0.9347,-0.9086,-0.8823,-0.8725,-0.8349,-0.8127,-0.7961,-0.7842,-0.768,-0.7384,-0.7149,-0.7023,-0.6865,-0.6792,-0.6851,-0.7135,-0.6989,-0.6999,-0.6974,-0.6593,-0.6342,-0.6276,-0.6083,-0.5888,-0.602,-0.5954,-0.5826,-0.5826,-0.569,-0.5491,-0.5226,-0.509,-0.5093,-0.4824,-0.4691,-0.4827,-0.4894,-0.496,-0.5024,-0.509,-0.516,-0.5292,-0.5292,-0.5359,-0.5359,-0.5362,-0.5428,-0.5428,-0.5428,-0.5428,-0.5428,-0.5428,-0.5428,-0.5428,-0.5428,-0.5428,-0.5428,-0.5428,-0.5428,-0.5428,-0.5428,-0.5428,-0.5428,-0.5428,-0.5428,-0.5428,-0.5428,-0.5428,-0.5428,-0.5428,-0.5425,-0.5348,-0.5328,-0.5332,-0.5291,-0.5182,-0.5108,-0.5036,-0.4935,-0.4782,-0.4633,-0.4558,-0.4501,-0.4463,-0.4463,-0.4501,-0.4555,-0.4669,-0.4722,-0.4643,-0.4708,-0.4739,-0.4737,-0.4581,-0.4521,-0.448,-0.4489,-0.455,-0.4564,-1.0687,-1.0166,-1.0059,-0.9616,-0.8918,-0.8788,-0.8396,-0.7888,-0.861,-0.9131,-0.9555,-0.9599,-0.9614,-0.9614,-0.9614,-0.9458,-0.8988,-0.8771,-0.8508,-0.819,-0.7818,-0.7503,-0.7348,-0.7246,-0.697,-0.6643,-0.6454,-0.6462,-0.6453,-0.6438,-0.6371,-0.6389,-0.6286,-0.6227,-0.6301,-0.5868,-0.5617,-0.5683,-0.5226,-0.5229,-0.5693,-0.5422,-0.5289,-0.5156,-0.5027,-0.4764,-0.4564,-0.4564,-0.4631,-0.4561,-0.4625,-0.4691,-0.4827,-0.4831,-0.4897,-0.4897,-0.496,-0.5027,-0.516,-0.5156,-0.5226,-0.5359,-0.5359,-0.5362,-0.5428,-0.5428,-0.5428,-0.5362,-0.5428,-0.5428,-0.5428,-0.5428,-0.5428,-0.5428,-0.5428,-0.5428,-0.5428,-0.5428,-0.5428,-0.5428,-0.5428,-0.5428,-0.5428,-0.5428,-0.5428,-0.5428,-0.5428,-0.5411,-0.5294,-0.5284,-0.5348,-0.5264,-0.5172,-0.5094,-0.5013,-0.4911,-0.4758,-0.4569,-0.4439,-0.4455,-0.4411,-0.4545,-0.4629,-0.4667,-0.4694,-0.4593,-0.4492,-0.4605,-0.4512,-0.4415,-0.4284,-0.4306,-0.418,-0.424,-0.4273,-1.0534,-1.0137,-0.998,-0.9408,-0.8724,-0.8561,-0.802,-0.7432,-0.7736,-0.8275,-0.8834,-0.9177,-0.949,-0.9592,-0.9614,-0.919,-0.8725,-0.8461,-0.7978,-0.7605,-0.7235,-0.6918,-0.6761,-0.6712,-0.6554,-0.6228,-0.6178,-0.6193,-0.6027,-0.5967,-0.588,-0.5711,-0.5563,-0.5498,-0.5568,-0.5325,-0.5074,-0.5087,-0.4553,-0.4691,-0.5223,-0.4957,-0.4761,-0.4631,-0.4498,-0.4303,-0.4303,-0.4303,-0.4367,-0.4431,-0.4428,-0.4498,-0.4564,-0.4694,-0.4694,-0.4761,-0.4761,-0.4831,-0.496,-0.4957,-0.5027,-0.5093,-0.516,-0.5093,-0.5093,-0.5093,-0.5226,-0.5292,-0.5362,-0.5428,-0.5428,-0.5428,-0.5428,-0.5428,-0.5428,-0.5428,-0.5428,-0.5428,-0.5428,-0.5428,-0.5428,-0.5428,-0.5428,-0.5428,-0.5428,-0.5428,-0.5428,-0.5359,-0.5304,-0.5202,-0.5325,-0.5345,-0.5189,-0.5105,-0.5091,-0.4992,-0.4877,-0.4631,-0.4387,-0.3806,-0.3604,-0.426,-0.4659,-0.4284,-0.4125,-0.432,-0.4287,-0.4221,-0.4387,-0.4361,-0.4243,-0.4132,-0.4004,-0.382,-0.3597,-1.0467,-1.0205,-0.9823,-0.9208,-0.8521,-0.8365,-0.7821,-0.7108,-0.7045,-0.7283,-0.7722,-0.8553,-0.9112,-0.9416,-0.9349,-0.8954,-0.8448,-0.7871,-0.7337,-0.681,-0.6386,-0.6332,-0.6282,-0.6178,-0.6119,-0.6064,-0.5955,-0.5673,-0.5372,-0.5191,-0.4978,-0.502,-0.5036,-0.5118,-0.5203,-0.5067,-0.4733,-0.4665,-0.4415,-0.4326,-0.4345,-0.4295,-0.4364,-0.4367,-0.4303,-0.4303,-0.4303,-0.4303,-0.4303,-0.43,-0.4367,-0.4367,-0.4367,-0.4498,-0.4564,-0.4561,-0.4631,-0.4697,-0.4764,-0.4761,-0.4764,-0.4831,-0.4764,-0.4827,-0.4831,-0.4897,-0.503,-0.516,-0.5229,-0.5359,-0.5359,-0.5362,-0.5362,-0.5362,-0.5362,-0.5362,-0.5362,-0.5362,-0.5362,-0.5362,-0.5362,-0.5362,-0.5362,-0.5362,-0.5362,-0.5362,-0.5362,-0.5359,-0.5286,-0.513,-0.5143,-0.5166,-0.513,-0.5117,-0.5115,-0.5021,-0.4924,-0.4587,-0.4226,-0.3275,-0.2843,-0.3585,-0.3773,-0.3325,-0.3292,-0.3508,-0.3618,-0.3463,-0.3741,-0.3778,-0.362,-0.3381,-0.3926,-0.3617,-0.2869,-1.0283,-0.9793,-0.9346,-0.8846,-0.8365,-0.8322,-0.7805,-0.7094,-0.698,-0.7067,-0.7251,-0.7553,-0.815,-0.8969,-0.841,-0.7998,-0.77,-0.7176,-0.6598,-0.6014,-0.6009,-0.5905,-0.585,-0.5845,-0.585,-0.5681,-0.5399,-0.512,-0.4673,-0.4174,-0.3796,-0.3789,-0.3503,-0.3631,-0.3779,-0.3827,-0.4061,-0.4141,-0.4257,-0.4172,-0.4191,-0.4224,-0.4295,-0.4303,-0.4303,-0.4303,-0.4303,-0.4303,-0.4303,-0.4303,-0.4303,-0.4303,-0.43,-0.4367,-0.4367,-0.4434,-0.4434,-0.4295,-0.4361,-0.4431,-0.45,-0.47,-0.47,-0.4767,-0.4767,-0.4767,-0.4834,-0.4831,-0.496,-0.5093,-0.516,-0.5296,-0.5296,-0.5226,-0.5226,-0.5296,-0.5296,-0.5296,-0.5296,-0.5296,-0.5296,-0.5296,-0.5296,-0.5296,-0.5226,-0.5229,-0.51,-0.51,-0.5163,-0.503,-0.4894,-0.4967,-0.504,-0.5096,-0.5114,-0.4939,-0.4832,-0.4491,-0.4112,-0.3374,-0.2932,-0.2947,-0.2945,-0.2466,-0.2402,-0.2566,-0.2584,-0.2458,-0.2418,-0.2447,-0.2488,-0.2579,-0.0,-0.3224,-0.2272]},{"header":{"parameterUnit":"m.s-1","parameterCategory":1,"la1":31.0,"la2":29.5877,"lo1":-88.7671,"lo2":-86.6584,"dy":0.0162,"dx":0.0185,"nx":115,"ny":88,"refTime":"2025-08-12T12:00:00:Z","depth":0,"parameterNumber":3,"parameterNumberName":"V-component_of_WINDS"},"data":[0.0,0.0,0.0,0.0,0.0,0.0,0.0,0.0,0.0,0.0,0.0,0.0,0.0,0.0,0.0,0.0,0.0,0.0,0.0,0.0,0.0,0.0,0.0,0.0,0.0,0.0,0.0,0.0,0.0,0.0,0.0,0.0,0.0,0.0,0.0,0.0,0.0,0.0,0.0,0.0,0.0,0.0,0.0,0.0,0.0,0.0,0.0,0.0,0.0,0.0,0.0,0.0,0.0,0.0,0.0,0.0,0.0,0.0,0.0,0.0,0.0,0.0,0.0,0.0,0.0,0.0,0.0,0.0,0.0,0.0,0.0,0.0,0.0,0.0,0.0,0.0,0.0,0.0,0.0,0.0,0.0,0.0,0.0,0.0,0.0,0.0,0.0,0.0,0.0,0.0,0.0,0.0,0.0,0.0,0.0,0.0,0.0,0.0,0.0,0.0,0.0,0.0,0.0,0.0,0.0,0.0,0.0,0.0,0.0,0.0,0.0,0.0,0.0,0.0,0.0,0.0,0.0,0.0,0.0,0.0,0.0,0.0,0.0,0.0,0.0,0.0,0.0,0.0,0.0,0.0,0.0,0.0,0.0,0.0,0.0,0.0,0.0,0.0,0.0,0.0,0.0,0.0,0.0,0.0,0.0,0.0,0.0,0.0,0.0,0.0,0.0,0.0,0.0,0.0,0.0,0.0,0.0,0.0,0.0,0.0,0.0,0.0,0.0,0.0,0.0,0.0,0.0,0.0,0.0,0.0,0.0,0.0,0.0,0.0,0.0,0.0,0.0,0.0,0.0,0.0,0.0,0.0,0.0,0.0,0.0,0.0,0.0,0.0,0.0,0.0,0.0,0.0,0.0,0.0,0.0,0.0,0.0,0.0,0.0,0.0,0.0,0.0,0.0,0.0,0.0,0.0,0.0,0.0,0.0,0.0,0.0,0.0,0.0,0.0,0.0,0.0,0.0,0.0,0.0,0.0,0.0,0.0,0.0,0.0,0.0,0.0,0.0,0.0,0.0,0.0,0.0,0.0,0.0,0.0,0.0,0.0,0.0,0.0,0.0,0.0,0.0,0.0,0.0,0.0,0.0,0.0,0.0,0.0,0.0,0.0,0.0,0.0,0.0,0.0,0.0,0.0,0.0,0.0,0.0,0.0,0.0,0.0,0.0,0.0,0.0,0.0,0.0,0.0,0.0,0.0,0.0,0.0,0.0,0.0,0.0,0.0,0.0,0.0,0.0,0.0,0.0,0.0,0.0,0.0,0.0,0.0,0.0,0.0,0.0,0.0,0.0,0.0,0.0,0.0,0.0,0.0,0.0,0.0,0.0,0.0,0.0,0.0,0.0,0.0,0.0,0.0,0.0,0.0,0.0,0.0,0.0,0.0,0.0,0.0,0.0,0.0,0.0,0.0,0.0,0.0,0.0,0.0,0.0,0.0,0.0,0.0,0.0,0.0,0.0,0.0,0.0,0.0,0.0,0.0,0.0,0.0,0.0,0.0,0.0,0.0,0.0,0.0,0.0,0.0,0.0,0.0,0.0,0.0,0.0,0.0,0.0,0.0,0.0,0.0,0.0,0.0,0.0,0.0,0.0,0.0,0.0,0.0,0.0,0.0,0.0,0.0,0.0,0.0,0.0,0.0,0.0,0.0,0.0,0.0,0.0,0.0,0.0,0.0,0.0,0.0,0.0,0.0,0.0,0.0,0.0,0.0,0.0,0.0,0.0,0.0,0.0,0.0,0.0,0.0,0.0,0.0,0.0,0.0,0.0,0.0,0.0,0.0,0.0,0.0,0.0,0.0,0.0,0.0,0.0,0.0,0.0,0.0,0.0,0.0,0.0,0.0,0.0,0.0,0.0,0.0,0.0,0.0,0.0,0.0,0.0,0.0,0.0,0.0,0.0,0.0,0.0,0.0,0.0,0.0,0.0,0.0,0.0,0.0,0.0,0.0,0.0,0.0,0.0,0.0,0.0,0.0,0.0,0.0,0.0,0.0,0.0,0.0,0.0,0.0,0.0,0.0,0.0,0.0,0.0,0.0,0.0,0.0,0.0,0.0,0.0,0.0,0.0,0.0,0.0,0.0,0.0,0.0,0.0,0.0,0.0,0.0,0.0,0.0,0.0,0.0,0.0,0.0,0.0,0.0,0.0,0.0,0.0,0.0,0.0,0.0,0.0,0.0,0.0,0.0,0.0,0.0,0.0,0.0,0.0,0.0,0.0,0.0,0.0,0.0,0.0,0.0,0.0,0.0,0.0,0.0,0.0,0.0,0.0,0.0,0.0,0.0,0.0,0.0,0.0,0.0,0.0,0.0,0.0,0.0,0.0,0.0,0.0,0.0,0.0,0.0,0.0,0.0,0.0,0.0,0.0,0.0,0.0,0.0,0.0,0.0,0.0,0.0,0.0,0.0,0.0,0.0,0.0,0.0,0.0,0.0,0.0,0.0,0.0,0.0,0.0,0.0,0.0,0.0,0.0,0.0,0.0,0.0,0.0,0.0,0.0,0.0,0.0,0.0,0.0,0.0,0.0,0.0,0.0,0.0,0.0,0.0,0.0,0.0,0.0,0.0,0.0,0.0,0.0,0.0,0.0,0.0,0.0,0.0,0.0,0.0,0.0,0.0,0.0,0.0,0.0,0.0,0.0,0.0,0.0,0.0,0.0,0.0,0.0,0.0,0.0,0.0,0.0,0.0,0.0,0.0,0.0,0.0,0.0,0.0,0.0,0.0,0.0,0.0,0.0,0.0,0.0,0.0,0.0,0.0,0.0,0.0,0.0,0.0,0.0,0.0,0.0,0.0,0.0,0.0,0.0,0.0,0.0,0.0,0.0,0.0,0.0,0.0,0.0,0.0,0.0,0.0,0.0,0.0,0.0,0.0,0.0,0.0,0.0,0.0,0.0,0.0,0.0,0.0,0.0,0.0,0.0,0.0,0.0,0.0,0.0,0.0,0.0,0.0,0.0,0.0,0.0,0.0,0.0,0.0,0.0,0.0,0.0,0.0,0.0,0.0,0.0,0.0,0.0,0.0,0.0,0.0,0.0,0.0,0.0,0.0,0.0,0.0,0.0,0.0,0.0,0.0,0.0,0.0,0.0,0.0,0.0,0.0,0.0,0.0,0.0,0.0,0.0,0.0,0.0,0.0,0.0,0.0,0.0,0.0,0.0,0.0,0.0,0.0,0.0,0.0,0.0,0.0,0.0,0.0,0.0,0.0,0.0,0.0,0.0,0.0,0.0,0.0,0.0,0.0,0.0,0.0,0.0,0.0,0.0,0.0,0.0,0.0,0.0,0.0,0.0,0.0,0.0,0.0,0.0,0.0,0.0,0.0,0.0,0.0,0.0,0.0,0.0,0.0,0.0,0.0,0.0,0.0,0.0,0.0,0.0,0.0,0.0,0.0,0.0,0.0,0.0,0.0,0.0,0.0,0.0,0.0,0.0,0.0,0.0,0.0,0.0,0.0,0.0,0.0,0.0,0.0,0.0,0.0,0.0,0.0,0.0,0.0,0.0,0.0,0.0,0.0,0.0,0.0,0.0,0.0,0.0,0.0,0.0,0.0,0.0,0.0,0.0,0.0,0.0,0.0,0.0,0.0,0.0,0.0,0.0,0.0,0.0,0.0,0.0,0.0,0.0,0.0,0.0,0.0,0.0,0.0,0.0,0.0,0.0,0.0,0.0,0.0,0.0,0.0,0.0,0.0,0.0,0.0,0.0,0.0,0.0,0.0,0.0,0.0,0.0,0.0,0.0,0.0,0.0,0.0,0.0,0.0,0.0,0.0,0.0,0.0,0.0,0.0,0.0,0.0,0.0,0.0,0.0,0.0,0.0,0.0,0.0,0.0,0.0,0.0,0.0,0.0,0.0,0.0,0.0,0.0,0.0,0.0,0.0,0.0,0.0,0.0,0.0,0.0,0.0,0.0,0.0,0.0,0.0,0.0,0.0,0.0,0.0,0.0,0.0,0.0,0.0,0.0,0.0,0.0,0.0,0.0,0.0,0.0,0.0,0.0,0.0,0.0,0.0,0.0,0.0,0.0,0.0,0.0,0.0,0.0,0.0,0.0,0.0,0.0,0.0,0.0,0.0,0.0,0.0,0.0,0.0,0.0,0.0,0.0,0.0,0.0,0.0,0.0,0.0,0.0,0.0,0.0,0.0,0.0,0.0,0.0,0.0,0.0,0.0,0.0,0.0,0.0,0.0,0.0,0.0,0.0,0.0,0.0,0.0,0.0,0.0,0.0,0.0,0.0,0.0,0.0,0.0,0.0,0.0,0.0,-1.4754,0.0,0.0,0.0,0.0,0.0,0.0,0.0,0.0,0.0,0.0,0.0,0.0,0.0,0.0,0.0,0.0,0.0,0.0,0.0,0.0,0.0,0.0,0.0,0.0,0.0,0.0,0.0,0.0,0.0,0.0,0.0,0.0,0.0,0.0,0.0,0.0,0.0,0.0,0.0,0.0,0.0,0.0,0.0,0.0,0.0,0.0,0.0,0.0,0.0,0.0,0.0,0.0,0.0,0.0,0.0,0.0,0.0,0.0,0.0,0.0,0.0,0.0,0.0,0.0,0.0,0.0,0.0,0.0,0.0,0.0,0.0,0.0,0.0,0.0,0.0,0.0,0.0,0.0,0.0,0.0,0.0,0.0,0.0,0.0,0.0,0.0,0.0,0.0,0.0,0.0,0.0,0.0,0.0,0.0,0.0,0.0,0.0,0.0,0.0,0.0,0.0,0.0,0.0,0.0,0.0,0.0,0.0,0.0,0.0,0.0,-1.5748,-1.5428,-1.5941,-1.5825,-1.5108,0.0,0.0,0.0,0.0,0.0,0.0,0.0,0.0,0.0,0.0,0.0,0.0,0.0,0.0,0.0,0.0,0.0,0.0,0.0,0.0,0.0,0.0,0.0,0.0,0.0,0.0,0.0,0.0,0.0,0.0,0.0,0.0,0.0,0.0,0.0,0.0,0.0,0.0,0.0,0.0,0.0,0.0,0.0,0.0,0.0,0.0,0.0,0.0,0.0,0.0,0.0,0.0,0.0,0.0,0.0,0.0,0.0,0.0,0.0,0.0,0.0,0.0,0.0,0.0,0.0,0.0,0.0,0.0,0.0,0.0,0.0,0.0,0.0,0.0,0.0,0.0,0.0,0.0,0.0,0.0,0.0,0.0,0.0,0.0,0.0,0.0,0.0,0.0,0.0,0.0,0.0,0.0,0.0,0.0,0.0,0.0,0.0,0.0,0.0,0.0,0.0,0.0,0.0,0.0,0.0,0.0,0.0,0.0,0.0,0.0,0.0,0.0,-1.5965,-1.5872,-1.5299,0.0,0.0,0.0,0.0,0.0,0.0,0.0,0.0,0.0,0.0,0.0,0.0,0.0,0.0,0.0,0.0,0.0,0.0,0.0,0.0,0.0,0.0,0.0,0.0,0.0,0.0,0.0,0.0,0.0,0.0,0.0,0.0,0.0,0.0,0.0,0.0,0.0,0.0,0.0,0.0,0.0,0.0,0.0,0.0,0.0,0.0,0.0,0.0,0.0,0.0,0.0,0.0,0.0,0.0,0.0,0.0,0.0,0.0,0.0,0.0,0.0,0.0,0.0,0.0,0.0,0.0,0.0,0.0,0.0,0.0,0.0,0.0,0.0,0.0,0.0,0.0,0.0,0.0,0.0,0.0,0.0,0.0,0.0,0.0,0.0,0.0,0.0,0.0,0.0,0.0,0.0,0.0,0.0,0.0,0.0,0.0,0.0,0.0,0.0,0.0,0.0,0.0,0.0,0.0,0.0,0.0,0.0,0.0,0.0,0.0,-1.5808,-1.6361,-1.7181,0.0,-1.5325,0.0,0.0,0.0,0.0,0.0,0.0,0.0,0.0,0.0,0.0,0.0,0.0,0.0,0.0,0.0,0.0,0.0,0.0,0.0,0.0,0.0,0.0,0.0,0.0,0.0,0.0,0.0,0.0,0.0,0.0,0.0,0.0,0.0,0.0,0.0,0.0,0.0,0.0,0.0,0.0,0.0,0.0,0.0,0.0,0.0,0.0,0.0,0.0,0.0,0.0,0.0,0.0,0.0,0.0,0.0,0.0,0.0,0.0,0.0,0.0,0.0,0.0,0.0,0.0,0.0,0.0,0.0,0.0,0.0,0.0,0.0,0.0,0.0,0.0,0.0,0.0,0.0,0.0,0.0,0.0,0.0,0.0,0.0,0.0,0.0,0.0,0.0,0.0,0.0,0.0,0.0,0.0,0.0,0.0,0.0,0.0,0.0,0.0,0.0,0.0,0.0,0.0,0.0,0.0,0.0,0.0,0.0,0.0,0.0,0.0,0.0,-1.6545,-1.6796,-1.6273,0.0,0.0,0.0,0.0,0.0,0.0,0.0,0.0,0.0,0.0,0.0,0.0,0.0,0.0,0.0,0.0,0.0,0.0,0.0,0.0,0.0,0.0,0.0,0.0,0.0,0.0,0.0,0.0,0.0,0.0,0.0,0.0,0.0,0.0,0.0,0.0,0.0,0.0,0.0,0.0,0.0,0.0,0.0,0.0,0.0,0.0,0.0,0.0,0.0,0.0,0.0,0.0,0.0,0.0,0.0,0.0,0.0,0.0,0.0,0.0,0.0,0.0,0.0,0.0,0.0,0.0,0.0,0.0,0.0,0.0,0.0,0.0,0.0,0.0,0.0,0.0,0.0,0.0,0.0,0.0,0.0,0.0,0.0,0.0,0.0,0.0,0.0,0.0,0.0,0.0,0.0,0.0,0.0,0.0,0.0,0.0,0.0,0.0,0.0,0.0,0.0,0.0,0.0,0.0,0.0,0.0,0.0,0.0,0.0,0.0,-1.6011,0.0,-1.6892,-1.6718,-1.6035,-1.4875,0.0,0.0,0.0,0.0,0.0,0.0,0.0,0.0,0.0,0.0,0.0,0.0,0.0,0.0,0.0,0.0,0.0,0.0,0.0,0.0,0.0,0.0,0.0,0.0,0.0,0.0,0.0,0.0,0.0,0.0,0.0,0.0,0.0,0.0,0.0,0.0,0.0,0.0,0.0,0.0,0.0,0.0,0.0,0.0,0.0,0.0,0.0,0.0,0.0,0.0,0.0,0.0,0.0,0.0,0.0,0.0,0.0,0.0,0.0,0.0,0.0,0.0,0.0,0.0,0.0,0.0,0.0,0.0,0.0,0.0,0.0,0.0,0.0,0.0,0.0,0.0,0.0,0.0,0.0,0.0,0.0,0.0,0.0,0.0,0.0,0.0,0.0,0.0,0.0,0.0,0.0,0.0,0.0,0.0,0.0,0.0,0.0,0.0,0.0,0.0,0.0,0.0,0.0,0.0,0.0,0.0,0.0,0.0,0.0,-1.6541,-1.6692,-1.7675,-1.7497,-1.6693,0.0,0.0,0.0,0.0,0.0,0.0,0.0,0.0,0.0,0.0,0.0,0.0,0.0,0.0,0.0,0.0,0.0,0.0,0.0,0.0,0.0,0.0,0.0,0.0,0.0,0.0,0.0,0.0,0.0,0.0,0.0,0.0,0.0,0.0,0.0,0.0,0.0,0.0,0.0,0.0,0.0,0.0,0.0,0.0,0.0,0.0,0.0,0.0,0.0,0.0,0.0,0.0,0.0,0.0,0.0,0.0,0.0,0.0,0.0,0.0,0.0,0.0,0.0,0.0,0.0,0.0,0.0,0.0,0.0,0.0,0.0,0.0,0.0,0.0,0.0,0.0,0.0,0.0,0.0,0.0,0.0,0.0,0.0,0.0,0.0,0.0,0.0,0.0,0.0,0.0,0.0,0.0,0.0,0.0,0.0,0.0,0.0,0.0,0.0,0.0,0.0,0.0,0.0,0.0,0.0,0.0,0.0,0.0,0.0,-1.607,-1.6389,-1.7115,-1.8118,-1.6745,-1.5929,0.0,0.0,0.0,0.0,0.0,0.0,0.0,0.0,0.0,0.0,0.0,0.0,0.0,0.0,0.0,0.0,0.0,0.0,0.0,0.0,0.0,0.0,0.0,0.0,0.0,0.0,0.0,0.0,0.0,0.0,0.0,0.0,0.0,0.0,0.0,0.0,0.0,0.0,0.0,0.0,0.0,0.0,0.0,0.0,0.0,0.0,0.0,0.0,0.0,0.0,0.0,0.0,0.0,0.0,0.0,0.0,0.0,0.0,0.0,0.0,0.0,0.0,0.0,0.0,0.0,0.0,0.0,0.0,0.0,0.0,0.0,0.0,0.0,0.0,0.0,0.0,0.0,0.0,0.0,0.0,0.0,0.0,0.0,0.0,0.0,0.0,0.0,0.0,0.0,0.0,0.0,0.0,0.0,0.0,0.0,0.0,0.0,0.0,0.0,0.0,0.0,0.0,0.0,0.0,0.0,0.0,0.0,0.0,0.0,-1.6001,0.0,-1.7376,0.0,-1.6481,-1.5605,0.0,0.0,0.0,0.0,0.0,0.0,0.0,0.0,0.0,0.0,0.0,0.0,0.0,0.0,0.0,0.0,0.0,0.0,0.0,0.0,0.0,0.0,0.0,0.0,0.0,0.0,0.0,0.0,0.0,0.0,0.0,0.0,0.0,0.0,0.0,0.0,0.0,0.0,0.0,0.0,0.0,0.0,0.0,0.0,0.0,0.0,0.0,0.0,0.0,0.0,0.0,0.0,0.0,0.0,0.0,0.0,0.0,0.0,0.0,0.0,0.0,0.0,0.0,0.0,0.0,0.0,0.0,0.0,0.0,0.0,0.0,0.0,0.0,0.0,0.0,0.0,0.0,0.0,0.0,0.0,0.0,0.0,0.0,0.0,0.0,0.0,0.0,0.0,0.0,0.0,0.0,0.0,0.0,0.0,0.0,0.0,0.0,0.0,0.0,0.0,0.0,0.0,0.0,0.0,0.0,0.0,0.0,0.0,-1.5869,-1.7133,-1.7568,-1.7553,-1.7044,-1.6717,-1.5828,0.0,0.0,0.0,0.0,0.0,0.0,0.0,0.0,0.0,0.0,0.0,0.0,0.0,0.0,0.0,0.0,0.0,0.0,0.0,0.0,0.0,0.0,0.0,0.0,0.0,0.0,0.0,0.0,0.0,0.0,0.0,0.0,0.0,0.0,0.0,0.0,0.0,0.0,0.0,0.0,0.0,0.0,0.0,0.0,0.0,0.0,0.0,0.0,0.0,0.0,0.0,0.0,0.0,0.0,0.0,0.0,0.0,0.0,0.0,0.0,0.0,0.0,0.0,0.0,0.0,0.0,0.0,0.0,0.0,0.0,0.0,0.0,0.0,0.0,0.0,0.0,0.0,0.0,0.0,0.0,0.0,0.0,0.0,0.0,0.0,0.0,0.0,0.0,0.0,0.0,0.0,0.0,0.0,0.0,0.0,0.0,0.0,0.0,0.0,0.0,0.0,0.0,0.0,0.0,0.0,0.0,0.0,0.0,0.0,-1.6503,-1.6997,-1.7349,-1.7502,-1.6397,-1.5747,0.0,0.0,0.0,0.0,0.0,0.0,0.0,0.0,0.0,0.0,0.0,0.0,0.0,0.0,0.0,0.0,0.0,0.0,0.0,0.0,0.0,0.0,0.0,0.0,0.0,0.0,0.0,0.0,0.0,0.0,0.0,0.0,0.0,0.0,0.0,0.0,0.0,0.0,0.0,0.0,0.0,0.0,0.0,0.0,0.0,0.0,0.0,0.0,0.0,0.0,0.0,0.0,0.0,0.0,0.0,0.0,0.0,0.0,0.0,0.0,0.0,0.0,0.0,0.0,0.0,0.0,0.0,0.0,0.0,0.0,0.0,0.0,0.0,0.0,0.0,0.0,0.0,0.0,0.0,0.0,0.0,0.0,0.0,0.0,0.0,0.0,0.0,0.0,0.0,0.0,0.0,0.0,0.0,0.0,0.0,0.0,0.0,0.0,0.0,0.0,0.0,0.0,0.0,0.0,0.0,0.0,0.0,0.0,0.0,-1.6738,-1.7549,-1.799,-1.7932,-1.679,-1.6115,-1.5973,0.0,0.0,0.0,0.0,0.0,0.0,0.0,0.0,0.0,0.0,0.0,0.0,0.0,0.0,0.0,0.0,0.0,0.0,0.0,0.0,0.0,0.0,0.0,0.0,0.0,0.0,0.0,0.0,0.0,0.0,0.0,0.0,0.0,0.0,0.0,0.0,0.0,0.0,0.0,0.0,0.0,0.0,0.0,0.0,0.0,0.0,0.0,0.0,0.0,0.0,0.0,0.0,0.0,0.0,0.0,0.0,0.0,0.0,0.0,0.0,0.0,0.0,0.0,0.0,0.0,0.0,0.0,0.0,0.0,0.0,0.0,0.0,0.0,0.0,0.0,0.0,0.0,0.0,0.0,0.0,0.0,0.0,0.0,0.0,0.0,0.0,0.0,0.0,0.0,0.0,0.0,0.0,0.0,0.0,0.0,0.0,0.0,0.0,0.0,0.0,0.0,0.0,0.0,0.0,0.0,0.0,0.0,0.0,-1.7557,-1.9043,-1.9297,-1.8244,-1.7702,-1.6827,0.0,0.0,0.0,0.0,0.0,0.0,0.0,0.0,0.0,0.0,0.0,0.0,0.0,0.0,0.0,0.0,0.0,0.0,0.0,0.0,0.0,0.0,0.0,0.0,0.0,0.0,0.0,0.0,0.0,0.0,0.0,0.0,0.0,0.0,0.0,0.0,0.0,0.0,0.0,0.0,0.0,0.0,0.0,0.0,0.0,0.0,0.0,0.0,0.0,0.0,0.0,0.0,0.0,0.0,0.0,0.0,0.0,0.0,0.0,0.0,0.0,0.0,0.0,0.0,0.0,0.0,0.0,0.0,0.0,0.0,0.0,0.0,0.0,0.0,0.0,0.0,0.0,0.0,0.0,0.0,0.0,0.0,0.0,0.0,0.0,0.0,0.0,0.0,0.0,0.0,0.0,0.0,0.0,0.0,0.0,0.0,0.0,0.0,0.0,0.0,0.0,0.0,0.0,0.0,0.0,0.0,0.0,0.0,0.0,-1.8111,-2.0023,-2.0509,-1.9358,-1.8137,-1.7353,0.0,0.0,0.0,0.0,0.0,0.0,0.0,0.0,0.0,0.0,0.0,0.0,0.0,0.0,0.0,0.0,0.0,0.0,0.0,0.0,0.0,0.0,0.0,0.0,0.0,0.0,0.0,0.0,0.0,0.0,0.0,0.0,0.0,0.0,0.0,0.0,0.0,0.0,0.0,0.0,0.0,0.0,0.0,0.0,0.0,0.0,0.0,0.0,0.0,0.0,0.0,0.0,0.0,0.0,0.0,0.0,0.0,0.0,0.0,0.0,0.0,0.0,0.0,0.0,0.0,0.0,0.0,0.0,0.0,0.0,0.0,0.0,0.0,0.0,0.0,0.0,0.0,0.0,0.0,0.0,0.0,0.0,0.0,0.0,0.0,0.0,0.0,0.0,0.0,0.0,0.0,0.0,0.0,0.0,0.0,0.0,0.0,0.0,0.0,0.0,0.0,0.0,0.0,0.0,0.0,0.0,0.0,0.0,-1.7838,-1.8213,-2.0236,-2.0971,-2.0347,-1.91,-1.8149,0.0,0.0,0.0,0.0,0.0,0.0,0.0,0.0,0.0,0.0,0.0,0.0,0.0,0.0,0.0,0.0,0.0,0.0,0.0,0.0,0.0,0.0,0.0,0.0,0.0,0.0,0.0,0.0,0.0,0.0,0.0,0.0,0.0,0.0,0.0,0.0,0.0,0.0,0.0,0.0,0.0,0.0,0.0,0.0,0.0,0.0,0.0,0.0,0.0,0.0,0.0,0.0,0.0,0.0,0.0,0.0,0.0,0.0,0.0,0.0,0.0,0.0,0.0,0.0,0.0,0.0,0.0,0.0,0.0,0.0,0.0,0.0,0.0,0.0,0.0,0.0,0.0,0.0,0.0,0.0,0.0,0.0,0.0,0.0,0.0,0.0,0.0,0.0,0.0,0.0,0.0,0.0,0.0,0.0,0.0,0.0,0.0,0.0,0.0,0.0,0.0,0.0,0.0,0.0,0.0,0.0,0.0,0.0,-1.7911,-1.8089,-1.9931,-2.0885,-2.0983,-2.0161,-1.8977,0.0,0.0,0.0,0.0,0.0,0.0,0.0,0.0,0.0,0.0,0.0,0.0,0.0,0.0,0.0,0.0,0.0,0.0,0.0,0.0,0.0,0.0,0.0,0.0,0.0,0.0,0.0,0.0,0.0,0.0,0.0,0.0,0.0,0.0,0.0,0.0,0.0,0.0,0.0,0.0,0.0,0.0,0.0,0.0,0.0,0.0,0.0,0.0,0.0,0.0,0.0,0.0,0.0,0.0,0.0,0.0,0.0,0.0,0.0,0.0,0.0,0.0,0.0,0.0,0.0,0.0,0.0,0.0,0.0,0.0,0.0,0.0,0.0,0.0,0.0,0.0,0.0,0.0,0.0,0.0,0.0,0.0,0.0,0.0,0.0,0.0,0.0,0.0,0.0,0.0,0.0,0.0,0.0,0.0,0.0,0.0,0.0,0.0,0.0,0.0,0.0,0.0,0.0,0.0,0.0,0.0,0.0,0.0,-1.7662,-1.8099,-1.9425,-2.0329,-2.0877,-1.953,-1.8588,0.0,0.0,0.0,0.0,0.0,0.0,0.0,0.0,0.0,0.0,0.0,0.0,0.0,0.0,0.0,0.0,0.0,0.0,0.0,0.0,0.0,0.0,0.0,0.0,0.0,0.0,0.0,0.0,0.0,0.0,0.0,0.0,0.0,0.0,0.0,0.0,0.0,0.0,0.0,0.0,0.0,0.0,0.0,0.0,0.0,0.0,0.0,0.0,-2.0823,0.0,0.0,0.0,0.0,0.0,0.0,0.0,0.0,0.0,0.0,0.0,0.0,0.0,0.0,0.0,0.0,0.0,0.0,0.0,0.0,0.0,0.0,0.0,0.0,0.0,0.0,0.0,0.0,0.0,0.0,0.0,0.0,0.0,0.0,0.0,0.0,0.0,0.0,0.0,0.0,0.0,0.0,0.0,0.0,0.0,0.0,0.0,0.0,0.0,0.0,0.0,0.0,0.0,0.0,0.0,0.0,0.0,0.0,0.0,-1.7329,-1.7601,-1.8591,-1.9525,-2.0311,-1.9457,-1.8797,0.0,0.0,0.0,0.0,0.0,0.0,0.0,0.0,0.0,0.0,0.0,0.0,0.0,0.0,0.0,0.0,0.0,0.0,0.0,0.0,0.0,0.0,0.0,0.0,0.0,0.0,0.0,0.0,0.0,0.0,0.0,0.0,0.0,0.0,0.0,0.0,0.0,0.0,0.0,0.0,0.0,0.0,0.0,0.0,0.0,0.0,0.0,0.0,0.0,0.0,0.0,0.0,0.0,0.0,0.0,0.0,0.0,0.0,0.0,0.0,0.0,0.0,0.0,0.0,0.0,0.0,0.0,0.0,0.0,0.0,0.0,0.0,0.0,0.0,0.0,0.0,0.0,0.0,0.0,0.0,0.0,0.0,0.0,0.0,0.0,0.0,0.0,0.0,0.0,0.0,0.0,0.0,0.0,0.0,0.0,0.0,0.0,0.0,0.0,0.0,0.0,0.0,0.0,0.0,0.0,0.0,0.0,-1.6425,-1.6873,-1.71,-1.7885,-1.8788,-1.975,-1.9609,-1.9343,-1.8931,0.0,0.0,0.0,0.0,0.0,0.0,0.0,0.0,0.0,0.0,0.0,0.0,0.0,0.0,0.0,0.0,0.0,0.0,0.0,0.0,0.0,0.0,0.0,0.0,0.0,0.0,0.0,0.0,0.0,0.0,0.0,0.0,0.0,0.0,0.0,0.0,0.0,0.0,-1.2948,-1.4492,0.0,0.0,0.0,0.0,0.0,0.0,0.0,0.0,-2.0827,0.0,0.0,0.0,0.0,0.0,0.0,0.0,0.0,0.0,0.0,0.0,0.0,0.0,0.0,0.0,0.0,0.0,0.0,0.0,0.0,0.0,0.0,0.0,0.0,0.0,0.0,0.0,0.0,0.0,0.0,0.0,0.0,0.0,0.0,0.0,0.0,0.0,0.0,0.0,0.0,0.0,0.0,0.0,0.0,0.0,0.0,0.0,0.0,0.0,0.0,0.0,0.0,0.0,0.0,0.0,0.0,-1.6722,-1.6187,-1.6467,-1.7595,-1.7761,-1.8459,-1.9658,-1.9955,-1.975,-1.9101,0.0,0.0,0.0,0.0,0.0,0.0,0.0,0.0,0.0,0.0,0.0,0.0,0.0,0.0,0.0,0.0,0.0,0.0,0.0,0.0,0.0,0.0,0.0,0.0,0.0,0.0,0.0,0.0,0.0,0.0,0.0,0.0,0.0,0.0,0.0,0.0,0.0,0.0,0.0,-1.5998,-1.7127,0.0,0.0,0.0,0.0,0.0,0.0,0.0,0.0,-2.1513,0.0,0.0,0.0,0.0,0.0,0.0,0.0,0.0,0.0,0.0,0.0,0.0,0.0,0.0,0.0,0.0,0.0,0.0,0.0,0.0,0.0,0.0,0.0,0.0,0.0,0.0,0.0,0.0,0.0,0.0,0.0,0.0,0.0,0.0,0.0,0.0,0.0,0.0,0.0,0.0,0.0,0.0,0.0,0.0,0.0,0.0,0.0,0.0,0.0,0.0,0.0,0.0,0.0,0.0,0.0,-1.628,-1.6374,-1.6705,-1.7286,-1.7307,-1.7978,-1.9344,-1.9563,-1.9465,0.0,0.0,0.0,0.0,0.0,0.0,0.0,0.0,0.0,0.0,0.0,0.0,0.0,0.0,0.0,0.0,0.0,0.0,0.0,0.0,0.0,0.0,0.0,0.0,0.0,0.0,0.0,0.0,0.0,0.0,0.0,0.0,0.0,0.0,0.0,0.0,0.0,0.0,0.0,0.0,-1.6812,-1.7828,-1.9384,0.0,0.0,0.0,0.0,0.0,0.0,-2.1725,-2.187,0.0,0.0,0.0,0.0,0.0,0.0,0.0,0.0,0.0,0.0,0.0,0.0,0.0,0.0,0.0,0.0,0.0,0.0,0.0,0.0,0.0,0.0,0.0,0.0,0.0,0.0,0.0,0.0,0.0,0.0,0.0,0.0,0.0,0.0,0.0,0.0,0.0,0.0,0.0,0.0,0.0,0.0,0.0,0.0,0.0,0.0,0.0,0.0,0.0,0.0,0.0,0.0,0.0,0.0,0.0,-1.5846,-1.6539,-1.7036,-1.7284,-1.7162,-1.7792,-1.9069,-1.9266,-1.9201,0.0,0.0,0.0,0.0,0.0,0.0,0.0,0.0,0.0,0.0,0.0,0.0,0.0,0.0,0.0,0.0,0.0,0.0,0.0,0.0,0.0,0.0,0.0,0.0,0.0,0.0,0.0,0.0,0.0,0.0,0.0,0.0,0.0,0.0,0.0,0.0,0.0,0.0,0.0,0.0,0.0,-1.8737,-2.0254,-2.0126,0.0,0.0,0.0,0.0,-2.1677,-2.2315,0.0,0.0,0.0,0.0,0.0,0.0,0.0,0.0,0.0,0.0,0.0,0.0,0.0,0.0,0.0,0.0,0.0,0.0,0.0,0.0,0.0,0.0,0.0,0.0,0.0,0.0,0.0,0.0,0.0,0.0,0.0,0.0,0.0,0.0,0.0,0.0,0.0,0.0,0.0,0.0,0.0,0.0,0.0,0.0,0.0,0.0,0.0,0.0,0.0,0.0,0.0,0.0,0.0,0.0,0.0,0.0,-1.627,-1.6405,-1.7036,-1.8133,-1.7843,-1.8112,-1.909,-1.9646,-1.9441,0.0,0.0,0.0,0.0,0.0,0.0,0.0,0.0,0.0,0.0,0.0,0.0,0.0,0.0,0.0,0.0,0.0,0.0,0.0,0.0,0.0,0.0,0.0,0.0,0.0,0.0,0.0,0.0,0.0,0.0,0.0,0.0,0.0,0.0,0.0,0.0,0.0,0.0,0.0,0.0,0.0,-2.01,-2.0459,-2.0591,-2.0677,0.0,0.0,-2.2432,-2.2631,-2.3923,0.0,0.0,0.0,0.0,0.0,0.0,0.0,0.0,0.0,0.0,0.0,0.0,0.0,0.0,0.0,0.0,0.0,0.0,0.0,0.0,0.0,0.0,0.0,0.0,0.0,0.0,0.0,0.0,0.0,0.0,0.0,0.0,0.0,0.0,0.0,0.0,0.0,0.0,0.0,0.0,0.0,0.0,0.0,0.0,0.0,0.0,0.0,0.0,0.0,0.0,0.0,0.0,0.0,0.0,0.0,-1.598,-1.6327,-1.7119,-1.7854,-1.835,-1.8564,-1.903,-1.9738,-1.9924,-1.9792,0.0,0.0,0.0,0.0,0.0,0.0,0.0,0.0,0.0,0.0,0.0,0.0,0.0,0.0,0.0,0.0,0.0,0.0,0.0,0.0,0.0,0.0,0.0,0.0,0.0,0.0,0.0,0.0,0.0,0.0,0.0,0.0,0.0,0.0,0.0,0.0,0.0,0.0,0.0,0.0,0.0,0.0,-2.1207,-2.1379,0.0,0.0,0.0,-2.2678,-2.2708,0.0,0.0,0.0,0.0,0.0,0.0,0.0,0.0,0.0,0.0,0.0,0.0,0.0,0.0,0.0,0.0,0.0,0.0,0.0,0.0,0.0,0.0,0.0,0.0,0.0,0.0,0.0,0.0,0.0,0.0,0.0,0.0,0.0,0.0,0.0,0.0,0.0,0.0,0.0,0.0,0.0,0.0,0.0,0.0,0.0,0.0,0.0,0.0,0.0,0.0,0.0,0.0,0.0,0.0,0.0,0.0,0.0,-1.629,-1.7822,-1.8638,-1.8617,-1.913,-1.9732,-2.0292,-2.0251,0.0,0.0,0.0,0.0,0.0,0.0,0.0,0.0,0.0,0.0,0.0,0.0,0.0,0.0,0.0,0.0,0.0,0.0,0.0,0.0,0.0,0.0,0.0,0.0,0.0,0.0,0.0,-1.5209,0.0,0.0,0.0,0.0,0.0,0.0,0.0,0.0,0.0,0.0,0.0,0.0,0.0,0.0,-2.1119,-2.1937,-2.2171,-2.2661,0.0,0.0,-2.2981,-2.3109,-2.4086,-2.4356,0.0,0.0,0.0,0.0,0.0,0.0,0.0,0.0,0.0,0.0,0.0,0.0,0.0,0.0,0.0,0.0,0.0,0.0,0.0,0.0,0.0,0.0,0.0,0.0,0.0,0.0,0.0,0.0,0.0,0.0,0.0,0.0,0.0,0.0,0.0,0.0,0.0,0.0,0.0,0.0,0.0,0.0,0.0,0.0,0.0,0.0,0.0,0.0,0.0,0.0,0.0,0.0,0.0,0.0,0.0,-1.6483,-1.8362,-1.9323,-1.925,-1.9486,-1.9884,-2.0499,-2.072,-2.0398,0.0,0.0,0.0,0.0,0.0,0.0,0.0,0.0,0.0,0.0,0.0,0.0,0.0,0.0,0.0,0.0,0.0,0.0,0.0,0.0,0.0,0.0,0.0,0.0,0.0,0.0,0.0,0.0,0.0,0.0,0.0,0.0,0.0,0.0,0.0,0.0,0.0,0.0,0.0,0.0,0.0,-2.1694,-2.2432,-2.2959,-2.3564,0.0,0.0,-2.3577,-2.4208,-2.4833,-2.4679,-2.3058,0.0,0.0,0.0,0.0,0.0,0.0,0.0,0.0,0.0,0.0,0.0,0.0,0.0,0.0,0.0,0.0,0.0,0.0,0.0,0.0,0.0,0.0,0.0,0.0,0.0,0.0,0.0,0.0,0.0,0.0,0.0,0.0,0.0,0.0,0.0,0.0,0.0,0.0,0.0,0.0,0.0,0.0,0.0,0.0,0.0,0.0,0.0,0.0,0.0,0.0,0.0,0.0,0.0,-1.6965,-1.6941,-1.9254,-2.025,-1.9958,-2.0484,-2.0736,-2.071,-2.102,-2.065,0.0,0.0,0.0,0.0,0.0,0.0,0.0,0.0,0.0,0.0,0.0,0.0,0.0,0.0,0.0,0.0,0.0,0.0,0.0,0.0,0.0,0.0,0.0,0.0,0.0,0.0,0.0,0.0,-1.7444,-1.7542,-1.7622,0.0,0.0,0.0,0.0,0.0,0.0,0.0,0.0,0.0,0.0,-2.2359,-2.3324,-2.3662,0.0,0.0,-2.4154,-2.3876,-2.414,-2.4405,-2.4022,-2.2413,-2.195,0.0,0.0,0.0,0.0,0.0,0.0,0.0,0.0,0.0,0.0,0.0,0.0,0.0,0.0,0.0,0.0,0.0,0.0,0.0,0.0,0.0,0.0,0.0,0.0,0.0,0.0,0.0,0.0,0.0,0.0,0.0,0.0,0.0,0.0,0.0,0.0,0.0,0.0,0.0,0.0,0.0,0.0,0.0,0.0,0.0,0.0,0.0,0.0,0.0,0.0,0.0,0.0,-1.7335,-1.7245,-1.9832,-2.09,-2.0461,-2.1017,-2.1223,-2.1051,-2.1176,-2.0901,0.0,0.0,0.0,0.0,0.0,0.0,0.0,0.0,0.0,0.0,0.0,0.0,0.0,0.0,0.0,0.0,0.0,0.0,0.0,0.0,0.0,0.0,0.0,0.0,0.0,0.0,0.0,0.0,-1.8,-1.8,-1.7854,0.0,0.0,0.0,0.0,0.0,0.0,0.0,0.0,0.0,0.0,-2.2661,-2.3602,-2.3679,-2.3879,-2.4494,-2.3904,-2.3553,-2.3954,-2.39,-2.3492,-2.236,0.0,0.0,0.0,0.0,0.0,0.0,0.0,0.0,0.0,0.0,0.0,0.0,0.0,0.0,0.0,0.0,0.0,0.0,0.0,0.0,0.0,0.0,0.0,0.0,0.0,0.0,0.0,0.0,0.0,0.0,0.0,0.0,0.0,0.0,0.0,0.0,0.0,0.0,0.0,0.0,0.0,0.0,0.0,0.0,0.0,0.0,0.0,0.0,0.0,0.0,0.0,0.0,0.0,0.0,-1.7457,-2.0006,-2.1103,-2.0701,-2.0827,-2.1062,-2.1275,-2.1315,-2.1134,-2.066,0.0,0.0,0.0,0.0,0.0,0.0,0.0,0.0,0.0,0.0,0.0,0.0,0.0,0.0,0.0,0.0,0.0,0.0,0.0,0.0,0.0,0.0,0.0,0.0,0.0,0.0,-1.7316,-1.7635,-1.7854,0.0,0.0,0.0,0.0,0.0,0.0,0.0,0.0,0.0,0.0,-2.1606,-2.251,-2.3088,-2.3055,-2.3267,-2.3966,-2.3053,-2.263,-2.3816,-2.3539,-2.3124,0.0,0.0,0.0,0.0,0.0,0.0,0.0,0.0,0.0,0.0,0.0,0.0,0.0,0.0,0.0,0.0,0.0,0.0,0.0,0.0,0.0,0.0,0.0,0.0,0.0,0.0,0.0,-1.5731,-1.5659,0.0,0.0,0.0,0.0,0.0,0.0,0.0,0.0,0.0,0.0,0.0,-1.91,-1.9304,0.0,0.0,0.0,0.0,0.0,0.0,0.0,0.0,0.0,0.0,0.0,0.0,-1.8536,-1.8661,-2.0868,-2.1848,-2.1369,-2.1224,-2.1029,-2.0759,-2.0848,-2.0712,-2.0377,0.0,0.0,0.0,0.0,0.0,0.0,0.0,0.0,0.0,0.0,0.0,0.0,0.0,0.0,0.0,0.0,0.0,0.0,0.0,0.0,0.0,0.0,0.0,0.0,0.0,-1.7965,0.0,0.0,0.0,0.0,0.0,0.0,0.0,0.0,0.0,0.0,0.0,-1.9913,-2.1907,-2.2262,-2.2765,-2.4032,-2.415,-2.4563,0.0,0.0,0.0,0.0,0.0,0.0,0.0,0.0,0.0,0.0,0.0,0.0,0.0,0.0,-2.7698,-2.6535,-2.7384,-2.8128,-2.7679,0.0,0.0,0.0,0.0,0.0,0.0,0.0,0.0,0.0,0.0,0.0,0.0,0.0,0.0,0.0,0.0,-1.6873,0.0,0.0,0.0,0.0,0.0,0.0,0.0,0.0,-1.9627,-2.0205,-2.0602,-2.0802,-2.0756,0.0,-2.0296,-1.946,0.0,0.0,0.0,0.0,0.0,0.0,0.0,0.0,-1.923,-1.9568,-2.1299,-2.2127,-2.1801,-2.13,-2.0888,-2.0575,-2.0699,-2.0762,-2.0616,-2.0407,-2.0166,0.0,0.0,0.0,0.0,0.0,0.0,0.0,0.0,0.0,0.0,0.0,0.0,0.0,0.0,0.0,0.0,0.0,0.0,0.0,0.0,0.0,0.0,0.0,-1.8078,0.0,0.0,0.0,0.0,0.0,0.0,0.0,0.0,0.0,-2.0295,-2.042,-2.1164,-2.3001,-2.3276,-2.3455,-2.4079,0.0,0.0,0.0,0.0,0.0,0.0,0.0,-2.32,-2.2801,-2.2951,-2.3609,-2.4994,-2.6707,-2.7904,-2.7838,0.0,0.0,-2.8143,-2.8831,-2.9505,-2.931,-2.9939,-3.0372,-2.9943,-2.9766,-2.9613,0.0,0.0,0.0,0.0,0.0,0.0,0.0,0.0,-1.9309,-1.8841,0.0,-1.8746,0.0,0.0,0.0,0.0,0.0,0.0,0.0,0.0,-2.24,-2.3096,-2.2721,-2.265,-2.2907,-2.3303,-2.1922,-2.1356,-2.1366,-2.0342,0.0,0.0,0.0,0.0,0.0,0.0,-1.9519,-2.0244,-2.1272,-2.1869,-2.2076,-2.1056,-2.0562,-2.0712,-2.0898,-2.1131,-2.1396,-2.1088,-2.106,-2.1316,-2.0147,0.0,0.0,0.0,0.0,0.0,0.0,0.0,0.0,0.0,0.0,0.0,0.0,0.0,0.0,0.0,0.0,0.0,0.0,0.0,0.0,-1.8039,0.0,0.0,0.0,0.0,0.0,0.0,0.0,0.0,0.0,0.0,-2.176,-2.1742,-2.2341,-2.3675,0.0,0.0,0.0,0.0,-2.3811,-2.3469,-2.2674,-2.2409,-2.3094,-2.3589,-2.4165,-2.4755,0.0,0.0,-2.6238,-2.648,-2.6732,-2.6574,-2.8286,-2.9774,-3.0298,-2.9998,-2.9924,-3.0402,-3.0582,-3.0541,-3.0297,-2.9829,-2.9234,-1.9002,0.0,0.0,0.0,0.0,-1.8228,-1.8809,-1.9684,-1.9816,-1.9576,-1.9133,-1.9456,0.0,0.0,0.0,0.0,0.0,0.0,-2.0752,-2.1553,-2.1835,-2.2423,-2.3174,-2.2785,-2.2726,-2.2837,-2.3157,-2.313,-2.2852,-2.3259,-2.1475,-1.7561,0.0,0.0,0.0,0.0,-2.0406,-2.1424,-2.1792,-2.1992,-2.2102,-2.1147,-2.0762,-2.0898,-2.1131,-2.141,-2.1664,-2.1769,-2.1871,-2.1949,-2.141,0.0,0.0,0.0,0.0,0.0,0.0,0.0,0.0,0.0,0.0,0.0,0.0,0.0,0.0,0.0,0.0,0.0,0.0,0.0,-1.8636,-1.8856,-1.9059,0.0,0.0,0.0,0.0,0.0,0.0,0.0,0.0,0.0,-2.3832,-2.3203,-2.2911,0.0,0.0,-2.3012,-2.3055,-2.3942,-2.4819,-2.564,0.0,0.0,0.0,-2.5062,-2.4667,-2.5038,-2.6238,-2.714,-2.719,-2.8032,-2.8727,-2.8644,-2.9175,-2.9639,-2.9864,-3.0881,-3.1465,-3.136,-3.1599,-3.1706,-3.123,-3.0804,-3.0336,-1.9823,-1.8965,-1.8617,-1.8635,-1.8962,-1.9155,-1.9727,-2.0476,-2.0682,-2.0442,-2.0029,-2.0415,-1.9887,-1.8782,-1.9297,0.0,0.0,0.0,-2.1329,-2.2501,-2.2113,-2.2445,-2.3344,-2.3094,-2.3053,-2.3245,-2.3768,-2.3961,-2.37,-2.404,-2.2642,-1.9568,0.0,0.0,-1.9108,-2.0067,-2.1067,-2.1995,-2.1895,-2.182,-2.1861,-2.1184,-2.0898,-2.0983,-2.1375,-2.1602,-2.1793,-2.203,-2.2297,-2.2521,-2.2357,-2.2018,0.0,0.0,0.0,0.0,0.0,0.0,0.0,0.0,0.0,0.0,0.0,-1.9732,0.0,0.0,0.0,0.0,-1.9917,-1.993,-2.026,-2.0655,0.0,0.0,0.0,0.0,0.0,0.0,0.0,-2.3585,-2.4431,-2.5031,-2.5176,-2.4601,-2.4305,-2.4385,-2.421,-2.4028,-2.4063,0.0,-2.5769,-2.6345,-2.5871,-2.5602,-2.5952,-2.5639,-2.5433,-2.5894,-2.6807,-2.7509,-2.7569,-2.8293,-2.8757,-2.8786,-2.8786,-2.8771,-2.8786,-2.9983,-3.0956,-3.0791,-3.1061,-3.118,-3.0708,-3.0327,-2.9847,-2.0318,-2.0232,-1.9393,-1.9447,-2.0095,-2.0138,-2.0538,-2.1233,-2.1649,-2.1343,-2.0561,-2.1441,-2.1113,-1.9934,-2.037,0.0,0.0,-2.2002,-2.2503,-2.3378,-2.3023,-2.302,-2.3463,-2.345,-2.37,-2.4125,-2.3949,-2.3995,-2.4041,-2.3404,-2.2821,-2.2224,-2.2211,-2.1846,-2.108,-2.1003,-2.1404,-2.212,-2.1535,-2.129,-2.1433,-2.1215,-2.1099,-2.1095,-2.1609,-2.1896,-2.1888,-2.217,-2.2593,-2.3172,-2.3083,-2.2947,-2.2918,0.0,0.0,0.0,0.0,0.0,0.0,0.0,0.0,0.0,0.0,0.0,0.0,0.0,0.0,0.0,-2.1926,0.0,-2.2693,-2.3083,0.0,0.0,0.0,-2.3631,-2.4694,-2.5279,-2.5653,-2.5967,0.0,0.0,0.0,0.0,-2.5988,-2.6534,-2.6625,-2.6335,-2.5582,-2.606,-2.6437,-2.5787,-2.5308,-2.4979,-2.5154,-2.5681,-2.6293,-2.696,-2.7335,-2.7437,-2.7437,-2.7569,-2.7655,-2.77,-2.7575,-2.7604,-2.7575,-2.8233,-2.8697,-2.934,-2.949,-2.948,-2.9342,-2.8842,-2.8358,-2.0704,-2.0649,-2.0325,-2.0331,-2.0484,-2.0785,-2.0997,-2.1233,-2.1343,-2.1244,-2.1049,-2.1256,-2.1369,-2.141,-2.1874,-2.2189,-2.2421,-2.2884,-2.3153,-2.3412,-2.3653,-2.3829,-2.3936,-2.3936,-2.3995,-2.4125,-2.4054,-2.4054,-2.4112,-2.3923,-2.3337,-2.2398,-2.2346,-2.1784,-2.0681,-2.0278,-2.0601,-2.1655,-2.1146,-2.0959,-2.1109,-2.1753,-2.1898,-2.163,-2.249,-2.2885,-2.2797,-2.3113,-2.3615,-2.4388,-2.4697,-2.4826,-2.4752,-2.3405,0.0,0.0,0.0,0.0,0.0,0.0,0.0,0.0,0.0,-2.0768,-2.0052,0.0,-2.0627,0.0,-2.3538,-2.4609,-2.5184,-2.5244,0.0,0.0,-2.5556,-2.5514,-2.6677,-2.6773,-2.6543,-2.6062,-2.6481,-2.6533,-2.5865,-2.5778,-2.6039,-2.6611,-2.5872,-2.5099,-2.454,-2.4891,-2.5258,-2.5133,-2.5328,-2.5573,-2.561,-2.6316,-2.6975,-2.7321,-2.7488,-2.7524,-2.7575,-2.7575,-2.756,-2.756,-2.756,-2.756,-2.756,-2.7724,-2.7844,-2.8105,-2.8457,-2.8831,-2.8764,-2.8204,-2.7624,-2.071,-2.0688,-2.0812,-2.0839,-2.0892,-2.1094,-2.1244,-2.1256,-2.1267,-2.1308,-2.1423,-2.1423,-2.1714,-2.2249,-2.2713,-2.3075,-2.3386,-2.3649,-2.391,-2.4086,-2.4144,-2.4261,-2.4505,-2.4505,-2.4505,-2.4505,-2.4505,-2.4505,-2.4478,-2.4239,-2.3801,-2.3163,-2.2631,-2.1862,-2.0911,-2.0184,-2.0162,-2.0878,-2.0673,-2.1082,-2.2008,-2.2342,-2.2281,-2.1848,-2.2999,-2.3144,-2.225,-2.2912,-2.3338,-2.3553,-2.407,-2.4434,-2.4567,-2.38,-2.3219,0.0,0.0,0.0,0.0,0.0,0.0,0.0,0.0,0.0,0.0,0.0,-2.212,0.0,-2.5088,0.0,-2.6813,-2.7267,-2.7723,-2.81,-2.7726,-2.7662,-2.8239,-2.7992,-2.7515,-2.6934,-2.6846,-2.6701,-2.6271,-2.6294,-2.6462,-2.6774,-2.5959,-2.5221,-2.4935,-2.4862,-2.4838,-2.4864,-2.5146,-2.5413,-2.5506,-2.6262,-2.6905,-2.7036,-2.7345,-2.756,-2.756,-2.756,-2.756,-2.756,-2.756,-2.756,-2.756,-2.756,-2.756,-2.767,-2.7874,-2.8098,-2.8128,-2.7793,-2.7488,-2.0635,-2.07,-2.1094,-2.1233,-2.1233,-2.1233,-2.1319,-2.1418,-2.1406,-2.1509,-2.1675,-2.1874,-2.2211,-2.2725,-2.3255,-2.3859,-2.4408,-2.4408,-2.458,-2.4948,-2.4593,-2.4593,-2.5005,-2.5005,-2.5005,-2.5005,-2.5005,-2.5005,-2.4978,-2.4408,-2.4055,-2.3838,-2.2753,-2.1857,-2.1158,-2.0266,-1.9885,-2.006,-2.0429,-2.1458,-2.306,-2.2889,-2.2512,-2.1944,-2.3241,-2.3171,-2.1601,-2.243,-2.2813,-2.2518,-2.3091,-2.3662,-2.4076,-2.4184,-2.413,0.0,-2.3393,0.0,0.0,0.0,0.0,0.0,0.0,0.0,0.0,-2.3834,-2.395,-2.4497,-2.6394,-2.7705,-2.8018,-2.8976,-2.9594,-2.9594,-2.9594,-2.9495,-2.923,-2.8758,-2.8263,-2.7861,-2.738,-2.6989,-2.687,-2.6937,-2.6989,-2.6695,-2.6163,-2.5639,-2.5523,-2.5019,-2.4677,-2.4792,-2.4793,-2.4907,-2.5232,-2.5819,-2.6336,-2.6494,-2.6986,-2.747,-2.741,-2.7565,-2.756,-2.756,-2.756,-2.756,-2.756,-2.756,-2.756,-2.7625,-2.7655,-2.7619,-2.7619,-2.7604,-2.756,-2.1094,-2.1094,-2.1273,-2.1336,-2.14,-2.1521,-2.1544,-2.1418,-2.1542,-2.167,-2.1732,-2.264,-2.3075,-2.3242,-2.4221,-2.4751,-2.4892,-2.4878,-2.4878,-2.5005,-2.4878,-2.4892,-2.5005,-2.5005,-2.5005,-2.5005,-2.5005,-2.5005,-2.4991,-2.4408,-2.3635,-2.2736,-2.1939,-2.1057,-2.0084,0.0,0.0,0.0,-2.0945,-2.1698,-2.209,-2.2818,-2.2898,-2.2352,-2.3185,0.0,-2.3531,-2.3803,-2.4236,-2.4885,-2.5591,0.0,0.0,0.0,0.0,0.0,0.0,0.0,0.0,0.0,0.0,0.0,-2.5006,-2.4686,-2.4712,-2.5183,-2.5764,-2.6404,-2.7157,-2.8053,-2.9143,-2.9436,-2.9594,-2.9594,-2.9579,-2.9381,-2.8832,-2.8512,-2.8181,-2.7578,-2.7284,-2.713,-2.713,-2.713,-2.6924,-2.6388,-2.5761,-2.5154,-2.4592,-2.4363,-2.4244,-2.4268,-2.4279,-2.4584,-2.5275,-2.5438,-2.5652,-2.5836,-2.6332,-2.6763,-2.6807,-2.7245,-2.756,-2.7545,-2.756,-2.756,-2.756,-2.756,-2.756,-2.756,-2.756,-2.756,-2.756,-2.7575,-2.756,-2.1221,0.0,-2.14,-2.1463,0.0,-2.1698,-2.1733,-2.1619,-2.1729,-2.1818,-2.1966,-2.2822,-2.3374,-2.3669,-2.458,-2.516,-2.5453,-2.5453,-2.5453,-2.5439,-2.5453,-2.5453,-2.5453,-2.5453,-2.5453,-2.5453,-2.5453,-2.5301,-2.4983,-2.4403,-2.363,-2.2732,-2.2111,-2.1489,-2.0955,-2.0973,-2.0927,-2.0745,-2.1583,-2.2323,-2.2972,-2.3801,-2.3822,-2.3036,0.0,0.0,0.0,0.0,0.0,0.0,0.0,0.0,0.0,0.0,0.0,-2.7394,-2.6686,-2.6406,-2.6741,-2.6608,-2.674,-2.7303,-2.7008,-2.6612,-2.6093,-2.6687,-2.7319,-2.7816,-2.8053,-2.8576,-2.946,-2.9594,-2.946,-2.9146,-2.9086,-2.8853,-2.8226,-2.807,-2.7853,-2.7509,-2.7342,-2.7299,-2.7218,-2.7218,-2.6967,-2.6297,-2.5682,-2.5032,-2.4332,-2.3921,-2.3717,-2.3718,-2.3792,-2.4,-2.4386,-2.4819,-2.5029,-2.5164,-2.5637,-2.6039,-2.6138,-2.6653,-2.7095,-2.7156,-2.7335,-2.756,-2.756,-2.756,-2.756,-2.761,-2.7625,-2.769,-2.7675,-2.7625,-2.756,-2.1348,-2.1463,-2.1474,-2.1612,-2.1749,-2.1874,-2.1984,-2.2118,0.0,0.0,0.0,-2.3027,-2.361,-2.4195,-2.4878,-2.5453,-2.5893,-2.5893,-2.5893,-2.5893,-2.5893,-2.5893,-2.5948,-2.5948,-2.5934,-2.5948,-2.5835,-2.5579,-2.5071,-2.4352,-2.3731,-2.318,-2.2574,-2.2278,-2.2278,-2.237,-2.2292,-2.2024,-2.2184,-2.2819,-2.3907,-2.4562,-2.4447,-2.3482,-2.5513,-2.5935,-2.4544,-2.5879,-2.6285,-2.5473,-2.5614,-2.595,-2.6475,-2.6702,-2.7227,-2.8012,-2.8093,-2.8369,-2.8935,-2.8737,-2.8758,-2.909,-2.8716,-2.8165,-2.7454,-2.7913,-2.8316,-2.8646,-2.8656,-2.883,-2.9282,-2.9342,-2.9117,-2.8524,-2.8479,-2.824,-2.773,-2.7625,-2.7575,-2.7449,-2.7444,-2.7401,-2.7284,-2.7253,-2.6985,-2.6219,-2.5556,-2.4995,-2.422,-2.3674,-2.3422,-2.3437,-2.3525,-2.3539,-2.3584,-2.4029,-2.4418,-2.4418,-2.5002,-2.5392,-2.554,-2.6031,-2.6419,-2.6516,-2.6984,-2.727,-2.7465,-2.7465,-2.7495,-2.7495,-2.7575,-2.7629,-2.7474,-2.7379,-2.736,-2.1635,-2.1698,-2.18,-2.1862,-2.1874,-2.2061,-2.243,-2.2861,-2.2394,-2.2445,-2.301,-2.3625,-2.4221,-2.4878,-2.5495,-2.5839,-2.5893,-2.5893,-2.5893,0.0,-2.5893,-2.5948,-2.6056,-2.6071,-2.6125,-2.6176,-2.5692,-2.5445,-2.5217,-2.4148,-2.3521,-2.3364,-2.2822,-2.2569,-2.2569,-2.2555,-2.2569,-2.2523,-2.2523,-2.264,-2.2812,-2.3343,-2.357,-2.3481,-2.4594,-2.5397,-2.5762,-2.6383,-2.6872,-2.7284,-2.7373,-2.7696,-2.8333,-2.8424,-2.8822,-2.9545,-2.9594,-2.9659,-2.9756,-2.952,-2.9284,-2.9106,-2.8858,-2.8511,-2.8273,-2.8174,-2.8232,-2.8274,-2.8221,-2.8137,-2.8228,-2.8238,-2.8238,-2.8102,-2.7991,-2.7861,-2.7765,-2.767,-2.7625,-2.761,-2.756,-2.7575,-2.7545,-2.7111,-2.6494,-2.5807,-2.5164,-2.4477,-2.394,-2.3554,-2.3494,-2.3508,-2.3551,-2.361,-2.364,-2.3655,-2.3804,-2.3759,-2.4368,-2.4805,-2.4882,-2.5482,-2.5892,-2.6031,-2.6211,-2.6484,-2.6985,-2.7058,-2.7091,-2.7139,-2.7187,-2.7035,-2.6641,-2.6473,-2.6699,-2.1761,-2.18,-2.1862,-2.1925,-2.2061,-2.2221,-2.2492,-2.2776,-2.2888,-2.3219,-2.3619,-2.4429,-2.4894,-2.5147,-2.5839,-2.6125,-2.6111,-2.6111,-2.6111,-2.6111,-2.6125,-2.6125,-2.619,-2.5891,-2.5735,-2.5783,-2.5169,-2.4712,-2.434,-2.3769,-2.3326,-2.3044,-2.2744,-2.2615,-2.2735,-2.2735,-2.2721,-2.2752,-2.2991,-2.2958,-2.2749,-2.3816,-2.4327,-2.4089,-2.566,-2.6735,-2.7067,-2.7965,-2.8605,-2.8871,-2.8887,-2.9075,-2.941,-2.9442,-2.9589,-2.9913,-2.9946,-2.9946,-2.9918,-2.9681,-2.9425,-2.9289,-2.9075,-2.8889,-2.8826,-2.8477,-2.8299,-2.8186,-2.8137,-2.8054,-2.802,-2.8005,-2.8005,-2.8005,-2.7955,-2.7886,-2.7926,-2.7851,-2.7806,-2.779,-2.779,-2.784,-2.779,-2.7218,-2.6555,-2.5861,-2.4957,-2.4143,-2.3855,-2.348,-2.3305,-2.3563,-2.3653,-2.3696,-2.3696,-2.3797,-2.3797,-2.3839,-2.4036,-2.426,-2.4381,-2.4918,-2.5315,-2.5468,-2.5713,-2.6169,-2.6688,-2.6811,-2.6902,-2.7081,-2.717,-2.7042,-2.6808,-2.6804,-2.6967,-2.1874,-2.1987,-2.1987,-2.2111,-2.2321,-2.2456,-2.2554,-2.2739,-2.3507,-2.4039,-2.4423,-2.5065,-2.5412,-2.5522,-2.6056,-2.6286,-2.6286,-2.6286,-2.6286,-2.6272,-2.6144,-2.6054,-2.5854,-2.532,-2.4962,-2.4776,-2.429,-2.3803,-2.3421,-2.3378,-2.3134,-2.2704,-2.2661,-2.2706,-2.2841,-2.2841,-2.2947,-2.3082,-2.3397,-2.3412,-2.3051,-2.4491,-2.5168,-2.5134,-2.6914,-2.8092,-2.8268,-2.9366,-2.9946,-2.9962,-2.9946,-2.9989,-3.0017,-3.006,-3.006,-3.006,-3.006,-2.9989,-2.9902,-2.9726,-2.9576,-2.9576,-2.935,-2.9213,-2.9167,-2.8811,-2.8493,-2.8317,-2.8284,-2.8201,-2.8103,-2.8118,-2.8069,-2.8054,-2.8069,-2.8035,-2.8061,-2.8016,-2.8005,-2.7989,-2.7989,-2.7959,-2.7716,-2.72,-2.635,-2.5272,-2.442,-2.3812,-2.3527,-2.3056,-2.2944,-2.3179,-2.345,-2.3568,-2.3628,-2.3849,-2.3952,-2.3982,-2.4,-2.4061,-2.4173,-2.4533,-2.4802,-2.4884,-2.5072,-2.5404,-2.5895,-2.5975,-2.6072,-2.6356,-2.6586,-2.6823,-2.6759,-2.6856,-2.6992,-2.2247,-2.2359,-2.2359,-2.2482,-2.2616,-2.2677,-2.2973,-2.3487,-2.4257,-2.4833,-2.5264,-2.5383,-2.5701,-2.6165,-2.6286,-2.634,-2.634,-2.6286,-2.6326,-2.624,-2.5754,-2.5234,-2.4761,-2.4177,-2.362,-2.3204,-2.3059,-2.2973,-2.2886,-2.2975,-2.29,-2.2888,-2.2888,-2.2902,-2.2902,-2.2992,-2.3231,-2.3623,-2.3769,-2.3741,-2.361,-2.456,-2.5433,-2.6075,-2.7268,-2.8339,-2.8934,-2.9753,-3.0146,-3.0162,-3.0162,-3.0189,-3.0189,-3.0205,-3.0205,-3.0205,-3.0189,-3.0162,-3.0017,-2.9902,-2.9858,-2.9858,-2.9621,-2.947,-2.9486,-2.9213,-2.8936,-2.87,-2.8477,-2.8396,-2.8348,-2.8363,-2.8348,-2.8348,-2.825,-2.8171,-2.8155,-2.8073,-2.7974,-2.7978,-2.7993,-2.7792,-2.723,-2.6533,-2.5378,-2.3827,-2.3371,-2.296,-2.2519,-2.2261,-2.2124,-2.2282,-2.2646,-2.3011,-2.3102,-2.3603,-2.3781,-2.3888,-2.3979,-2.3991,-2.4074,-2.4184,-2.4291,-2.4343,-2.4004,-2.406,-2.4368,-2.43,-2.4453,-2.5224,-2.5561,-2.5637,-2.5659,-2.5837,-2.5988,-2.2359,-2.242,-2.2555,-2.242,-2.2187,-2.2311,-2.2665,-2.329,-2.4421,-2.5177,-2.5721,-2.6048,-2.6312,-2.6418,-2.6539,-2.6606,-2.6621,-2.6621,-2.6404,-2.6,-2.5394,-2.476,-2.4129,-2.3117,-2.2599,-2.2382,-2.2047,-2.1901,-2.1987,-2.2352,-2.2732,-2.3113,-2.3142,-2.3275,-2.3465,-2.3319,-2.3566,-2.4199,-2.4297,-2.4364,-2.4567,-2.4942,-2.5488,-2.6246,-2.6958,-2.7928,-2.8977,-2.9403,-2.9747,-3.014,-3.0205,-3.0231,-3.0316,-3.0316,-3.0316,-3.0333,-3.0231,-3.0189,-3.0103,-3.0033,-2.9946,-2.9946,-2.9814,-2.9726,-2.971,-2.9502,-2.9289,-2.9152,-2.8936,-2.8811,-2.8811,-2.8668,-2.8573,-2.8558,-2.8444,-2.8332,-2.8317,-2.8299,-2.825,-2.8204,-2.7883,-2.7592,-2.7055,-2.5923,-2.4591,-2.3366,-2.2876,-2.2447,-2.2171,-2.185,-2.1605,-2.162,-2.1835,-2.2103,-2.2415,-2.2729,-2.2958,-2.305,-2.3336,-2.3614,-2.3682,-2.3849,-2.3998,-2.399,-2.3566,-2.348,-2.4103,-2.4042,-2.4107,-2.4623,-2.4878,-2.5113,-2.5614,-2.5748,-2.6032,-2.2128,-2.2311,-2.2492,-2.2318,-2.1959,-2.1981,-2.2328,-2.2967,-2.4256,-2.5173,-2.5769,-2.6576,-2.6803,-2.6707,-2.6643,-2.6622,-2.6607,-2.6433,-2.5995,-2.5325,-2.4742,-2.3999,-2.3139,-2.209,-2.1491,-2.1328,-2.112,-2.1116,-2.1348,-2.1993,-2.2553,-2.3009,-2.3303,-2.3551,-2.3709,-2.3638,-2.4006,-2.4567,-2.4768,-2.5044,-2.54,-2.5476,-2.5799,-2.6467,-2.6836,-2.7613,-2.8812,-2.8894,-2.9239,-2.9929,-2.9978,-3.0103,-3.0401,-3.0401,-3.0459,-3.0401,-3.0316,-3.0248,-3.0231,-3.0146,-3.006,-3.006,-2.9989,-2.9946,-2.9886,-2.971,-2.9621,-2.9576,-2.9441,-2.9259,-2.9075,-2.8936,-2.8842,-2.8779,-2.8668,-2.8589,-2.8573,-2.8589,-2.8573,-2.8542,-2.8264,-2.7566,-2.6884,-2.5397,-2.3894,-2.2887,-2.2362,-2.1923,-2.1784,-2.1301,-2.1044,-2.108,-2.1135,-2.1394,-2.1818,-2.2194,-2.224,-2.2355,-2.2775,-2.3056,-2.3194,-2.3474,-2.3729,-2.373,-2.3339,-2.3121,-2.329,-2.3473,-2.3694,-2.4201,-2.4539,-2.4781,-2.5297,-2.551,-2.5883,-2.1469,-2.2089,-2.2259,-2.2304,-2.2221,-2.1938,-2.2056,-2.2702,-2.4028,-2.4892,-2.5558,-2.6615,-2.7167,-2.7086,-2.6425,-2.6117,-2.6144,-2.5658,-2.4963,-2.4273,-2.3687,-2.2687,-2.1436,-2.0769,-2.018,-1.9832,-2.0253,-2.074,-2.1359,-2.1993,-2.2317,-2.2463,-2.3353,-2.3666,-2.361,-2.4184,-2.4632,-2.4808,-2.5198,-2.5615,-2.601,-2.6099,-2.6323,-2.6813,-2.7172,-2.7611,-2.8357,-2.8423,-2.8738,-2.941,-2.9476,-2.9757,-3.0427,-3.0526,-3.0485,-3.0485,-3.0443,-3.0359,-3.0359,-3.029,-3.0189,-3.0189,-3.006,-3.0017,-3.0033,-2.9902,-2.9858,-2.9858,-2.9858,-2.9637,-2.9259,-2.9121,-2.9075,-2.9075,-2.9075,-2.9045,-2.9045,-2.8998,-2.9091,-2.9013,-2.8778,-2.7881,-2.6288,-2.4831,-2.3362,-2.2165,-2.163,-2.1361,-2.0791,-2.0493,-2.0531,-2.0652,-2.0803,-2.1045,-2.1337,-2.1781,-2.218,-2.2273,-2.2331,-2.2593,-2.2902,-2.3172,-2.3384,-2.3422,-2.2925,-2.2638,-2.2523,-2.2626,-2.2891,-2.3345,-2.4074,-2.4513,-2.4748,-2.4756,-2.5128,-2.1425,-2.1864,-2.2293,-2.2309,-2.2086,-2.2667,-2.3268,-2.3892,-2.5113,-2.5967,-2.652,-2.7019,-2.7218,-2.7306,-2.6553,-2.6208,-2.6149,-2.5497,-2.4629,-2.3628,-2.298,-2.1978,-2.0754,-2.0076,-1.9701,-1.9612,-1.979,-2.048,-2.1545,-2.223,-2.275,-2.3093,-2.3503,-2.3879,-2.4271,-2.4379,-2.4784,-2.5535,-2.5594,-2.5509,-2.5539,-2.5526,-2.5459,-2.5192,-2.6104,-2.7164,-2.8395,-2.7964,-2.8207,-2.935,-2.94,-2.9788,-3.051,-3.0609,-3.0609,-3.0593,-3.0526,-3.0443,-3.0443,-3.0359,-3.0316,-3.0316,-3.0205,-3.0146,-3.0103,-3.0119,-3.0076,-3.0076,-3.0076,-2.9973,-2.9842,-2.956,-2.9335,-2.9335,-2.9213,-2.9137,-2.9091,-2.9091,-2.9091,-2.8965,-2.8395,-2.7083,-2.5742,-2.4144,-2.2891,-2.1906,-2.1321,-2.0976,-2.0738,-2.0628,-2.0679,-2.0828,-2.0877,-2.0989,-2.1392,-2.1584,-2.1824,-2.1936,-2.208,-2.2383,-2.2705,-2.2925,-2.3144,-2.3226,-2.2714,-2.2498,-2.2543,-2.2596,-2.2726,-2.2856,-2.3539,-2.3847,-2.403,-2.4116,-2.4511,-2.1272,-2.1555,-2.1954,-2.1988,-2.1912,-2.2332,-2.3119,-2.3997,-2.5077,-2.5819,-2.6357,-2.6802,-2.6956,-2.6723,-2.6128,-2.5916,-2.5878,-2.5094,-2.3999,-2.2786,-2.2091,-2.1188,-2.0264,-1.9694,-1.956,-1.9647,-1.9647,-2.0176,-2.1051,-2.1934,-2.2645,-2.313,-2.3705,-2.4307,-2.4863,-2.4974,-2.5438,-2.5937,-2.5921,-2.5746,-2.5577,-2.5596,-2.5246,-2.4713,-2.5643,-2.6457,-2.7055,-2.6773,-2.7304,-2.8566,-2.9015,-2.9636,-3.0558,-3.0733,-3.0733,-3.0692,-3.0593,-3.0568,-3.0568,-3.0485,-3.0443,-3.0443,-3.0316,-3.0274,-3.0274,-3.0231,-3.0205,-3.0205,-3.0205,-3.0205,-3.0146,-2.9913,-2.9738,-2.9694,-2.9531,-2.9396,-2.9412,-2.9396,-2.9441,-2.9371,-2.8597,-2.7226,-2.5696,-2.4491,-2.3262,-2.2034,-2.1376,-2.1119,-2.1039,-2.1039,-2.1103,-2.1291,-2.1323,-2.1462,-2.1774,-2.2043,-2.1802,-2.1822,-2.1777,-2.21,-2.2486,-2.2687,-2.2822,-2.2882,-2.2811,-2.2647,-2.2579,-2.2659,-2.2685,-2.2712,-2.2875,-2.3209,-2.334,-2.348,-2.3957,-2.1104,-2.1104,-2.113,-2.1498,-2.1709,-2.1191,-2.1415,-2.2934,-2.3695,-2.4409,-2.5077,-2.6027,-2.6228,-2.5689,-2.5241,-2.5106,-2.5226,-2.4253,-2.3116,-2.1979,-2.1162,-2.0498,-1.9779,-1.9735,-1.969,-1.9741,-1.9756,-1.975,-2.0055,-2.1347,-2.2191,-2.264,-2.4131,-2.4847,-2.4996,-2.5746,-2.6118,-2.6046,-2.6241,-2.64,-2.6452,-2.6318,-2.5865,-2.533,-2.5916,-2.5715,-2.4413,-2.5063,-2.6248,-2.7604,-2.8394,-2.9326,-3.0499,-3.0831,-3.0855,-3.0733,-3.0708,-3.0692,-3.0692,-3.0626,-3.0526,-3.0526,-3.0459,-3.0417,-3.0401,-3.0333,-3.0231,-3.0248,-3.0248,-3.0231,-3.0248,-3.0189,-3.0146,-3.0146,-2.9973,-2.993,-2.993,-2.993,-3.0,-3.0018,-2.9412,-2.8417,-2.6864,-2.5463,-2.4116,-2.2498,-2.1807,-2.1645,-2.1493,-2.1493,-2.1601,-2.1781,-2.1794,-2.1866,-2.2215,-2.2487,-2.2118,-2.1797,-2.1697,-2.1767,-2.2322,-2.2614,-2.2726,-2.2767,-2.2751,-2.2613,-2.2685,-2.2738,-2.2764,-2.279,-2.2755,-2.2781,-2.2989,-2.3232,-2.3398,-2.0566,-2.0772,-2.1433,-2.181,-2.209,-2.2472,-2.2981,-2.3301,-2.3623,-2.4074,-2.4744,-2.5166,-2.5514,-2.5802,-2.5636,-2.5153,-2.4458,-2.3568,-2.2918,-2.231,-2.1263,-2.0444,-1.999,-1.9919,-1.9935,-1.9974,-2.0403,-2.06,-2.0834,-2.2194,-2.2848,-2.2861,-2.4246,-2.4938,-2.4924,-2.5589,-2.603,-2.6277,-2.6399,-2.6251,-2.5816,-2.5782,-2.543,-2.4743,-2.494,-2.4837,-2.4406,-2.5497,-2.682,-2.8193,-2.8544,-2.9386,-3.0576,-3.0935,-3.0935,-3.0912,-3.0871,-3.0831,-3.0831,-3.079,-3.0773,-3.0733,-3.0667,-3.0609,-3.0568,-3.0526,-3.0426,-3.0443,-3.0401,-3.0384,-3.0401,-3.0401,-3.0401,-3.0231,-3.0146,-3.0162,-3.0189,-3.0368,-3.0269,-2.9852,-2.9343,-2.8303,-2.6842,-2.5613,-2.4339,-2.3083,-2.2383,-2.1991,-2.1899,-2.1928,-2.194,-2.2147,-2.2186,-2.2237,-2.2517,-2.2632,-2.2381,-2.2198,-2.2068,-2.1924,-2.236,-2.2621,-2.2698,-2.2702,-2.2708,-2.272,-2.2781,-2.2816,-2.2868,-2.2919,-2.297,-2.297,-2.2995,-2.31,-2.33,-1.9801,-1.9999,-2.0709,-2.1206,-2.1482,-2.2131,-2.2596,-2.2958,-2.3003,-2.3302,-2.3709,-2.398,-2.4219,-2.447,-2.4513,-2.4167,-2.35,-2.2692,-2.2373,-2.2294,-2.1122,-2.0328,-2.0021,-2.0005,-2.0005,-2.0066,-2.043,-2.0628,-2.074,-2.2313,-2.3058,-2.308,-2.4585,-2.5493,-2.5438,-2.5872,-2.6314,-2.6521,-2.6555,-2.6337,-2.6,-2.5933,-2.5562,-2.4957,-2.5137,-2.512,-2.4987,-2.5967,-2.6975,-2.795,-2.8706,-2.982,-3.0897,-3.1032,-3.1072,-3.1015,-3.0975,-3.0952,-3.0952,-3.0912,-3.0912,-3.0912,-3.0918,-3.0982,-3.0982,-3.0965,-3.1067,-3.1067,-3.1027,-3.0988,-3.0988,-3.0965,-3.0885,-3.0781,-3.0468,-3.0359,-3.0443,-3.0804,-3.0746,-3.0213,-2.9802,-2.8767,-2.7278,-2.6336,-2.5077,-2.4235,-2.338,-2.2856,-2.2788,-2.26,-2.2603,-2.2588,-2.2598,-2.2677,-2.2799,-2.2747,-2.2624,-2.2624,-2.2624,-2.2544,-2.2701,-2.2824,-2.2903,-2.2903,-2.2885,-2.2893,-2.2952,-2.297,-2.2995,-2.307,-2.3144,-2.3095,-2.307,-2.3144,-2.3291,-1.8885,-1.9002,-1.9261,-1.9894,-2.0486,-2.0295,-2.0926,-2.1849,-2.1861,-2.1931,-2.2154,-2.2595,-2.2621,-2.2206,-2.2489,-2.261,-2.2531,-2.1774,-2.1462,-2.1477,-2.0695,-2.0086,-2.0041,-2.0041,-2.0061,-2.0111,-2.0157,-2.0157,-2.0454,-2.2086,-2.2821,-2.3278,-2.5015,-2.6142,-2.6302,-2.6607,-2.6708,-2.6708,-2.6708,-2.6708,-2.6657,-2.6674,-2.6403,-2.5727,-2.6234,-2.6284,-2.5912,-2.6386,-2.6742,-2.7063,-2.8837,-3.0049,-3.0735,-3.105,-3.1016,-3.0881,-3.0982,-3.1032,-3.0975,-3.1055,-3.1015,-3.1038,-3.1261,-3.1435,-3.1473,-3.166,-3.1823,-3.1806,-3.1752,-3.1752,-3.1733,-3.166,-3.164,-3.1603,-3.1044,-3.074,-3.0845,-3.1155,-3.0962,-3.0663,-3.0526,-2.9883,-2.7874,-2.7449,-2.6661,-2.5715,-2.4672,-2.4077,-2.385,-2.3432,-2.3133,-2.3003,-2.2902,-2.2927,-2.297,-2.2952,-2.2833,-2.285,-2.2902,-2.2927,-2.2902,-2.2977,-2.3045,-2.3045,-2.307,-2.3077,-2.3102,-2.3119,-2.3126,-2.3199,-2.3175,-2.3144,-2.3168,-2.3265,-2.3313,-1.8857,-1.94,-1.967,-2.0088,-2.0653,-2.0664,-2.0874,-2.1171,-2.0773,-2.0922,-2.1288,-2.1481,-2.1842,-2.2179,-2.2164,-2.2072,-2.1704,-2.1381,-2.0952,-2.0742,-2.0466,-2.025,-2.0235,-2.0235,-2.0357,-2.0527,-2.0595,-2.0712,-2.1086,-2.2701,-2.3375,-2.3174,-2.5447,-2.6437,-2.6211,-2.6619,-2.6908,-2.6925,-2.6925,-2.6909,-2.6909,-2.6909,-2.6824,-2.672,-2.679,-2.6807,-2.6652,-2.6822,-2.7114,-2.7554,-2.8586,-2.9347,-2.9614,-3.0091,-3.0395,-3.0475,-3.0864,-3.1134,-3.1173,-3.1372,-3.147,-3.149,-3.1752,-3.1933,-3.1933,-3.1986,-3.2003,-3.2003,-3.195,-3.1986,-3.1967,-3.1967,-3.1932,-3.1896,-3.1551,-3.1308,-3.1336,-3.1251,-3.0923,-3.0291,-2.9828,-2.9074,-2.8188,-2.7395,-2.688,-2.6264,-2.5314,-2.44,-2.4355,-2.3696,-2.3168,-2.3119,-2.3028,-2.3052,-2.3095,-2.3095,-2.307,-2.307,-2.3095,-2.3126,-2.3102,-2.3077,-2.3077,-2.3095,-2.3144,-2.3175,-2.3217,-2.3241,-2.3289,-2.3336,-2.336,-2.3336,-2.336,-2.343,-2.3448,-1.8475,-1.8929,-1.9244,-1.966,-2.0081,-2.0395,-2.0572,-2.0615,-2.0345,-2.0373,-2.078,-2.0842,-2.1167,-2.1662,-2.1662,-2.1475,-2.1116,-2.1085,-2.0883,-2.0603,-2.0509,-2.046,-2.046,-2.0512,-2.0763,-2.0926,-2.1039,-2.1182,-2.1629,-2.3207,-2.3762,-2.4007,-2.581,-2.6516,-2.6002,-2.6597,-2.6804,-2.6633,-2.6819,-2.6992,-2.6992,-2.6992,-2.6992,-2.6975,-2.6992,-2.6992,-2.6975,-2.6992,-2.73,-2.7862,-2.8476,-2.8869,-2.9102,-2.9602,-2.9975,-3.0153,-3.0725,-3.1107,-3.1452,-3.1731,-3.1932,-3.1986,-3.2213,-3.2384,-3.2417,-3.2486,-3.2603,-3.2636,-3.257,-3.2555,-3.2537,-3.2504,-3.2453,-3.2417,-3.2087,-3.1758,-3.1586,-3.1205,-3.0623,-2.9963,-2.9473,-2.8952,-2.8223,-2.7571,-2.7348,-2.6994,-2.595,-2.5331,-2.4888,-2.3936,-2.3265,-2.3241,-2.3241,-2.3265,-2.3289,-2.3289,-2.3289,-2.3289,-2.3289,-2.3336,-2.3295,-2.3223,-2.3247,-2.3265,-2.3265,-2.3289,-2.3336,-2.3401,-2.3424,-2.3448,-2.3517,-2.3539,-2.3539,-2.3562,-2.3562,-1.7963,-1.8029,-1.8489,-1.8898,-1.9324,-1.9723,-2.0161,-2.0362,-2.0381,-2.0444,-2.0567,-2.0555,-2.0761,-2.081,-2.0996,-2.0857,-2.0826,-2.0838,-2.0857,-2.0811,-2.0844,-2.0827,-2.0811,-2.091,-2.1086,-2.1213,-2.143,-2.1568,-2.2032,-2.3374,-2.412,-2.4565,-2.6041,-2.6563,-2.6387,-2.6766,-2.6595,-2.6236,-2.6527,-2.6766,-2.68,-2.6817,-2.6869,-2.7072,-2.704,-2.7057,-2.7057,-2.7091,-2.7348,-2.798,-2.8228,-2.8456,-2.8905,-2.9298,-2.9695,-3.0003,-3.0421,-3.0941,-3.1548,-3.1899,-3.2297,-3.2366,-3.2684,-3.2844,-3.2894,-3.3086,-3.3226,-3.3226,-3.3304,-3.3214,-3.3147,-3.3111,-3.2822,-3.2611,-3.2224,-3.1601,-3.1271,-3.0892,-3.0374,-2.9653,-2.9492,-2.8971,-2.8504,-2.8209,-2.8146,-2.7636,-2.657,-2.5681,-2.5059,-2.4182,-2.3655,-2.3453,-2.3453,-2.3494,-2.3517,-2.3499,-2.3499,-2.3499,-2.3476,-2.3499,-2.3476,-2.3435,-2.3453,-2.3453,-2.343,-2.343,-2.3499,-2.3539,-2.3539,-2.3539,-2.3607,-2.3607,-2.3607,-2.3629,-2.3652,-1.8347,-1.8707,-1.9064,-1.9508,-1.9904,-2.0222,-2.0489,-2.0674,-2.0674,-2.0704,-2.0714,-2.0735,-2.0783,-2.0843,-2.0843,-2.081,-2.0843,-2.086,-2.0861,-2.1071,-2.1214,-2.1386,-2.1401,-2.1323,-2.1275,-2.1491,-2.1777,-2.2044,-2.2502,-2.3265,-2.4113,-2.4855,-2.5774,-2.6467,-2.6943,-2.7012,-2.684,-2.6237,-2.6272,-2.6409,-2.6413,-2.6447,-2.6688,-2.7132,-2.7218,-2.7218,-2.7218,-2.7235,-2.7304,-2.7407,-2.7476,-2.7693,-2.7982,-2.8508,-2.8987,-2.9414,-2.9951,-3.0577,-3.1258,-3.1682,-3.2121,-3.2648,-3.287,-3.3286,-3.3268,-3.328,-3.3357,-3.3393,-3.3364,-3.3364,-3.3237,-3.2748,-3.2448,-3.2112,-3.1237,-3.036,-3.0161,-2.9998,-2.9737,-2.9475,-2.9026,-2.8569,-2.8336,-2.8291,-2.8192,-2.7977,-2.7139,-2.6015,-2.5194,-2.4409,-2.3914,-2.3567,-2.3567,-2.3585,-2.3607,-2.3589,-2.3589,-2.3607,-2.3611,-2.3611,-2.3589,-2.3567,-2.3567,-2.3562,-2.3562,-2.3607,-2.3611,-2.3652,-2.3652,-2.3652,-2.3656,-2.3674,-2.3696,-2.3718,-2.3721,-1.8567,-1.8898,-1.9384,-1.9747,-2.003,-2.0438,-2.072,-2.0785,-2.0824,-2.0844,-2.091,-2.091,-2.0974,-2.1055,-2.1023,-2.1055,-2.1087,-2.1183,-2.1261,-2.1432,-2.1584,-2.1764,-2.1869,-2.1823,-2.1823,-2.2015,-2.2215,-2.2453,-2.2809,-2.3642,-2.4528,-2.5033,-2.5997,-2.6547,-2.6833,-2.7092,-2.6851,-2.6354,-2.6506,-2.6661,-2.6661,-2.6678,-2.6782,-2.7213,-2.7299,-2.7299,-2.7299,-2.7452,-2.7465,-2.7478,-2.7491,-2.7504,-2.7624,-2.8153,-2.8681,-2.9083,-2.9579,-3.022,-3.085,-3.1296,-3.166,-3.213,-3.2299,-3.2581,-3.2762,-3.2861,-3.3096,-3.3284,-3.3357,-3.3284,-3.285,-3.2107,-3.1709,-3.1419,-3.0532,-2.9834,-2.9717,-2.9403,-2.9115,-2.9017,-2.8711,-2.8514,-2.8398,-2.8299,-2.8273,-2.8121,-2.6877,-2.5828,-2.5488,-2.4741,-2.3988,-2.3652,-2.3634,-2.3652,-2.3696,-2.3696,-2.3696,-2.3696,-2.3674,-2.3696,-2.3674,-2.3634,-2.3611,-2.3629,-2.3652,-2.3634,-2.3678,-2.37,-2.37,-2.37,-2.37,-2.3721,-2.3743,-2.3786,-2.3768,-1.8774,-1.8936,-1.9551,-1.9823,-2.0,-2.0561,-2.0892,-2.0893,-2.0879,-2.099,-2.1085,-2.1149,-2.1181,-2.1277,-2.1294,-2.1294,-2.1389,-2.1769,-2.1927,-2.2049,-2.2475,-2.2673,-2.276,-2.2892,-2.2813,-2.2692,-2.2836,-2.2892,-2.3099,-2.3994,-2.4615,-2.516,-2.6143,-2.6609,-2.6506,-2.6868,-2.6902,-2.6299,-2.6592,-2.6885,-2.6902,-2.6937,-2.7037,-2.7373,-2.7407,-2.7452,-2.7526,-2.7642,-2.7789,-2.7771,-2.802,-2.8037,-2.8027,-2.8255,-2.8717,-2.9076,-2.9395,-2.9864,-3.0441,-3.0839,-3.1045,-3.1125,-3.1253,-3.1619,-3.2165,-3.2446,-3.2809,-3.3078,-3.3212,-3.2777,-3.2089,-3.1292,-3.0894,-3.0659,-3.0079,-2.9681,-2.95,-2.9011,-2.8706,-2.859,-2.8582,-2.8521,-2.8324,-2.8208,-2.8244,-2.8029,-2.677,-2.5793,-2.5476,-2.4936,-2.4109,-2.3718,-2.3718,-2.3721,-2.3743,-2.3747,-2.3743,-2.3743,-2.3743,-2.3743,-2.3743,-2.3725,-2.3725,-2.37,-2.3721,-2.3721,-2.3725,-2.3747,-2.3747,-2.3725,-2.3765,-2.3828,-2.3831,-2.3831,-2.3834,-1.8936,-1.925,-1.9624,-2.0015,-2.0426,-2.0875,-2.1103,-2.1214,-2.1214,-2.1245,-2.1261,-2.1261,-2.1261,-2.1294,-2.1294,-2.1325,-2.1516,-2.2057,-2.2665,-2.2983,-2.3558,-2.3994,-2.4236,-2.4242,-2.416,-2.3836,-2.3715,-2.348,-2.3032,-2.3564,-2.4562,-2.4982,-2.55,-2.5984,-2.6882,-2.7195,-2.6999,-2.6429,-2.6515,-2.6601,-2.6601,-2.6649,-2.6978,-2.7542,-2.7642,-2.7742,-2.7926,-2.7992,-2.802,-2.8047,-2.8352,-2.8474,-2.8474,-2.8576,-2.876,-2.898,-2.9101,-2.9509,-3.0075,-3.0246,-3.0655,-3.1057,-3.106,-3.1472,-3.2047,-3.2311,-3.2447,-3.2809,-3.2653,-3.2017,-3.1274,-3.0504,-3.0087,-2.9789,-2.9409,-2.892,-2.8848,-2.8739,-2.8612,-2.8587,-2.8587,-2.8562,-2.8402,-2.8232,-2.8116,-2.7792,-2.6777,-2.5913,-2.5404,-2.4779,-2.3992,-2.3797,-2.3783,-2.3807,-2.3792,-2.3792,-2.3792,-2.3792,-2.3792,-2.3831,-2.3831,-2.3834,-2.3834,-2.381,-2.3807,-2.3789,-2.3789,-2.3792,-2.3813,-2.3831,-2.3873,-2.3894,-2.3915,-2.3896,-2.3917,-1.9003,-1.925,-1.9767,-2.0104,-2.0429,-2.0974,-2.1247,-2.1294,-2.1294,-2.1294,-2.1294,-2.1294,-2.1294,-2.1294,-2.1294,-2.1402,-2.1793,-2.2387,-2.3056,-2.3602,-2.4149,-2.4785,-2.5244,-2.5296,-2.5108,-2.496,-2.4993,-2.4329,-2.318,-2.4137,-2.4781,-2.5303,-2.5895,-2.6782,-2.7322,-2.7491,-2.7287,-2.6939,-2.6904,-2.6917,-2.6917,-2.7005,-2.7454,-2.7812,-2.8002,-2.8057,-2.8192,-2.8376,-2.8384,-2.8478,-2.8731,-2.8868,-2.8887,-2.8887,-2.8887,-2.8975,-2.9017,-2.9145,-2.9512,-2.9557,-2.9722,-2.9972,-3.0112,-3.0453,-3.0976,-3.1206,-3.1654,-3.191,-3.1592,-3.0911,-3.0493,-2.974,-2.9315,-2.917,-2.888,-2.871,-2.8674,-2.8681,-2.8705,-2.8662,-2.8637,-2.8587,-2.8525,-2.8319,-2.8066,-2.7482,-2.6724,-2.6105,-2.5487,-2.4974,-2.435,-2.3952,-2.3919,-2.3831,-2.3834,-2.3837,-2.3837,-2.3837,-2.3858,-2.3876,-2.3896,-2.3917,-2.3917,-2.3915,-2.3894,-2.3894,-2.3876,-2.3896,-2.3917,-2.3937,-2.3955,-2.3976,-2.3958,-2.3978,-2.3998,-1.913,-1.931,-1.9929,-2.0277,-2.0431,-2.1055,-2.1356,-2.1325,-2.1341,-2.1309,-2.1324,-2.1324,-2.134,-2.1371,-2.1464,-2.1661,-2.2044,-2.2691,-2.3473,-2.4178,-2.4741,-2.5243,-2.5762,-2.593,-2.5948,-2.5825,-2.6106,-2.5551,-2.434,-2.4989,-2.5542,-2.5918,-2.6981,-2.7596,-2.7648,-2.773,-2.7742,-2.7771,-2.7829,-2.7811,-2.7869,-2.7982,-2.8156,-2.835,-2.8402,-2.8384,-2.8547,-2.8694,-2.879,-2.8855,-2.8989,-2.9197,-2.9178,-2.9134,-2.9089,-2.9062,-2.9017,-2.9017,-2.9012,-2.9049,-2.914,-2.9269,-2.9067,-2.9447,-3.0064,-3.0563,-3.0684,-3.0768,-3.0524,-3.0013,-2.9733,-2.9143,-2.8846,-2.8791,-2.8767,-2.8712,-2.8724,-2.8748,-2.8779,-2.8737,-2.8687,-2.8662,-2.8644,-2.8191,-2.7882,-2.7628,-2.6903,-2.6486,-2.5937,-2.5683,-2.5107,-2.4417,-2.4073,-2.391,-2.3876,-2.3917,-2.3917,-2.3917,-2.3937,-2.3937,-2.3976,-2.3996,-2.3996,-2.3996,-2.4054,-2.4034,-2.4036,-2.3998,-2.3996,-2.3996,-2.4016,-2.4036,-2.4074,-2.4074,-2.4094,-1.9347,-1.9752,-2.0108,-2.0516,-2.091,-2.1355,-2.1497,-2.1405,-2.1374,-2.1371,-2.1383,-2.1413,-2.1446,-2.1587,-2.1823,-2.2068,-2.2556,-2.3204,-2.4015,-2.4766,-2.555,-2.63,-2.7221,-2.742,-2.6964,-2.6719,-2.6772,-2.6206,-2.5597,-2.6098,-2.6405,-2.6528,-2.675,-2.7063,-2.7771,-2.7904,-2.7971,-2.7982,-2.8129,-2.8219,-2.8264,-2.829,-2.8446,-2.8603,-2.8676,-2.879,-2.8966,-2.9093,-2.9115,-2.9134,-2.9178,-2.92,-2.9218,-2.9218,-2.9197,-2.9152,-2.9067,-2.8998,-2.8998,-2.9017,-2.8975,-2.8975,-2.8975,-2.9415,-2.9886,-3.0448,-3.0588,-3.0167,-3.0027,-2.971,-2.9235,-2.8895,-2.8785,-2.8785,-2.8785,-2.8779,-2.8798,-2.8822,-2.8852,-2.8834,-2.8785,-2.8785,-2.8785,-2.8202,-2.7674,-2.7401,-2.7146,-2.68,-2.6326,-2.6012,-2.5648,-2.4881,-2.419,-2.3971,-2.3917,-2.3958,-2.3978,-2.3996,-2.4016,-2.4036,-2.4036,-2.4074,-2.4074,-2.4094,-2.4132,-2.4132,-2.4056,-2.4036,-2.4054,-2.4147,-2.4258,-2.4223,-2.417,-2.4189,-2.4337,-1.8728,-1.925,-1.9675,-2.005,-2.0447,-2.1224,-2.1575,-2.153,-2.1516,-2.1531,-2.1524,-2.1519,-2.1609,-2.1882,-2.2153,-2.2449,-2.2816,-2.3385,-2.4116,-2.4778,-2.5499,-2.6224,-2.7004,-2.7341,-2.7236,-2.7573,-2.7565,-2.7565,-2.7102,-2.6801,-2.6836,-2.6898,-2.727,-2.7688,-2.7961,-2.8063,-2.8156,-2.8299,-2.8482,-2.8615,-2.8731,-2.8779,-2.885,-2.9056,-2.9075,-2.9181,-2.9243,-2.9323,-2.9304,-2.9323,-2.9304,-2.9304,-2.9304,-2.9283,-2.924,-2.924,-2.9175,-2.9108,-2.9062,-2.904,-2.9017,-2.9017,-2.9017,-2.9159,-2.9525,-2.98,-2.9978,-2.952,-2.9441,-2.9234,-2.8991,-2.89,-2.8858,-2.8858,-2.8858,-2.887,-2.8888,-2.89,-2.8947,-2.8905,-2.8905,-2.8881,-2.8876,-2.856,-2.8231,-2.8135,-2.7971,-2.7711,-2.6909,-2.6031,-2.5648,-2.5196,-2.4522,-2.3996,-2.3996,-2.4016,-2.4036,-2.4074,-2.4094,-2.4132,-2.4132,-2.4151,-2.4152,-2.4152,-2.417,-2.4133,-2.4095,-2.4113,-2.415,-2.4334,-2.4537,-2.4574,-2.4668,-2.4968,-2.5005,-1.7818,-1.8539,-1.9295,-1.9812,-2.018,-2.1231,-2.1634,-2.1634,-2.1608,-2.1608,-2.1648,-2.1744,-2.196,-2.2275,-2.2546,-2.2824,-2.3133,-2.3383,-2.4118,-2.4659,-2.5158,-2.5989,-2.7041,-2.7433,-2.7665,-2.8182,-2.8075,-2.8012,-2.7942,-2.7719,-2.7424,-2.7317,-2.778,-2.8138,-2.8255,-2.8335,-2.8474,-2.8767,-2.8887,-2.9003,-2.9112,-2.9175,-2.924,-2.9326,-2.9388,-2.9388,-2.9388,-2.9407,-2.9407,-2.9386,-2.9386,-2.9368,-2.9368,-2.9344,-2.9323,-2.9304,-2.924,-2.9197,-2.9152,-2.9108,-2.9062,-2.9062,-2.9062,-2.9099,-2.9095,-2.904,-2.9035,-2.9127,-2.9085,-2.9049,-2.8975,-2.8952,-2.8929,-2.8929,-2.8929,-2.8918,-2.8955,-2.8965,-2.897,-2.8952,-2.8952,-2.8975,-2.8929,-2.8881,-2.8803,-2.8839,-2.8742,-2.853,-2.7643,-2.6494,-2.5969,-2.5646,-2.4677,-2.4129,-2.4094,-2.4094,-2.4113,-2.4152,-2.4209,-2.4227,-2.4209,-2.4228,-2.4247,-2.4247,-2.4247,-2.4266,-2.4284,-2.4266,-2.4281,-2.4649,-2.4979,-2.5089,-2.5259,-2.5597,-2.5818,-1.6615,-1.7801,-1.9315,-2.0186,-2.0648,-2.1453,-2.1718,-2.1688,-2.1688,-2.1718,-2.1774,-2.2005,-2.2412,-2.2884,-2.2985,-2.3157,-2.3453,-2.3494,-2.4284,-2.514,-2.5854,-2.6478,-2.7308,-2.7736,-2.7995,-2.8191,-2.8209,-2.8209,-2.8246,-2.8288,-2.8156,-2.8201,-2.8228,-2.8335,-2.8466,-2.8644,-2.8863,-2.9112,-2.9262,-2.9265,-2.9326,-2.9347,-2.9368,-2.9368,-2.9388,-2.9388,-2.9388,-2.9388,-2.9388,-2.9388,-2.9388,-2.9388,-2.9407,-2.9386,-2.9386,-2.9347,-2.9323,-2.9302,-2.924,-2.9197,-2.9197,-2.9178,-2.9156,-2.9134,-2.9108,-2.9108,-2.9085,-2.904,-2.9021,-2.904,-2.9017,-2.8975,-2.8994,-2.8994,-2.8975,-2.897,-2.8965,-2.897,-2.8975,-2.8975,-2.8975,-2.8975,-2.8975,-2.8929,-2.8929,-2.8923,-2.8947,-2.8735,-2.8288,-2.7321,-2.6698,-2.6059,-2.4904,-2.4337,-2.4208,-2.4228,-2.4229,-2.4284,-2.434,-2.4303,-2.4266,-2.4284,-2.4393,-2.4392,-2.4409,-2.4444,-2.4517,-2.4687,-2.4893,-2.5186,-2.5516,-2.6041,-2.6284,-2.6541,-2.6723,-1.662,-1.7171,-1.9028,-1.9899,-2.0091,-2.0804,-2.135,-2.1731,-2.1764,-2.1869,-2.2033,-2.218,-2.2546,-2.3017,-2.3182,-2.3342,-2.3679,-2.4185,-2.4454,-2.4795,-2.5458,-2.6283,-2.6964,-2.7476,-2.7789,-2.8192,-2.8291,-2.837,-2.8515,-2.8608,-2.8688,-2.8664,-2.8626,-2.8619,-2.8743,-2.891,-2.9115,-2.9246,-2.9368,-2.9407,-2.9388,-2.9388,-2.9388,-2.9388,-2.9388,-2.9388,-2.9388,-2.9388,-2.9388,-2.9388,-2.9388,-2.9388,-2.9388,-2.9388,-2.9409,-2.9409,-2.9407,-2.9407,-2.9347,-2.9265,-2.9218,-2.9218,-2.9218,-2.9218,-2.9178,-2.9197,-2.9175,-2.9152,-2.9134,-2.9156,-2.9134,-2.9089,-2.9062,-2.9062,-2.9062,-2.9044,-2.9058,-2.9081,-2.9093,-2.916,-2.9048,-2.8975,-2.8975,-2.8975,-2.8975,-2.8975,-2.8975,-2.8906,-2.8493,-2.7929,-2.7195,-2.6422,-2.5298,-2.4506,-2.4358,-2.4358,-2.4356,-2.4429,-2.4482,-2.4465,-2.4447,-2.4518,-2.4603,-2.458,-2.4701,-2.4876,-2.5045,-2.526,-2.5568,-2.5948,-2.6691,-2.749,-2.7597,-2.7573,-2.7635,-1.6686,-1.6953,-1.8339,-1.9081,-1.9422,-2.0345,-2.0908,-2.1187,-2.1398,-2.1819,-2.2258,-2.2351,-2.2695,-2.3116,-2.3348,-2.344,-2.3764,-2.4127,-2.4235,-2.4703,-2.5404,-2.6087,-2.659,-2.7176,-2.7985,-2.8334,-2.8448,-2.854,-2.8652,-2.879,-2.8952,-2.906,-2.9101,-2.9093,-2.9048,-2.916,-2.9289,-2.9372,-2.9431,-2.9488,-2.949,-2.949,-2.949,-2.949,-2.947,-2.9411,-2.9411,-2.9409,-2.9388,-2.9388,-2.9388,-2.9388,-2.9409,-2.9429,-2.9451,-2.9471,-2.9511,-2.955,-2.9511,-2.9349,-2.9283,-2.9283,-2.933,-2.933,-2.9291,-2.9351,-2.9434,-2.9375,-2.9355,-2.9353,-2.9332,-2.9353,-2.9334,-2.9357,-2.9334,-2.9334,-2.9314,-2.9329,-2.9304,-2.9293,-2.9249,-2.9249,-2.9249,-2.927,-2.9115,-2.9071,-2.8975,-2.9012,-2.8944,-2.8262,-2.7337,-2.656,-2.569,-2.5004,-2.4462,-2.4461,-2.4476,-2.4596,-2.4647,-2.4666,-2.4682,-2.4748,-2.4764,-2.4719,-2.4911,-2.5296,-2.5721,-2.6124,-2.6477,-2.683,-2.7695,-2.8619,-2.8747,-2.8701,-2.865,-1.6712,-1.7167,-1.733,-1.7881,-1.8751,-2.0221,-2.0482,-2.0196,-2.0688,-2.1504,-2.2394,-2.2712,-2.3017,-2.3342,-2.3567,-2.366,-2.3736,-2.3902,-2.4096,-2.4707,-2.5517,-2.6357,-2.7022,-2.7633,-2.8072,-2.8368,-2.8558,-2.867,-2.8753,-2.9086,-2.9314,-2.9434,-2.9493,-2.9531,-2.9412,-2.9569,-2.9683,-2.9701,-2.9664,-2.9645,-2.9645,-2.9664,-2.9645,-2.9626,-2.9549,-2.9472,-2.9512,-2.9471,-2.9451,-2.9491,-2.9491,-2.9491,-2.9491,-2.957,-2.9589,-2.9608,-2.9769,-2.9836,-2.9853,-2.957,-2.947,-2.9451,-2.9532,-2.9533,-2.9551,-2.9625,-2.9697,-2.9626,-2.9644,-2.9662,-2.9661,-2.9661,-2.9625,-2.9607,-2.957,-2.9551,-2.9507,-2.9504,-2.9492,-2.9476,-2.9569,-2.9662,-2.9644,-2.957,-2.9355,-2.9206,-2.9044,-2.906,-2.9163,-2.8593,-2.7681,-2.6823,-2.6021,-2.5323,-2.4792,-2.461,-2.4588,-2.4719,-2.4827,-2.4856,-2.4884,-2.4959,-2.494,-2.4861,-2.5278,-2.5812,-2.6498,-2.7128,-2.7687,-2.8284,-2.8881,-2.9566,-2.9731,-2.9734,-2.956,-1.6799,-1.7016,-1.7889,-1.8174,-1.8172,-1.9018,-1.9558,-1.9942,-2.0747,-2.1737,-2.2643,-2.3049,-2.3342,-2.3589,-2.37,-2.3765,-2.3822,-2.444,-2.4707,-2.4292,-2.5448,-2.6116,-2.6748,-2.7301,-2.7994,-2.8442,-2.8688,-2.8819,-2.9126,-2.9302,-2.9551,-2.9698,-2.9754,-2.9771,-2.9682,-2.9719,-2.972,-2.9756,-2.9719,-2.9701,-2.9701,-2.9701,-2.9701,-2.9701,-2.9589,-2.957,-2.9664,-2.9589,-2.957,-2.9682,-2.9681,-2.9699,-2.9699,-2.9767,-2.9784,-2.9784,-2.9902,-2.9902,-2.9886,-2.9751,-2.9753,-2.9734,-2.9751,-2.9784,-2.9784,-2.9836,-2.9853,-2.9851,-2.9867,-2.9851,-2.9817,-2.9784,-2.9731,-2.9732,-2.9715,-2.968,-2.9645,-2.9644,-2.9622,-2.9637,-2.9677,-2.9742,-2.975,-2.982,-2.9644,-2.957,-2.9456,-2.9418,-2.9514,-2.8874,-2.8026,-2.7198,-2.6371,-2.5657,-2.5139,-2.4922,-2.4842,-2.4981,-2.5043,-2.5099,-2.5122,-2.513,-2.5141,-2.508,-2.5726,-2.6397,-2.7267,-2.8176,-2.9154,-2.987,-2.9985,-3.0052,-3.0089,-3.0144,-3.0132,-1.6952,-1.7117,-1.8043,-1.8181,-1.7878,-1.8471,-1.9226,-1.9992,-2.0729,-2.1687,-2.2753,-2.3206,-2.3463,-2.366,-2.3786,-2.381,-2.3868,-2.4266,-2.4447,-2.3994,-2.5117,-2.562,-2.6023,-2.662,-2.7411,-2.8051,-2.826,-2.8368,-2.9321,-2.9251,-2.9452,-2.9763,-2.9907,-2.9874,-2.9823,-2.9808,-2.9808,-2.9806,-2.9808,-2.979,-2.9773,-2.9773,-2.9773,-2.9755,-2.97,-2.9682,-2.9771,-2.9787,-2.9734,-2.9869,-2.9918,-2.9918,-2.9918,-2.995,-2.9946,-2.9962,-3.0041,-3.0056,-3.0071,-3.0071,-3.0075,-3.0071,-3.0026,-2.9981,-2.9996,-3.0056,-3.0071,-3.0071,-3.0041,-3.0056,-3.0041,-2.9977,-2.9962,-2.9962,-2.9946,-2.9931,-2.9931,-2.9943,-2.9939,-2.9912,-2.9868,-2.9878,-2.9864,-2.9931,-2.9931,-2.9931,-2.9896,-2.9845,-2.9777,-2.9244,-2.8613,-2.7816,-2.702,-2.636,-2.5735,-2.5222,-2.5194,-2.5241,-2.5233,-2.5233,-2.5233,-2.5231,-2.5262,-2.5427,-2.6042,-2.686,-2.8148,-2.9167,-2.9829,-3.0175,-3.0259,-3.0336,-3.039,-3.041,-3.041,-1.7167,-1.7408,-1.7681,-1.7822,-1.7907,-1.8498,-1.9361,-2.0286,-2.0394,-2.1406,-2.2944,-2.337,-2.3553,-2.3576,-2.3728,-2.3813,-2.3813,-2.3886,-2.3868,-2.3976,-2.4646,-2.494,-2.5361,-2.5887,-2.6767,-2.724,-2.7539,-2.8033,-2.9307,-2.9319,-2.9439,-2.9756,-2.9907,-2.9907,-2.9891,-2.9907,-2.9888,-2.9891,-2.9874,-2.9857,-2.9857,-2.9891,-2.9907,-2.9891,-2.9874,-2.9888,-2.9937,-2.9956,-2.9918,-2.9931,-2.9962,-2.995,-2.9981,-3.0056,-3.0095,-3.015,-3.0267,-3.0311,-3.0311,-3.0299,-3.0311,-3.0286,-3.0182,-3.0136,-3.0155,-3.0247,-3.0273,-3.0286,-3.0286,-3.033,-3.0343,-3.033,-3.0299,-3.0299,-3.0299,-3.0299,-3.0299,-3.0311,-3.0311,-3.0278,-3.0247,-3.0209,-3.0188,-3.0221,-3.0161,-3.0174,-3.0084,-2.986,-2.9837,-2.9994,-2.9355,-2.8657,-2.7892,-2.7166,-2.6484,-2.5662,-2.5294,-2.5273,-2.5274,-2.5274,-2.5303,-2.536,-2.5495,-2.5764,-2.6332,-2.7332,-2.8844,-2.969,-3.0171,-3.0394,-3.0417,-3.0406,-3.0425,-3.0414,-3.0414,-1.7142,-1.7425,-1.7698,-1.7789,-1.7862,-1.8172,-1.9081,-2.0314,-2.06,-2.1686,-2.3334,-2.3584,-2.3689,-2.371,-2.3774,-2.3795,-2.3795,-2.3795,-2.3813,-2.3979,-2.4184,-2.4647,-2.5053,-2.5481,-2.6211,-2.6743,-2.714,-2.7454,-2.863,-2.8992,-2.9434,-2.9851,-2.9794,-2.9813,-2.9921,-3.0003,-2.9972,-2.9956,-2.994,-2.9956,-2.9972,-3.0,-3.0015,-3.0049,-3.003,-3.009,-3.018,-3.0128,-3.0122,-3.0222,-3.0248,-3.0248,-3.026,-3.0305,-3.0311,-3.0311,-3.0367,-3.0398,-3.0398,-3.0398,-3.0398,-3.0398,-3.0323,-3.0323,-3.0343,-3.0355,-3.0398,-3.0398,-3.0398,-3.0398,-3.0398,-3.0398,-3.0398,-3.0398,-3.0398,-3.0398,-3.0398,-3.0398,-3.0398,-3.0379,-3.0348,-3.0367,-3.0362,-3.0343,-3.0286,-3.0355,-3.0271,-3.0016,-2.9915,-3.0088,-2.98,-2.9097,-2.8514,-2.7723,-2.6768,-2.5896,-2.5542,-2.5293,-2.5303,-2.5313,-2.5303,-2.5399,-2.5649,-2.6178,-2.69,-2.82,-2.977,-3.029,-3.0417,-3.0447,-3.0469,-3.0469,-3.0458,-3.0447,-3.0447,-1.7264,-1.7455,-1.7726,-1.7883,-1.7971,-1.8126,-1.9121,-2.0559,-2.0912,-2.1956,-2.3536,-2.372,-2.3795,-2.3795,-2.3795,-2.3795,-2.3816,-2.3901,-2.3939,-2.3959,-2.3981,-2.4373,-2.48,-2.504,-2.5579,-2.6097,-2.6444,-2.6677,-2.7869,-2.8537,-2.8957,-2.9377,-2.9434,-2.9677,-2.9826,-3.0,-3.0049,-3.0034,-3.0015,-3.0064,-3.0094,-3.0104,-3.0152,-3.018,-3.0188,-3.0286,-3.0371,-3.0297,-3.0352,-3.0428,-3.0419,-3.0447,-3.0433,-3.0433,-3.0402,-3.0371,-3.039,-3.041,-3.0398,-3.0398,-3.0398,-3.0398,-3.0398,-3.0398,-3.0379,-3.0398,-3.0398,-3.0398,-3.0398,-3.0398,-3.0398,-3.0398,-3.0398,-3.0398,-3.0398,-3.0398,-3.0398,-3.0398,-3.0398,-3.0398,-3.0398,-3.0398,-3.0398,-3.0398,-3.0398,-3.0379,-3.0359,-3.0232,-3.0155,-3.022,-2.9824,-2.9175,-2.8714,-2.8168,-2.7217,-2.6351,-2.586,-2.5514,-2.5303,-2.5313,-2.5313,-2.5466,-2.5736,-2.6573,-2.7565,-2.875,-2.9773,-3.0246,-3.0439,-3.0441,-3.0423,-3.0481,-3.0471,-3.0499,-3.0479,-1.7375,-1.7572,-1.7816,-1.8035,-1.8229,-1.8318,-1.9367,-2.1035,-2.1059,-2.2123,-2.3539,-2.3795,-2.3795,-2.3795,-2.3795,-2.3837,-2.3881,-2.3981,-2.4079,-2.4135,-2.4247,-2.4467,-2.4501,-2.4498,-2.5122,-2.5333,-2.5562,-2.5982,-2.7032,-2.7755,-2.8264,-2.8616,-2.8833,-2.9152,-2.962,-3.0047,-3.0161,-3.0174,-3.0234,-3.0292,-3.0266,-3.0279,-3.0324,-3.0324,-3.033,-3.0367,-3.0414,-3.0417,-3.0436,-3.046,-3.0481,-3.0479,-3.0469,-3.0458,-3.0428,-3.0417,-3.0425,-3.0402,-3.0402,-3.039,-3.039,-3.041,-3.0398,-3.0398,-3.0398,-3.0398,-3.0398,-3.0398,-3.0398,-3.0398,-3.0398,-3.0398,-3.0398,-3.0398,-3.0398,-3.0398,-3.0398,-3.0398,-3.0398,-3.0398,-3.0398,-3.0398,-3.0398,-3.0398,-3.0398,-3.0398,-3.0379,-3.0333,-3.0217,-3.0237,-3.0006,-2.939,-2.8967,-2.8563,-2.7986,-2.7121,-2.6274,-2.5851,-2.5524,-2.5313,-2.5313,-2.5524,-2.5832,-2.6823,-2.7845,-2.8511,-2.9312,-2.992,-3.0335,-3.0201,-3.025,-3.0434,-3.0492,-3.0443,-3.054,-1.7526,-1.7878,-1.7961,-1.818,-1.8489,-1.8529,-1.9308,-2.055,-2.0533,-2.1776,-2.3503,-2.3759,-2.3795,-2.3795,-2.3795,-2.3858,-2.4039,-2.4098,-2.4192,-2.4301,-2.4424,-2.4543,-2.461,-2.466,-2.4922,-2.5012,-2.5182,-2.5442,-2.637,-2.7077,-2.7594,-2.7951,-2.8354,-2.8987,-2.9331,-2.9839,-3.0304,-3.0292,-3.0414,-3.0433,-3.0349,-3.0359,-3.0383,-3.0406,-3.0447,-3.0509,-3.054,-3.054,-3.053,-3.052,-3.0491,-3.0481,-3.0479,-3.0499,-3.0488,-3.0488,-3.0458,-3.0447,-3.0425,-3.0406,-3.0414,-3.039,-3.039,-3.041,-3.0398,-3.0398,-3.0398,-3.041,-3.0398,-3.0398,-3.0398,-3.0398,-3.0398,-3.0398,-3.0398,-3.0398,-3.0398,-3.0398,-3.0398,-3.0398,-3.0398,-3.0398,-3.0398,-3.0398,-3.0398,-3.0398,-3.0398,-3.0302,-3.0025,-2.9967,-3.0333,-2.9852,-2.9333,-2.889,-2.8429,-2.7852,-2.6986,-2.6246,-2.5832,-2.5592,-2.5341,-2.5774,-2.6255,-2.716,-2.8047,-2.8598,-2.9187,-2.9921,-3.0192,-2.9989,-3.0008,-3.0163,-3.022,-3.0172,-3.0404,-1.7618,-1.7917,-1.8005,-1.8266,-1.8603,-1.8678,-1.9362,-2.0283,-2.042,-2.128,-2.2718,-2.315,-2.3487,-2.3741,-2.3795,-2.3941,-2.4135,-2.4229,-2.4372,-2.4491,-2.4623,-2.4734,-2.4798,-2.4832,-2.4894,-2.4977,-2.501,-2.5308,-2.585,-2.6104,-2.6524,-2.716,-2.7968,-2.8617,-2.8982,-2.9821,-3.0321,-3.0398,-3.0462,-3.0481,-3.0394,-3.0439,-3.049,-3.053,-3.055,-3.0617,-3.0617,-3.0617,-3.0588,-3.0559,-3.054,-3.055,-3.054,-3.05,-3.05,-3.049,-3.049,-3.0499,-3.0458,-3.0439,-3.0447,-3.0436,-3.0425,-3.0436,-3.0436,-3.0436,-3.0414,-3.0402,-3.041,-3.0398,-3.0398,-3.0398,-3.0398,-3.0398,-3.0398,-3.0398,-3.0398,-3.0398,-3.0398,-3.0398,-3.0398,-3.0398,-3.0398,-3.0398,-3.0398,-3.0398,-3.0398,-3.039,-3.0083,-2.9883,-3.0198,-3.0314,-2.9806,-2.9325,-2.8871,-2.8313,-2.7659,-2.6949,-2.6217,-2.5854,-2.5646,-2.6159,-2.6765,-2.7046,-2.7604,-2.8483,-2.912,-2.9563,-2.9796,-2.9622,-2.9718,-2.9872,-2.9909,-3.0031,-3.0393,-1.7681,-1.7856,-1.8091,-1.8368,-1.8697,-1.8788,-1.9359,-2.0212,-2.0317,-2.071,-2.1507,-2.2282,-2.2986,-2.3454,-2.3733,-2.3947,-2.4192,-2.4407,-2.4572,-2.4764,-2.4917,-2.4931,-2.4964,-2.501,-2.5004,-2.5018,-2.5044,-2.5069,-2.5275,-2.5512,-2.5913,-2.6442,-2.7174,-2.7953,-2.8772,-2.949,-2.9881,-2.9872,-2.9989,-3.0298,-3.0434,-3.0559,-3.0569,-3.0588,-3.0617,-3.0617,-3.0617,-3.0617,-3.0617,-3.0598,-3.0588,-3.0588,-3.0588,-3.055,-3.054,-3.052,-3.053,-3.0519,-3.0509,-3.049,-3.0509,-3.0499,-3.0509,-3.0479,-3.0499,-3.0488,-3.0466,-3.0425,-3.0433,-3.039,-3.039,-3.041,-3.041,-3.041,-3.041,-3.041,-3.041,-3.041,-3.041,-3.041,-3.041,-3.041,-3.041,-3.041,-3.041,-3.041,-3.041,-3.039,-3.0364,-3.0252,-3.0329,-3.0463,-3.0252,-2.9778,-2.9382,-2.8844,-2.8285,-2.7412,-2.6679,-2.6202,-2.5958,-2.6339,-2.6431,-2.6137,-2.681,-2.8063,-2.8443,-2.8718,-2.8899,-2.919,-2.9486,-2.9671,-2.9821,-2.9998,-3.049,-1.7811,-1.813,-1.8342,-1.8545,-1.8788,-1.8914,-1.9197,-1.9491,-1.9574,-1.9957,-2.0763,-2.1629,-2.2391,-2.2917,-2.3107,-2.3562,-2.442,-2.462,-2.4842,-2.505,-2.5031,-2.5076,-2.5089,-2.507,-2.5089,-2.5107,-2.513,-2.5168,-2.5215,-2.5283,-2.5401,-2.5738,-2.6606,-2.7121,-2.7318,-2.812,-2.8896,-2.9003,-2.9361,-2.9689,-2.9824,-3.0056,-3.0559,-3.0617,-3.0617,-3.0617,-3.0617,-3.0617,-3.0617,-3.0617,-3.0617,-3.0617,-3.0598,-3.0588,-3.0588,-3.0579,-3.0579,-3.0559,-3.055,-3.0559,-3.0569,-3.0539,-3.0539,-3.0528,-3.0528,-3.0528,-3.0518,-3.0499,-3.0458,-3.0436,-3.0425,-3.0421,-3.0421,-3.0414,-3.0414,-3.0421,-3.0421,-3.0421,-3.0421,-3.0421,-3.0421,-3.0421,-3.0421,-3.0421,-3.0414,-3.0433,-3.0475,-3.0475,-3.0444,-3.0466,-3.0469,-3.0497,-3.0524,-3.0455,-3.0155,-2.9511,-2.8876,-2.7962,-2.7112,-2.6524,-2.6243,-2.6379,-2.6359,-2.6212,-2.6787,-2.7929,-2.8124,-2.8096,-2.8354,-2.8685,-2.9171,-2.9477,-2.9668,-3.0042,-3.058]}]]